<?xml version="1.0" encoding="UTF-8" standalone="no" ?>
<gpx xmlns="http://www.topografix.com/GPX/1/1" xmlns:xsi="http://www.w3.org/2001/XMLSchema-instance" xsi:schemaLocation="http://www.topografix.com/GPX/1/1 http://www.topografix.com/GPX/1/1/gpx.xsd" version="1.1" creator="VisuGPX - https://www.visugpx.com">
  <metadata>
    <name>Coudon-Gabet</name>
    <desc><![CDATA[boucle au départ de la valette du var. montée au sommet du coudon par la piste puis la route goudronnée. du sommet (un peu avant) plonger sur le petit coudon (attention très difficile au début, pied à terre obligatoire pour moi) puis les selves. remonter au mourras puis au bau rouge et redescendre sur les gabets. fin de la boucle par retour au selves par piste et goudron puis single sur le canal]]></desc>
  </metadata>
  <wpt lat="43.15178" lon="5.98879">
    <ele>132</ele>
    <name><![CDATA[LAP001]]></name>
    <desc><![CDATA[LAP001]]></desc>
    <cmt><![CDATA[LAP001]]></cmt>
  </wpt>
  <trk>
    <name><![CDATA[Coudon-Gabet_1]]></name>
    <trkseg>
      <trkpt lat="43.1518" lon="5.9888">
        <ele>125.6</ele>
        <time>2023-03-22T07:37:41Z</time>
      </trkpt>
      <trkpt lat="43.1518" lon="5.9888">
        <ele>125.8</ele>
        <time>2023-03-22T07:37:42Z</time>
      </trkpt>
      <trkpt lat="43.1518" lon="5.98876">
        <ele>125.8</ele>
        <time>2023-03-22T07:37:55Z</time>
      </trkpt>
      <trkpt lat="43.15178" lon="5.98857">
        <ele>125.6</ele>
        <time>2023-03-22T07:38:02Z</time>
      </trkpt>
      <trkpt lat="43.15179" lon="5.98814">
        <ele>126</ele>
        <time>2023-03-22T07:38:15Z</time>
      </trkpt>
      <trkpt lat="43.15165" lon="5.98801">
        <ele>126</ele>
        <time>2023-03-22T07:38:19Z</time>
      </trkpt>
      <trkpt lat="43.15158" lon="5.98762">
        <ele>125.8</ele>
        <time>2023-03-22T07:38:28Z</time>
      </trkpt>
      <trkpt lat="43.15152" lon="5.9875">
        <ele>126.4</ele>
        <time>2023-03-22T07:38:34Z</time>
      </trkpt>
      <trkpt lat="43.15152" lon="5.98746">
        <ele>127</ele>
        <time>2023-03-22T07:38:36Z</time>
      </trkpt>
      <trkpt lat="43.15152" lon="5.98741">
        <ele>127.2</ele>
        <time>2023-03-22T07:38:38Z</time>
      </trkpt>
      <trkpt lat="43.1515" lon="5.98731">
        <ele>128.2</ele>
        <time>2023-03-22T07:38:42Z</time>
      </trkpt>
      <trkpt lat="43.15149" lon="5.98715">
        <ele>129.4</ele>
        <time>2023-03-22T07:38:48Z</time>
      </trkpt>
      <trkpt lat="43.15148" lon="5.98713">
        <ele>129.6</ele>
        <time>2023-03-22T07:38:49Z</time>
      </trkpt>
      <trkpt lat="43.15148" lon="5.98701">
        <ele>130.2</ele>
        <time>2023-03-22T07:38:53Z</time>
      </trkpt>
      <trkpt lat="43.15147" lon="5.98696">
        <ele>130.6</ele>
        <time>2023-03-22T07:38:55Z</time>
      </trkpt>
      <trkpt lat="43.15145" lon="5.98683">
        <ele>131.8</ele>
        <time>2023-03-22T07:39:01Z</time>
      </trkpt>
      <trkpt lat="43.15144" lon="5.9867">
        <ele>132.8</ele>
        <time>2023-03-22T07:39:06Z</time>
      </trkpt>
      <trkpt lat="43.15145" lon="5.98655">
        <ele>134</ele>
        <time>2023-03-22T07:39:12Z</time>
      </trkpt>
      <trkpt lat="43.15144" lon="5.98635">
        <ele>135.2</ele>
        <time>2023-03-22T07:39:20Z</time>
      </trkpt>
      <trkpt lat="43.15143" lon="5.98622">
        <ele>136.2</ele>
        <time>2023-03-22T07:39:26Z</time>
      </trkpt>
      <trkpt lat="43.15142" lon="5.98602">
        <ele>137.4</ele>
        <time>2023-03-22T07:39:33Z</time>
      </trkpt>
      <trkpt lat="43.15142" lon="5.98591">
        <ele>138.4</ele>
        <time>2023-03-22T07:39:37Z</time>
      </trkpt>
      <trkpt lat="43.15145" lon="5.98575">
        <ele>139.4</ele>
        <time>2023-03-22T07:39:43Z</time>
      </trkpt>
      <trkpt lat="43.15149" lon="5.9856">
        <ele>140.4</ele>
        <time>2023-03-22T07:39:49Z</time>
      </trkpt>
      <trkpt lat="43.1515" lon="5.98557">
        <ele>140.6</ele>
        <time>2023-03-22T07:39:50Z</time>
      </trkpt>
      <trkpt lat="43.15153" lon="5.98544">
        <ele>141.4</ele>
        <time>2023-03-22T07:39:56Z</time>
      </trkpt>
      <trkpt lat="43.15158" lon="5.98533">
        <ele>142.2</ele>
        <time>2023-03-22T07:40:01Z</time>
      </trkpt>
      <trkpt lat="43.1516" lon="5.98531">
        <ele>142.6</ele>
        <time>2023-03-22T07:40:02Z</time>
      </trkpt>
      <trkpt lat="43.15166" lon="5.98522">
        <ele>143.6</ele>
        <time>2023-03-22T07:40:07Z</time>
      </trkpt>
      <trkpt lat="43.1517" lon="5.98514">
        <ele>144.6</ele>
        <time>2023-03-22T07:40:11Z</time>
      </trkpt>
      <trkpt lat="43.15177" lon="5.98501">
        <ele>145.6</ele>
        <time>2023-03-22T07:40:17Z</time>
      </trkpt>
      <trkpt lat="43.15183" lon="5.98488">
        <ele>146.6</ele>
        <time>2023-03-22T07:40:23Z</time>
      </trkpt>
      <trkpt lat="43.15193" lon="5.98465">
        <ele>147.6</ele>
        <time>2023-03-22T07:40:33Z</time>
      </trkpt>
      <trkpt lat="43.15184" lon="5.98442">
        <ele>148.6</ele>
        <time>2023-03-22T07:40:42Z</time>
      </trkpt>
      <trkpt lat="43.15183" lon="5.9844">
        <ele>148.6</ele>
        <time>2023-03-22T07:40:43Z</time>
      </trkpt>
      <trkpt lat="43.15175" lon="5.98432">
        <ele>149.8</ele>
        <time>2023-03-22T07:40:48Z</time>
      </trkpt>
      <trkpt lat="43.15161" lon="5.98423">
        <ele>150.6</ele>
        <time>2023-03-22T07:40:55Z</time>
      </trkpt>
      <trkpt lat="43.15151" lon="5.98413">
        <ele>151.4</ele>
        <time>2023-03-22T07:41:01Z</time>
      </trkpt>
      <trkpt lat="43.15158" lon="5.98402">
        <ele>152.6</ele>
        <time>2023-03-22T07:41:08Z</time>
      </trkpt>
      <trkpt lat="43.15168" lon="5.98405">
        <ele>153.6</ele>
        <time>2023-03-22T07:41:14Z</time>
      </trkpt>
      <trkpt lat="43.15177" lon="5.98409">
        <ele>154.6</ele>
        <time>2023-03-22T07:41:19Z</time>
      </trkpt>
      <trkpt lat="43.15184" lon="5.98413">
        <ele>155.6</ele>
        <time>2023-03-22T07:41:23Z</time>
      </trkpt>
      <trkpt lat="43.15196" lon="5.98417">
        <ele>156.6</ele>
        <time>2023-03-22T07:41:30Z</time>
      </trkpt>
      <trkpt lat="43.15206" lon="5.98424">
        <ele>157.6</ele>
        <time>2023-03-22T07:41:36Z</time>
      </trkpt>
      <trkpt lat="43.15221" lon="5.9843">
        <ele>158.6</ele>
        <time>2023-03-22T07:41:43Z</time>
      </trkpt>
      <trkpt lat="43.15231" lon="5.98439">
        <ele>159.6</ele>
        <time>2023-03-22T07:41:49Z</time>
      </trkpt>
      <trkpt lat="43.15233" lon="5.98446">
        <ele>161</ele>
        <time>2023-03-22T07:41:54Z</time>
      </trkpt>
      <trkpt lat="43.15232" lon="5.98461">
        <ele>161.8</ele>
        <time>2023-03-22T07:41:59Z</time>
      </trkpt>
      <trkpt lat="43.1523" lon="5.98477">
        <ele>163</ele>
        <time>2023-03-22T07:42:05Z</time>
      </trkpt>
      <trkpt lat="43.15229" lon="5.98487">
        <ele>164.2</ele>
        <time>2023-03-22T07:42:09Z</time>
      </trkpt>
      <trkpt lat="43.15226" lon="5.98502">
        <ele>165.2</ele>
        <time>2023-03-22T07:42:15Z</time>
      </trkpt>
      <trkpt lat="43.15221" lon="5.98518">
        <ele>166.4</ele>
        <time>2023-03-22T07:42:21Z</time>
      </trkpt>
      <trkpt lat="43.15216" lon="5.98537">
        <ele>167.6</ele>
        <time>2023-03-22T07:42:28Z</time>
      </trkpt>
      <trkpt lat="43.15213" lon="5.98552">
        <ele>168.8</ele>
        <time>2023-03-22T07:42:34Z</time>
      </trkpt>
      <trkpt lat="43.15213" lon="5.98564">
        <ele>170</ele>
        <time>2023-03-22T07:42:39Z</time>
      </trkpt>
      <trkpt lat="43.15213" lon="5.98577">
        <ele>171</ele>
        <time>2023-03-22T07:42:44Z</time>
      </trkpt>
      <trkpt lat="43.15215" lon="5.98597">
        <ele>172</ele>
        <time>2023-03-22T07:42:51Z</time>
      </trkpt>
      <trkpt lat="43.15223" lon="5.98608">
        <ele>173.2</ele>
        <time>2023-03-22T07:42:58Z</time>
      </trkpt>
      <trkpt lat="43.15228" lon="5.98615">
        <ele>174.2</ele>
        <time>2023-03-22T07:43:02Z</time>
      </trkpt>
      <trkpt lat="43.15229" lon="5.98617">
        <ele>174.4</ele>
        <time>2023-03-22T07:43:03Z</time>
      </trkpt>
      <trkpt lat="43.15237" lon="5.98622">
        <ele>175.4</ele>
        <time>2023-03-22T07:43:09Z</time>
      </trkpt>
      <trkpt lat="43.15246" lon="5.98625">
        <ele>176.4</ele>
        <time>2023-03-22T07:43:16Z</time>
      </trkpt>
      <trkpt lat="43.15253" lon="5.98626">
        <ele>177.6</ele>
        <time>2023-03-22T07:43:21Z</time>
      </trkpt>
      <trkpt lat="43.15264" lon="5.98624">
        <ele>178.8</ele>
        <time>2023-03-22T07:43:27Z</time>
      </trkpt>
      <trkpt lat="43.15271" lon="5.9862">
        <ele>179.8</ele>
        <time>2023-03-22T07:43:32Z</time>
      </trkpt>
      <trkpt lat="43.15278" lon="5.98614">
        <ele>180.8</ele>
        <time>2023-03-22T07:43:37Z</time>
      </trkpt>
      <trkpt lat="43.15285" lon="5.98607">
        <ele>181.8</ele>
        <time>2023-03-22T07:43:42Z</time>
      </trkpt>
      <trkpt lat="43.15293" lon="5.98598">
        <ele>183</ele>
        <time>2023-03-22T07:43:47Z</time>
      </trkpt>
      <trkpt lat="43.15302" lon="5.98589">
        <ele>184</ele>
        <time>2023-03-22T07:43:52Z</time>
      </trkpt>
      <trkpt lat="43.15315" lon="5.98574">
        <ele>185.2</ele>
        <time>2023-03-22T07:44:00Z</time>
      </trkpt>
      <trkpt lat="43.15322" lon="5.98559">
        <ele>186.2</ele>
        <time>2023-03-22T07:44:06Z</time>
      </trkpt>
      <trkpt lat="43.1533" lon="5.9854">
        <ele>187.4</ele>
        <time>2023-03-22T07:44:14Z</time>
      </trkpt>
      <trkpt lat="43.15335" lon="5.98522">
        <ele>188.4</ele>
        <time>2023-03-22T07:44:21Z</time>
      </trkpt>
      <trkpt lat="43.15339" lon="5.98505">
        <ele>189.4</ele>
        <time>2023-03-22T07:44:27Z</time>
      </trkpt>
      <trkpt lat="43.15348" lon="5.98488">
        <ele>190.6</ele>
        <time>2023-03-22T07:44:34Z</time>
      </trkpt>
      <trkpt lat="43.15358" lon="5.9848">
        <ele>191.8</ele>
        <time>2023-03-22T07:44:40Z</time>
      </trkpt>
      <trkpt lat="43.15369" lon="5.98477">
        <ele>192.8</ele>
        <time>2023-03-22T07:44:46Z</time>
      </trkpt>
      <trkpt lat="43.15379" lon="5.98477">
        <ele>193.8</ele>
        <time>2023-03-22T07:44:51Z</time>
      </trkpt>
      <trkpt lat="43.1539" lon="5.98478">
        <ele>194.8</ele>
        <time>2023-03-22T07:44:57Z</time>
      </trkpt>
      <trkpt lat="43.15401" lon="5.98482">
        <ele>196</ele>
        <time>2023-03-22T07:45:03Z</time>
      </trkpt>
      <trkpt lat="43.15413" lon="5.98486">
        <ele>197</ele>
        <time>2023-03-22T07:45:09Z</time>
      </trkpt>
      <trkpt lat="43.15427" lon="5.98494">
        <ele>198.4</ele>
        <time>2023-03-22T07:45:16Z</time>
      </trkpt>
      <trkpt lat="43.15435" lon="5.98496">
        <ele>199.6</ele>
        <time>2023-03-22T07:45:20Z</time>
      </trkpt>
      <trkpt lat="43.15445" lon="5.98503">
        <ele>200.8</ele>
        <time>2023-03-22T07:45:25Z</time>
      </trkpt>
      <trkpt lat="43.15454" lon="5.98511">
        <ele>201.8</ele>
        <time>2023-03-22T07:45:30Z</time>
      </trkpt>
      <trkpt lat="43.15462" lon="5.98513">
        <ele>202.8</ele>
        <time>2023-03-22T07:45:35Z</time>
      </trkpt>
      <trkpt lat="43.15464" lon="5.98511">
        <ele>203.4</ele>
        <time>2023-03-22T07:45:37Z</time>
      </trkpt>
      <trkpt lat="43.15465" lon="5.98508">
        <ele>204.2</ele>
        <time>2023-03-22T07:45:39Z</time>
      </trkpt>
      <trkpt lat="43.15463" lon="5.98503">
        <ele>204.8</ele>
        <time>2023-03-22T07:45:41Z</time>
      </trkpt>
      <trkpt lat="43.15461" lon="5.98498">
        <ele>205.4</ele>
        <time>2023-03-22T07:45:43Z</time>
      </trkpt>
      <trkpt lat="43.15451" lon="5.98484">
        <ele>206.4</ele>
        <time>2023-03-22T07:45:51Z</time>
      </trkpt>
      <trkpt lat="43.15444" lon="5.98473">
        <ele>207.6</ele>
        <time>2023-03-22T07:45:57Z</time>
      </trkpt>
      <trkpt lat="43.15439" lon="5.98464">
        <ele>208.8</ele>
        <time>2023-03-22T07:46:02Z</time>
      </trkpt>
      <trkpt lat="43.15434" lon="5.98453">
        <ele>210</ele>
        <time>2023-03-22T07:46:08Z</time>
      </trkpt>
      <trkpt lat="43.15431" lon="5.98446">
        <ele>211</ele>
        <time>2023-03-22T07:46:12Z</time>
      </trkpt>
      <trkpt lat="43.15428" lon="5.98437">
        <ele>212</ele>
        <time>2023-03-22T07:46:17Z</time>
      </trkpt>
      <trkpt lat="43.15424" lon="5.98423">
        <ele>213.2</ele>
        <time>2023-03-22T07:46:22Z</time>
      </trkpt>
      <trkpt lat="43.15421" lon="5.98404">
        <ele>214.4</ele>
        <time>2023-03-22T07:46:29Z</time>
      </trkpt>
      <trkpt lat="43.1542" lon="5.98391">
        <ele>215.4</ele>
        <time>2023-03-22T07:46:34Z</time>
      </trkpt>
      <trkpt lat="43.15418" lon="5.98371">
        <ele>216.6</ele>
        <time>2023-03-22T07:46:42Z</time>
      </trkpt>
      <trkpt lat="43.15417" lon="5.98354">
        <ele>217.6</ele>
        <time>2023-03-22T07:46:48Z</time>
      </trkpt>
      <trkpt lat="43.15416" lon="5.98335">
        <ele>218.8</ele>
        <time>2023-03-22T07:46:55Z</time>
      </trkpt>
      <trkpt lat="43.15415" lon="5.98316">
        <ele>219.8</ele>
        <time>2023-03-22T07:47:02Z</time>
      </trkpt>
      <trkpt lat="43.15414" lon="5.98299">
        <ele>220.8</ele>
        <time>2023-03-22T07:47:08Z</time>
      </trkpt>
      <trkpt lat="43.15413" lon="5.98277">
        <ele>222</ele>
        <time>2023-03-22T07:47:16Z</time>
      </trkpt>
      <trkpt lat="43.15413" lon="5.98263">
        <ele>223</ele>
        <time>2023-03-22T07:47:21Z</time>
      </trkpt>
      <trkpt lat="43.15413" lon="5.98246">
        <ele>224.2</ele>
        <time>2023-03-22T07:47:27Z</time>
      </trkpt>
      <trkpt lat="43.15413" lon="5.98226">
        <ele>225.4</ele>
        <time>2023-03-22T07:47:34Z</time>
      </trkpt>
      <trkpt lat="43.15412" lon="5.98211">
        <ele>226.4</ele>
        <time>2023-03-22T07:47:39Z</time>
      </trkpt>
      <trkpt lat="43.15409" lon="5.98198">
        <ele>227.6</ele>
        <time>2023-03-22T07:47:44Z</time>
      </trkpt>
      <trkpt lat="43.15406" lon="5.98176">
        <ele>228.6</ele>
        <time>2023-03-22T07:47:52Z</time>
      </trkpt>
      <trkpt lat="43.15404" lon="5.98157">
        <ele>229.6</ele>
        <time>2023-03-22T07:47:58Z</time>
      </trkpt>
      <trkpt lat="43.15416" lon="5.98138">
        <ele>230.8</ele>
        <time>2023-03-22T07:48:07Z</time>
      </trkpt>
      <trkpt lat="43.15426" lon="5.98141">
        <ele>231.8</ele>
        <time>2023-03-22T07:48:14Z</time>
      </trkpt>
      <trkpt lat="43.15436" lon="5.98144">
        <ele>232.8</ele>
        <time>2023-03-22T07:48:21Z</time>
      </trkpt>
      <trkpt lat="43.15443" lon="5.98145">
        <ele>234</ele>
        <time>2023-03-22T07:48:25Z</time>
      </trkpt>
      <trkpt lat="43.1545" lon="5.98145">
        <ele>235</ele>
        <time>2023-03-22T07:48:29Z</time>
      </trkpt>
      <trkpt lat="43.15458" lon="5.98146">
        <ele>236.2</ele>
        <time>2023-03-22T07:48:34Z</time>
      </trkpt>
      <trkpt lat="43.15467" lon="5.98145">
        <ele>237.2</ele>
        <time>2023-03-22T07:48:39Z</time>
      </trkpt>
      <trkpt lat="43.15475" lon="5.98146">
        <ele>238.4</ele>
        <time>2023-03-22T07:48:44Z</time>
      </trkpt>
      <trkpt lat="43.15482" lon="5.98148">
        <ele>239.6</ele>
        <time>2023-03-22T07:48:48Z</time>
      </trkpt>
      <trkpt lat="43.15491" lon="5.9815">
        <ele>240.6</ele>
        <time>2023-03-22T07:48:53Z</time>
      </trkpt>
      <trkpt lat="43.15503" lon="5.98159">
        <ele>241.6</ele>
        <time>2023-03-22T07:48:59Z</time>
      </trkpt>
      <trkpt lat="43.15512" lon="5.98172">
        <ele>242.8</ele>
        <time>2023-03-22T07:49:05Z</time>
      </trkpt>
      <trkpt lat="43.15523" lon="5.98186">
        <ele>243.8</ele>
        <time>2023-03-22T07:49:12Z</time>
      </trkpt>
      <trkpt lat="43.15533" lon="5.982">
        <ele>245</ele>
        <time>2023-03-22T07:49:19Z</time>
      </trkpt>
      <trkpt lat="43.15547" lon="5.98216">
        <ele>246</ele>
        <time>2023-03-22T07:49:26Z</time>
      </trkpt>
      <trkpt lat="43.15575" lon="5.98256">
        <ele>247</ele>
        <time>2023-03-22T07:49:42Z</time>
      </trkpt>
      <trkpt lat="43.1558" lon="5.9827">
        <ele>248</ele>
        <time>2023-03-22T07:49:48Z</time>
      </trkpt>
      <trkpt lat="43.15586" lon="5.98286">
        <ele>249.2</ele>
        <time>2023-03-22T07:49:55Z</time>
      </trkpt>
      <trkpt lat="43.1559" lon="5.98295">
        <ele>250.2</ele>
        <time>2023-03-22T07:49:59Z</time>
      </trkpt>
      <trkpt lat="43.15595" lon="5.98306">
        <ele>251.2</ele>
        <time>2023-03-22T07:50:04Z</time>
      </trkpt>
      <trkpt lat="43.15601" lon="5.98318">
        <ele>252.4</ele>
        <time>2023-03-22T07:50:09Z</time>
      </trkpt>
      <trkpt lat="43.15607" lon="5.98329">
        <ele>253.8</ele>
        <time>2023-03-22T07:50:14Z</time>
      </trkpt>
      <trkpt lat="43.1561" lon="5.98334">
        <ele>254.2</ele>
        <time>2023-03-22T07:50:16Z</time>
      </trkpt>
      <trkpt lat="43.15616" lon="5.98344">
        <ele>254.8</ele>
        <time>2023-03-22T07:50:20Z</time>
      </trkpt>
      <trkpt lat="43.15626" lon="5.98358">
        <ele>256</ele>
        <time>2023-03-22T07:50:26Z</time>
      </trkpt>
      <trkpt lat="43.15636" lon="5.98363">
        <ele>257</ele>
        <time>2023-03-22T07:50:31Z</time>
      </trkpt>
      <trkpt lat="43.15675" lon="5.98347">
        <ele>258</ele>
        <time>2023-03-22T07:50:47Z</time>
      </trkpt>
      <trkpt lat="43.15686" lon="5.98341">
        <ele>259</ele>
        <time>2023-03-22T07:50:52Z</time>
      </trkpt>
      <trkpt lat="43.15695" lon="5.98324">
        <ele>260</ele>
        <time>2023-03-22T07:50:58Z</time>
      </trkpt>
      <trkpt lat="43.15692" lon="5.98298">
        <ele>260.2</ele>
        <time>2023-03-22T07:51:04Z</time>
      </trkpt>
      <trkpt lat="43.15707" lon="5.98255">
        <ele>260.2</ele>
        <time>2023-03-22T07:51:13Z</time>
      </trkpt>
      <trkpt lat="43.15711" lon="5.98252">
        <ele>260.2</ele>
        <time>2023-03-22T07:51:14Z</time>
      </trkpt>
      <trkpt lat="43.15721" lon="5.98243">
        <ele>260</ele>
        <time>2023-03-22T07:51:17Z</time>
      </trkpt>
      <trkpt lat="43.15727" lon="5.9822">
        <ele>259.8</ele>
        <time>2023-03-22T07:51:21Z</time>
      </trkpt>
      <trkpt lat="43.15722" lon="5.98197">
        <ele>259.8</ele>
        <time>2023-03-22T07:51:25Z</time>
      </trkpt>
      <trkpt lat="43.15692" lon="5.98136">
        <ele>259.6</ele>
        <time>2023-03-22T07:51:39Z</time>
      </trkpt>
      <trkpt lat="43.15687" lon="5.98129">
        <ele>259.6</ele>
        <time>2023-03-22T07:51:41Z</time>
      </trkpt>
      <trkpt lat="43.15674" lon="5.98087">
        <ele>260.2</ele>
        <time>2023-03-22T07:51:50Z</time>
      </trkpt>
      <trkpt lat="43.15671" lon="5.98071">
        <ele>260.2</ele>
        <time>2023-03-22T07:51:53Z</time>
      </trkpt>
      <trkpt lat="43.15671" lon="5.98055">
        <ele>260.2</ele>
        <time>2023-03-22T07:51:56Z</time>
      </trkpt>
      <trkpt lat="43.1566" lon="5.97982">
        <ele>259.4</ele>
        <time>2023-03-22T07:52:10Z</time>
      </trkpt>
      <trkpt lat="43.15652" lon="5.97923">
        <ele>260.8</ele>
        <time>2023-03-22T07:52:26Z</time>
      </trkpt>
      <trkpt lat="43.15652" lon="5.9792">
        <ele>260.8</ele>
        <time>2023-03-22T07:52:27Z</time>
      </trkpt>
      <trkpt lat="43.15651" lon="5.97908">
        <ele>261.6</ele>
        <time>2023-03-22T07:52:31Z</time>
      </trkpt>
      <trkpt lat="43.15655" lon="5.97906">
        <ele>261.8</ele>
        <time>2023-03-22T07:52:34Z</time>
      </trkpt>
      <trkpt lat="43.1566" lon="5.97915">
        <ele>262.6</ele>
        <time>2023-03-22T07:52:39Z</time>
      </trkpt>
      <trkpt lat="43.15662" lon="5.97923">
        <ele>262.8</ele>
        <time>2023-03-22T07:52:42Z</time>
      </trkpt>
      <trkpt lat="43.15668" lon="5.97948">
        <ele>264</ele>
        <time>2023-03-22T07:52:50Z</time>
      </trkpt>
      <trkpt lat="43.15677" lon="5.97967">
        <ele>265</ele>
        <time>2023-03-22T07:52:56Z</time>
      </trkpt>
      <trkpt lat="43.1568" lon="5.97966">
        <ele>265</ele>
        <time>2023-03-22T07:52:57Z</time>
      </trkpt>
      <trkpt lat="43.15683" lon="5.97948">
        <ele>265.6</ele>
        <time>2023-03-22T07:53:03Z</time>
      </trkpt>
      <trkpt lat="43.15682" lon="5.97941">
        <ele>266</ele>
        <time>2023-03-22T07:53:05Z</time>
      </trkpt>
      <trkpt lat="43.15694" lon="5.97921">
        <ele>267.2</ele>
        <time>2023-03-22T07:53:15Z</time>
      </trkpt>
      <trkpt lat="43.15704" lon="5.9792">
        <ele>268.4</ele>
        <time>2023-03-22T07:53:21Z</time>
      </trkpt>
      <trkpt lat="43.15709" lon="5.97918">
        <ele>269.4</ele>
        <time>2023-03-22T07:53:24Z</time>
      </trkpt>
      <trkpt lat="43.15717" lon="5.97911">
        <ele>270.4</ele>
        <time>2023-03-22T07:53:29Z</time>
      </trkpt>
      <trkpt lat="43.15724" lon="5.97904">
        <ele>271.4</ele>
        <time>2023-03-22T07:53:34Z</time>
      </trkpt>
      <trkpt lat="43.15731" lon="5.97895">
        <ele>272.6</ele>
        <time>2023-03-22T07:53:40Z</time>
      </trkpt>
      <trkpt lat="43.15742" lon="5.97884">
        <ele>274</ele>
        <time>2023-03-22T07:53:47Z</time>
      </trkpt>
      <trkpt lat="43.15749" lon="5.97876">
        <ele>275</ele>
        <time>2023-03-22T07:53:52Z</time>
      </trkpt>
      <trkpt lat="43.15754" lon="5.9787">
        <ele>276.4</ele>
        <time>2023-03-22T07:53:56Z</time>
      </trkpt>
      <trkpt lat="43.15761" lon="5.97861">
        <ele>277.2</ele>
        <time>2023-03-22T07:54:01Z</time>
      </trkpt>
      <trkpt lat="43.15769" lon="5.97851">
        <ele>278.4</ele>
        <time>2023-03-22T07:54:07Z</time>
      </trkpt>
      <trkpt lat="43.15777" lon="5.97841">
        <ele>279.4</ele>
        <time>2023-03-22T07:54:13Z</time>
      </trkpt>
      <trkpt lat="43.15783" lon="5.9783">
        <ele>280.6</ele>
        <time>2023-03-22T07:54:18Z</time>
      </trkpt>
      <trkpt lat="43.1579" lon="5.97817">
        <ele>281.6</ele>
        <time>2023-03-22T07:54:24Z</time>
      </trkpt>
      <trkpt lat="43.15793" lon="5.97803">
        <ele>283</ele>
        <time>2023-03-22T07:54:30Z</time>
      </trkpt>
      <trkpt lat="43.15796" lon="5.97789">
        <ele>284</ele>
        <time>2023-03-22T07:54:36Z</time>
      </trkpt>
      <trkpt lat="43.15798" lon="5.97776">
        <ele>285</ele>
        <time>2023-03-22T07:54:41Z</time>
      </trkpt>
      <trkpt lat="43.15801" lon="5.97765">
        <ele>286.2</ele>
        <time>2023-03-22T07:54:46Z</time>
      </trkpt>
      <trkpt lat="43.15807" lon="5.97755">
        <ele>287</ele>
        <time>2023-03-22T07:54:51Z</time>
      </trkpt>
      <trkpt lat="43.15818" lon="5.97751">
        <ele>288</ele>
        <time>2023-03-22T07:54:58Z</time>
      </trkpt>
      <trkpt lat="43.15826" lon="5.97749">
        <ele>289</ele>
        <time>2023-03-22T07:55:03Z</time>
      </trkpt>
      <trkpt lat="43.15833" lon="5.97747">
        <ele>290</ele>
        <time>2023-03-22T07:55:07Z</time>
      </trkpt>
      <trkpt lat="43.15842" lon="5.97745">
        <ele>291.2</ele>
        <time>2023-03-22T07:55:13Z</time>
      </trkpt>
      <trkpt lat="43.15852" lon="5.97743">
        <ele>292.4</ele>
        <time>2023-03-22T07:55:19Z</time>
      </trkpt>
      <trkpt lat="43.15863" lon="5.97743">
        <ele>293.4</ele>
        <time>2023-03-22T07:55:25Z</time>
      </trkpt>
      <trkpt lat="43.15874" lon="5.97745">
        <ele>294.6</ele>
        <time>2023-03-22T07:55:31Z</time>
      </trkpt>
      <trkpt lat="43.15883" lon="5.9775">
        <ele>295.6</ele>
        <time>2023-03-22T07:55:36Z</time>
      </trkpt>
      <trkpt lat="43.15891" lon="5.97755">
        <ele>296.6</ele>
        <time>2023-03-22T07:55:41Z</time>
      </trkpt>
      <trkpt lat="43.15901" lon="5.9776">
        <ele>297.8</ele>
        <time>2023-03-22T07:55:47Z</time>
      </trkpt>
      <trkpt lat="43.15909" lon="5.97764">
        <ele>299</ele>
        <time>2023-03-22T07:55:52Z</time>
      </trkpt>
      <trkpt lat="43.15917" lon="5.97768">
        <ele>300</ele>
        <time>2023-03-22T07:55:57Z</time>
      </trkpt>
      <trkpt lat="43.15926" lon="5.97772">
        <ele>301</ele>
        <time>2023-03-22T07:56:03Z</time>
      </trkpt>
      <trkpt lat="43.15935" lon="5.97773">
        <ele>302.2</ele>
        <time>2023-03-22T07:56:08Z</time>
      </trkpt>
      <trkpt lat="43.15945" lon="5.97769">
        <ele>303.6</ele>
        <time>2023-03-22T07:56:14Z</time>
      </trkpt>
      <trkpt lat="43.15951" lon="5.97764">
        <ele>304.4</ele>
        <time>2023-03-22T07:56:18Z</time>
      </trkpt>
      <trkpt lat="43.15959" lon="5.97754">
        <ele>305.8</ele>
        <time>2023-03-22T07:56:24Z</time>
      </trkpt>
      <trkpt lat="43.15964" lon="5.97746">
        <ele>306.8</ele>
        <time>2023-03-22T07:56:28Z</time>
      </trkpt>
      <trkpt lat="43.15971" lon="5.97736">
        <ele>307.8</ele>
        <time>2023-03-22T07:56:34Z</time>
      </trkpt>
      <trkpt lat="43.15979" lon="5.97726">
        <ele>309</ele>
        <time>2023-03-22T07:56:40Z</time>
      </trkpt>
      <trkpt lat="43.15987" lon="5.97715">
        <ele>310.2</ele>
        <time>2023-03-22T07:56:47Z</time>
      </trkpt>
      <trkpt lat="43.15993" lon="5.97706">
        <ele>311.2</ele>
        <time>2023-03-22T07:56:52Z</time>
      </trkpt>
      <trkpt lat="43.16003" lon="5.97696">
        <ele>312.4</ele>
        <time>2023-03-22T07:56:59Z</time>
      </trkpt>
      <trkpt lat="43.1601" lon="5.97687">
        <ele>313.4</ele>
        <time>2023-03-22T07:57:05Z</time>
      </trkpt>
      <trkpt lat="43.16018" lon="5.97679">
        <ele>314.6</ele>
        <time>2023-03-22T07:57:11Z</time>
      </trkpt>
      <trkpt lat="43.16025" lon="5.97671">
        <ele>315.8</ele>
        <time>2023-03-22T07:57:16Z</time>
      </trkpt>
      <trkpt lat="43.16033" lon="5.97664">
        <ele>317</ele>
        <time>2023-03-22T07:57:22Z</time>
      </trkpt>
      <trkpt lat="43.1604" lon="5.97657">
        <ele>318</ele>
        <time>2023-03-22T07:57:27Z</time>
      </trkpt>
      <trkpt lat="43.16049" lon="5.97648">
        <ele>319.2</ele>
        <time>2023-03-22T07:57:33Z</time>
      </trkpt>
      <trkpt lat="43.16059" lon="5.97638">
        <ele>320.4</ele>
        <time>2023-03-22T07:57:40Z</time>
      </trkpt>
      <trkpt lat="43.16065" lon="5.97626">
        <ele>321.4</ele>
        <time>2023-03-22T07:57:46Z</time>
      </trkpt>
      <trkpt lat="43.1607" lon="5.97611">
        <ele>322.6</ele>
        <time>2023-03-22T07:57:52Z</time>
      </trkpt>
      <trkpt lat="43.16075" lon="5.97596">
        <ele>323.6</ele>
        <time>2023-03-22T07:57:58Z</time>
      </trkpt>
      <trkpt lat="43.16079" lon="5.97578">
        <ele>324.4</ele>
        <time>2023-03-22T07:58:05Z</time>
      </trkpt>
      <trkpt lat="43.16079" lon="5.97572">
        <ele>324.6</ele>
        <time>2023-03-22T07:58:07Z</time>
      </trkpt>
      <trkpt lat="43.16082" lon="5.97562">
        <ele>325.2</ele>
        <time>2023-03-22T07:58:11Z</time>
      </trkpt>
      <trkpt lat="43.16084" lon="5.97558">
        <ele>325.4</ele>
        <time>2023-03-22T07:58:13Z</time>
      </trkpt>
      <trkpt lat="43.16085" lon="5.97556">
        <ele>325.8</ele>
        <time>2023-03-22T07:58:20Z</time>
      </trkpt>
      <trkpt lat="43.16085" lon="5.97557">
        <ele>326</ele>
        <time>2023-03-22T07:58:31Z</time>
      </trkpt>
      <trkpt lat="43.16085" lon="5.97557">
        <ele>326</ele>
        <time>2023-03-22T07:58:38Z</time>
      </trkpt>
      <trkpt lat="43.16085" lon="5.97557">
        <ele>326</ele>
        <time>2023-03-22T07:58:57Z</time>
      </trkpt>
      <trkpt lat="43.16085" lon="5.97557">
        <ele>325.6</ele>
        <time>2023-03-22T08:00:07Z</time>
      </trkpt>
      <trkpt lat="43.16095" lon="5.97581">
        <ele>325.6</ele>
        <time>2023-03-22T08:00:21Z</time>
      </trkpt>
      <trkpt lat="43.16078" lon="5.97643">
        <ele>326.6</ele>
        <time>2023-03-22T08:00:39Z</time>
      </trkpt>
      <trkpt lat="43.16072" lon="5.97664">
        <ele>327.8</ele>
        <time>2023-03-22T08:00:47Z</time>
      </trkpt>
      <trkpt lat="43.1607" lon="5.97674">
        <ele>328.8</ele>
        <time>2023-03-22T08:00:51Z</time>
      </trkpt>
      <trkpt lat="43.16069" lon="5.97676">
        <ele>329</ele>
        <time>2023-03-22T08:00:52Z</time>
      </trkpt>
      <trkpt lat="43.16065" lon="5.97688">
        <ele>329.8</ele>
        <time>2023-03-22T08:00:57Z</time>
      </trkpt>
      <trkpt lat="43.16062" lon="5.977">
        <ele>330.6</ele>
        <time>2023-03-22T08:01:02Z</time>
      </trkpt>
      <trkpt lat="43.16061" lon="5.97702">
        <ele>331</ele>
        <time>2023-03-22T08:01:03Z</time>
      </trkpt>
      <trkpt lat="43.16056" lon="5.97716">
        <ele>332.2</ele>
        <time>2023-03-22T08:01:09Z</time>
      </trkpt>
      <trkpt lat="43.16051" lon="5.97733">
        <ele>333.2</ele>
        <time>2023-03-22T08:01:16Z</time>
      </trkpt>
      <trkpt lat="43.16047" lon="5.97746">
        <ele>334.4</ele>
        <time>2023-03-22T08:01:22Z</time>
      </trkpt>
      <trkpt lat="43.16044" lon="5.97755">
        <ele>335.4</ele>
        <time>2023-03-22T08:01:26Z</time>
      </trkpt>
      <trkpt lat="43.1604" lon="5.97767">
        <ele>336.4</ele>
        <time>2023-03-22T08:01:31Z</time>
      </trkpt>
      <trkpt lat="43.16036" lon="5.97783">
        <ele>337.6</ele>
        <time>2023-03-22T08:01:38Z</time>
      </trkpt>
      <trkpt lat="43.16035" lon="5.97795">
        <ele>338.8</ele>
        <time>2023-03-22T08:01:43Z</time>
      </trkpt>
      <trkpt lat="43.16034" lon="5.97807">
        <ele>339.8</ele>
        <time>2023-03-22T08:01:48Z</time>
      </trkpt>
      <trkpt lat="43.16036" lon="5.97824">
        <ele>341</ele>
        <time>2023-03-22T08:01:55Z</time>
      </trkpt>
      <trkpt lat="43.16038" lon="5.97833">
        <ele>342.2</ele>
        <time>2023-03-22T08:01:59Z</time>
      </trkpt>
      <trkpt lat="43.1604" lon="5.97844">
        <ele>343.2</ele>
        <time>2023-03-22T08:02:04Z</time>
      </trkpt>
      <trkpt lat="43.16043" lon="5.97855">
        <ele>344.4</ele>
        <time>2023-03-22T08:02:09Z</time>
      </trkpt>
      <trkpt lat="43.16044" lon="5.97871">
        <ele>345.4</ele>
        <time>2023-03-22T08:02:16Z</time>
      </trkpt>
      <trkpt lat="43.16044" lon="5.97888">
        <ele>346.4</ele>
        <time>2023-03-22T08:02:23Z</time>
      </trkpt>
      <trkpt lat="43.16044" lon="5.9789">
        <ele>346.4</ele>
        <time>2023-03-22T08:02:24Z</time>
      </trkpt>
      <trkpt lat="43.16043" lon="5.97902">
        <ele>347.4</ele>
        <time>2023-03-22T08:02:29Z</time>
      </trkpt>
      <trkpt lat="43.16042" lon="5.97914">
        <ele>348.6</ele>
        <time>2023-03-22T08:02:34Z</time>
      </trkpt>
      <trkpt lat="43.16041" lon="5.97926">
        <ele>349.6</ele>
        <time>2023-03-22T08:02:39Z</time>
      </trkpt>
      <trkpt lat="43.16037" lon="5.9794">
        <ele>350.6</ele>
        <time>2023-03-22T08:02:45Z</time>
      </trkpt>
      <trkpt lat="43.16035" lon="5.97951">
        <ele>351.8</ele>
        <time>2023-03-22T08:02:50Z</time>
      </trkpt>
      <trkpt lat="43.1603" lon="5.97964">
        <ele>353</ele>
        <time>2023-03-22T08:02:56Z</time>
      </trkpt>
      <trkpt lat="43.16026" lon="5.97974">
        <ele>354</ele>
        <time>2023-03-22T08:03:01Z</time>
      </trkpt>
      <trkpt lat="43.16022" lon="5.97984">
        <ele>355.4</ele>
        <time>2023-03-22T08:03:06Z</time>
      </trkpt>
      <trkpt lat="43.16015" lon="5.97998">
        <ele>356.4</ele>
        <time>2023-03-22T08:03:13Z</time>
      </trkpt>
      <trkpt lat="43.16009" lon="5.98012">
        <ele>357.4</ele>
        <time>2023-03-22T08:03:20Z</time>
      </trkpt>
      <trkpt lat="43.16005" lon="5.98023">
        <ele>358.4</ele>
        <time>2023-03-22T08:03:25Z</time>
      </trkpt>
      <trkpt lat="43.16" lon="5.98035">
        <ele>359.6</ele>
        <time>2023-03-22T08:03:31Z</time>
      </trkpt>
      <trkpt lat="43.15997" lon="5.98044">
        <ele>360.6</ele>
        <time>2023-03-22T08:03:35Z</time>
      </trkpt>
      <trkpt lat="43.15994" lon="5.98055">
        <ele>361.8</ele>
        <time>2023-03-22T08:03:40Z</time>
      </trkpt>
      <trkpt lat="43.15989" lon="5.98068">
        <ele>362.8</ele>
        <time>2023-03-22T08:03:46Z</time>
      </trkpt>
      <trkpt lat="43.15986" lon="5.98081">
        <ele>363.8</ele>
        <time>2023-03-22T08:03:52Z</time>
      </trkpt>
      <trkpt lat="43.15984" lon="5.98098">
        <ele>365</ele>
        <time>2023-03-22T08:03:59Z</time>
      </trkpt>
      <trkpt lat="43.15982" lon="5.98114">
        <ele>366.2</ele>
        <time>2023-03-22T08:04:06Z</time>
      </trkpt>
      <trkpt lat="43.15983" lon="5.98126">
        <ele>367.4</ele>
        <time>2023-03-22T08:04:11Z</time>
      </trkpt>
      <trkpt lat="43.15984" lon="5.98138">
        <ele>368.4</ele>
        <time>2023-03-22T08:04:16Z</time>
      </trkpt>
      <trkpt lat="43.15985" lon="5.98152">
        <ele>369.6</ele>
        <time>2023-03-22T08:04:22Z</time>
      </trkpt>
      <trkpt lat="43.15987" lon="5.98165">
        <ele>370.6</ele>
        <time>2023-03-22T08:04:28Z</time>
      </trkpt>
      <trkpt lat="43.15989" lon="5.9818">
        <ele>371.6</ele>
        <time>2023-03-22T08:04:34Z</time>
      </trkpt>
      <trkpt lat="43.15991" lon="5.98193">
        <ele>372.6</ele>
        <time>2023-03-22T08:04:40Z</time>
      </trkpt>
      <trkpt lat="43.15992" lon="5.98202">
        <ele>373.6</ele>
        <time>2023-03-22T08:04:44Z</time>
      </trkpt>
      <trkpt lat="43.15996" lon="5.98214">
        <ele>374.8</ele>
        <time>2023-03-22T08:04:50Z</time>
      </trkpt>
      <trkpt lat="43.15999" lon="5.98224">
        <ele>376.2</ele>
        <time>2023-03-22T08:04:55Z</time>
      </trkpt>
      <trkpt lat="43.16003" lon="5.98237">
        <ele>377.2</ele>
        <time>2023-03-22T08:05:01Z</time>
      </trkpt>
      <trkpt lat="43.16006" lon="5.9825">
        <ele>378.4</ele>
        <time>2023-03-22T08:05:07Z</time>
      </trkpt>
      <trkpt lat="43.16008" lon="5.98264">
        <ele>379.4</ele>
        <time>2023-03-22T08:05:13Z</time>
      </trkpt>
      <trkpt lat="43.16008" lon="5.98276">
        <ele>380.4</ele>
        <time>2023-03-22T08:05:18Z</time>
      </trkpt>
      <trkpt lat="43.16008" lon="5.98288">
        <ele>381.4</ele>
        <time>2023-03-22T08:05:23Z</time>
      </trkpt>
      <trkpt lat="43.16006" lon="5.98297">
        <ele>382.6</ele>
        <time>2023-03-22T08:05:27Z</time>
      </trkpt>
      <trkpt lat="43.16005" lon="5.98306">
        <ele>383.8</ele>
        <time>2023-03-22T08:05:31Z</time>
      </trkpt>
      <trkpt lat="43.16003" lon="5.98322">
        <ele>384.8</ele>
        <time>2023-03-22T08:05:38Z</time>
      </trkpt>
      <trkpt lat="43.16001" lon="5.98336">
        <ele>386</ele>
        <time>2023-03-22T08:05:44Z</time>
      </trkpt>
      <trkpt lat="43.16" lon="5.9835">
        <ele>387.2</ele>
        <time>2023-03-22T08:05:50Z</time>
      </trkpt>
      <trkpt lat="43.15998" lon="5.98363">
        <ele>388.2</ele>
        <time>2023-03-22T08:05:56Z</time>
      </trkpt>
      <trkpt lat="43.15997" lon="5.98376">
        <ele>389.4</ele>
        <time>2023-03-22T08:06:01Z</time>
      </trkpt>
      <trkpt lat="43.15998" lon="5.98391">
        <ele>390.4</ele>
        <time>2023-03-22T08:06:07Z</time>
      </trkpt>
      <trkpt lat="43.15999" lon="5.98405">
        <ele>391.4</ele>
        <time>2023-03-22T08:06:13Z</time>
      </trkpt>
      <trkpt lat="43.16002" lon="5.98422">
        <ele>392.4</ele>
        <time>2023-03-22T08:06:20Z</time>
      </trkpt>
      <trkpt lat="43.16004" lon="5.98433">
        <ele>393.6</ele>
        <time>2023-03-22T08:06:25Z</time>
      </trkpt>
      <trkpt lat="43.16007" lon="5.98445">
        <ele>394.6</ele>
        <time>2023-03-22T08:06:30Z</time>
      </trkpt>
      <trkpt lat="43.1601" lon="5.98456">
        <ele>395.8</ele>
        <time>2023-03-22T08:06:35Z</time>
      </trkpt>
      <trkpt lat="43.16013" lon="5.98465">
        <ele>397</ele>
        <time>2023-03-22T08:06:39Z</time>
      </trkpt>
      <trkpt lat="43.16017" lon="5.98479">
        <ele>398</ele>
        <time>2023-03-22T08:06:45Z</time>
      </trkpt>
      <trkpt lat="43.16018" lon="5.98499">
        <ele>399</ele>
        <time>2023-03-22T08:06:52Z</time>
      </trkpt>
      <trkpt lat="43.16012" lon="5.98529">
        <ele>400.2</ele>
        <time>2023-03-22T08:07:01Z</time>
      </trkpt>
      <trkpt lat="43.15998" lon="5.98566">
        <ele>400.6</ele>
        <time>2023-03-22T08:07:13Z</time>
      </trkpt>
      <trkpt lat="43.15995" lon="5.98573">
        <ele>401.2</ele>
        <time>2023-03-22T08:07:20Z</time>
      </trkpt>
      <trkpt lat="43.15995" lon="5.98573">
        <ele>401.8</ele>
        <time>2023-03-22T08:07:35Z</time>
      </trkpt>
      <trkpt lat="43.15995" lon="5.98573">
        <ele>406.2</ele>
        <time>2023-03-22T08:07:42Z</time>
      </trkpt>
      <trkpt lat="43.15995" lon="5.98573">
        <ele>402</ele>
        <time>2023-03-22T08:08:05Z</time>
      </trkpt>
      <trkpt lat="43.15999" lon="5.98575">
        <ele>402</ele>
        <time>2023-03-22T08:08:14Z</time>
      </trkpt>
      <trkpt lat="43.16015" lon="5.98574">
        <ele>402</ele>
        <time>2023-03-22T08:08:23Z</time>
      </trkpt>
      <trkpt lat="43.16021" lon="5.9855">
        <ele>402.2</ele>
        <time>2023-03-22T08:08:30Z</time>
      </trkpt>
      <trkpt lat="43.16026" lon="5.98524">
        <ele>402.8</ele>
        <time>2023-03-22T08:08:39Z</time>
      </trkpt>
      <trkpt lat="43.16029" lon="5.98514">
        <ele>403.4</ele>
        <time>2023-03-22T08:08:43Z</time>
      </trkpt>
      <trkpt lat="43.16032" lon="5.98504">
        <ele>404.4</ele>
        <time>2023-03-22T08:08:47Z</time>
      </trkpt>
      <trkpt lat="43.16035" lon="5.98494">
        <ele>405.4</ele>
        <time>2023-03-22T08:08:51Z</time>
      </trkpt>
      <trkpt lat="43.16038" lon="5.98482">
        <ele>406.6</ele>
        <time>2023-03-22T08:08:56Z</time>
      </trkpt>
      <trkpt lat="43.16042" lon="5.98468">
        <ele>407.6</ele>
        <time>2023-03-22T08:09:02Z</time>
      </trkpt>
      <trkpt lat="43.16045" lon="5.98456">
        <ele>408.6</ele>
        <time>2023-03-22T08:09:07Z</time>
      </trkpt>
      <trkpt lat="43.1605" lon="5.98442">
        <ele>409.8</ele>
        <time>2023-03-22T08:09:13Z</time>
      </trkpt>
      <trkpt lat="43.16054" lon="5.98431">
        <ele>411</ele>
        <time>2023-03-22T08:09:18Z</time>
      </trkpt>
      <trkpt lat="43.16058" lon="5.9842">
        <ele>412.2</ele>
        <time>2023-03-22T08:09:23Z</time>
      </trkpt>
      <trkpt lat="43.16061" lon="5.98412">
        <ele>413.4</ele>
        <time>2023-03-22T08:09:27Z</time>
      </trkpt>
      <trkpt lat="43.16067" lon="5.98397">
        <ele>414.4</ele>
        <time>2023-03-22T08:09:34Z</time>
      </trkpt>
      <trkpt lat="43.16072" lon="5.98386">
        <ele>415.6</ele>
        <time>2023-03-22T08:09:39Z</time>
      </trkpt>
      <trkpt lat="43.16078" lon="5.98373">
        <ele>416.8</ele>
        <time>2023-03-22T08:09:45Z</time>
      </trkpt>
      <trkpt lat="43.16084" lon="5.98361">
        <ele>417.8</ele>
        <time>2023-03-22T08:09:51Z</time>
      </trkpt>
      <trkpt lat="43.16089" lon="5.98346">
        <ele>419</ele>
        <time>2023-03-22T08:09:58Z</time>
      </trkpt>
      <trkpt lat="43.16093" lon="5.98337">
        <ele>420</ele>
        <time>2023-03-22T08:10:02Z</time>
      </trkpt>
      <trkpt lat="43.16099" lon="5.98328">
        <ele>421.2</ele>
        <time>2023-03-22T08:10:07Z</time>
      </trkpt>
      <trkpt lat="43.16104" lon="5.98318">
        <ele>422.2</ele>
        <time>2023-03-22T08:10:12Z</time>
      </trkpt>
      <trkpt lat="43.1611" lon="5.98305">
        <ele>423.4</ele>
        <time>2023-03-22T08:10:18Z</time>
      </trkpt>
      <trkpt lat="43.16115" lon="5.98295">
        <ele>424.4</ele>
        <time>2023-03-22T08:10:23Z</time>
      </trkpt>
      <trkpt lat="43.16121" lon="5.9828">
        <ele>425.6</ele>
        <time>2023-03-22T08:10:30Z</time>
      </trkpt>
      <trkpt lat="43.16125" lon="5.98272">
        <ele>426.4</ele>
        <time>2023-03-22T08:10:34Z</time>
      </trkpt>
      <trkpt lat="43.1613" lon="5.98259">
        <ele>427.6</ele>
        <time>2023-03-22T08:10:40Z</time>
      </trkpt>
      <trkpt lat="43.16136" lon="5.98247">
        <ele>428.6</ele>
        <time>2023-03-22T08:10:46Z</time>
      </trkpt>
      <trkpt lat="43.16141" lon="5.98236">
        <ele>429.6</ele>
        <time>2023-03-22T08:10:51Z</time>
      </trkpt>
      <trkpt lat="43.16146" lon="5.98224">
        <ele>430.8</ele>
        <time>2023-03-22T08:10:57Z</time>
      </trkpt>
      <trkpt lat="43.16151" lon="5.98211">
        <ele>431.8</ele>
        <time>2023-03-22T08:11:03Z</time>
      </trkpt>
      <trkpt lat="43.16155" lon="5.98202">
        <ele>432.8</ele>
        <time>2023-03-22T08:11:07Z</time>
      </trkpt>
      <trkpt lat="43.16159" lon="5.98194">
        <ele>434</ele>
        <time>2023-03-22T08:11:11Z</time>
      </trkpt>
      <trkpt lat="43.16164" lon="5.98184">
        <ele>435</ele>
        <time>2023-03-22T08:11:16Z</time>
      </trkpt>
      <trkpt lat="43.16167" lon="5.98172">
        <ele>436</ele>
        <time>2023-03-22T08:11:21Z</time>
      </trkpt>
      <trkpt lat="43.16172" lon="5.98156">
        <ele>437.2</ele>
        <time>2023-03-22T08:11:28Z</time>
      </trkpt>
      <trkpt lat="43.16175" lon="5.98145">
        <ele>438.2</ele>
        <time>2023-03-22T08:11:33Z</time>
      </trkpt>
      <trkpt lat="43.1618" lon="5.98132">
        <ele>439.2</ele>
        <time>2023-03-22T08:11:39Z</time>
      </trkpt>
      <trkpt lat="43.16185" lon="5.98123">
        <ele>440.2</ele>
        <time>2023-03-22T08:11:43Z</time>
      </trkpt>
      <trkpt lat="43.16192" lon="5.98116">
        <ele>441.4</ele>
        <time>2023-03-22T08:11:48Z</time>
      </trkpt>
      <trkpt lat="43.162" lon="5.98109">
        <ele>442.4</ele>
        <time>2023-03-22T08:11:53Z</time>
      </trkpt>
      <trkpt lat="43.16209" lon="5.98099">
        <ele>443.6</ele>
        <time>2023-03-22T08:11:59Z</time>
      </trkpt>
      <trkpt lat="43.16218" lon="5.98085">
        <ele>444.6</ele>
        <time>2023-03-22T08:12:05Z</time>
      </trkpt>
      <trkpt lat="43.16231" lon="5.98061">
        <ele>445.6</ele>
        <time>2023-03-22T08:12:14Z</time>
      </trkpt>
      <trkpt lat="43.16244" lon="5.98038">
        <ele>446.6</ele>
        <time>2023-03-22T08:12:22Z</time>
      </trkpt>
      <trkpt lat="43.16252" lon="5.98034">
        <ele>446.6</ele>
        <time>2023-03-22T08:12:25Z</time>
      </trkpt>
      <trkpt lat="43.16258" lon="5.98041">
        <ele>446.8</ele>
        <time>2023-03-22T08:12:28Z</time>
      </trkpt>
      <trkpt lat="43.16253" lon="5.98062">
        <ele>447.2</ele>
        <time>2023-03-22T08:12:34Z</time>
      </trkpt>
      <trkpt lat="43.16244" lon="5.98076">
        <ele>447.8</ele>
        <time>2023-03-22T08:12:39Z</time>
      </trkpt>
      <trkpt lat="43.16232" lon="5.981">
        <ele>448.8</ele>
        <time>2023-03-22T08:12:48Z</time>
      </trkpt>
      <trkpt lat="43.16228" lon="5.98111">
        <ele>449.6</ele>
        <time>2023-03-22T08:12:52Z</time>
      </trkpt>
      <trkpt lat="43.16223" lon="5.98132">
        <ele>450.8</ele>
        <time>2023-03-22T08:12:59Z</time>
      </trkpt>
      <trkpt lat="43.16218" lon="5.98149">
        <ele>451.8</ele>
        <time>2023-03-22T08:13:05Z</time>
      </trkpt>
      <trkpt lat="43.16214" lon="5.98167">
        <ele>453</ele>
        <time>2023-03-22T08:13:11Z</time>
      </trkpt>
      <trkpt lat="43.16213" lon="5.98189">
        <ele>454</ele>
        <time>2023-03-22T08:13:18Z</time>
      </trkpt>
      <trkpt lat="43.16213" lon="5.98207">
        <ele>455.2</ele>
        <time>2023-03-22T08:13:24Z</time>
      </trkpt>
      <trkpt lat="43.16213" lon="5.98219">
        <ele>456.2</ele>
        <time>2023-03-22T08:13:28Z</time>
      </trkpt>
      <trkpt lat="43.16214" lon="5.98241">
        <ele>457.2</ele>
        <time>2023-03-22T08:13:35Z</time>
      </trkpt>
      <trkpt lat="43.16213" lon="5.98262">
        <ele>458.4</ele>
        <time>2023-03-22T08:13:42Z</time>
      </trkpt>
      <trkpt lat="43.16212" lon="5.98284">
        <ele>459.6</ele>
        <time>2023-03-22T08:13:49Z</time>
      </trkpt>
      <trkpt lat="43.1621" lon="5.98305">
        <ele>460.6</ele>
        <time>2023-03-22T08:13:56Z</time>
      </trkpt>
      <trkpt lat="43.16208" lon="5.98317">
        <ele>461.4</ele>
        <time>2023-03-22T08:14:00Z</time>
      </trkpt>
      <trkpt lat="43.16207" lon="5.98322">
        <ele>461.8</ele>
        <time>2023-03-22T08:14:02Z</time>
      </trkpt>
      <trkpt lat="43.16204" lon="5.98339">
        <ele>462.8</ele>
        <time>2023-03-22T08:14:08Z</time>
      </trkpt>
      <trkpt lat="43.162" lon="5.98355">
        <ele>463.8</ele>
        <time>2023-03-22T08:14:14Z</time>
      </trkpt>
      <trkpt lat="43.16196" lon="5.98371">
        <ele>465</ele>
        <time>2023-03-22T08:14:20Z</time>
      </trkpt>
      <trkpt lat="43.16191" lon="5.98387">
        <ele>466</ele>
        <time>2023-03-22T08:14:26Z</time>
      </trkpt>
      <trkpt lat="43.16187" lon="5.98408">
        <ele>467.2</ele>
        <time>2023-03-22T08:14:33Z</time>
      </trkpt>
      <trkpt lat="43.16187" lon="5.9842">
        <ele>468.2</ele>
        <time>2023-03-22T08:14:37Z</time>
      </trkpt>
      <trkpt lat="43.16187" lon="5.98435">
        <ele>469.4</ele>
        <time>2023-03-22T08:14:42Z</time>
      </trkpt>
      <trkpt lat="43.16187" lon="5.98453">
        <ele>470.4</ele>
        <time>2023-03-22T08:14:48Z</time>
      </trkpt>
      <trkpt lat="43.16188" lon="5.98468">
        <ele>471.4</ele>
        <time>2023-03-22T08:14:53Z</time>
      </trkpt>
      <trkpt lat="43.16189" lon="5.98489">
        <ele>472.6</ele>
        <time>2023-03-22T08:15:00Z</time>
      </trkpt>
      <trkpt lat="43.1619" lon="5.98508">
        <ele>473.8</ele>
        <time>2023-03-22T08:15:06Z</time>
      </trkpt>
      <trkpt lat="43.1619" lon="5.98524">
        <ele>474.8</ele>
        <time>2023-03-22T08:15:11Z</time>
      </trkpt>
      <trkpt lat="43.16191" lon="5.98545">
        <ele>475.8</ele>
        <time>2023-03-22T08:15:18Z</time>
      </trkpt>
      <trkpt lat="43.16192" lon="5.9856">
        <ele>476.8</ele>
        <time>2023-03-22T08:15:23Z</time>
      </trkpt>
      <trkpt lat="43.16193" lon="5.98575">
        <ele>478</ele>
        <time>2023-03-22T08:15:28Z</time>
      </trkpt>
      <trkpt lat="43.16193" lon="5.9859">
        <ele>479</ele>
        <time>2023-03-22T08:15:33Z</time>
      </trkpt>
      <trkpt lat="43.16196" lon="5.98609">
        <ele>480</ele>
        <time>2023-03-22T08:15:39Z</time>
      </trkpt>
      <trkpt lat="43.16197" lon="5.98628">
        <ele>481</ele>
        <time>2023-03-22T08:15:45Z</time>
      </trkpt>
      <trkpt lat="43.16197" lon="5.9865">
        <ele>482.2</ele>
        <time>2023-03-22T08:15:52Z</time>
      </trkpt>
      <trkpt lat="43.16195" lon="5.98673">
        <ele>483.4</ele>
        <time>2023-03-22T08:15:59Z</time>
      </trkpt>
      <trkpt lat="43.16196" lon="5.98692">
        <ele>484</ele>
        <time>2023-03-22T08:16:05Z</time>
      </trkpt>
      <trkpt lat="43.16202" lon="5.98707">
        <ele>484.4</ele>
        <time>2023-03-22T08:16:10Z</time>
      </trkpt>
      <trkpt lat="43.16214" lon="5.98736">
        <ele>485.2</ele>
        <time>2023-03-22T08:16:21Z</time>
      </trkpt>
      <trkpt lat="43.16216" lon="5.98739">
        <ele>485.4</ele>
        <time>2023-03-22T08:16:23Z</time>
      </trkpt>
      <trkpt lat="43.16221" lon="5.98752">
        <ele>486.6</ele>
        <time>2023-03-22T08:16:29Z</time>
      </trkpt>
      <trkpt lat="43.1623" lon="5.98772">
        <ele>487.6</ele>
        <time>2023-03-22T08:16:37Z</time>
      </trkpt>
      <trkpt lat="43.16236" lon="5.98793">
        <ele>488.6</ele>
        <time>2023-03-22T08:16:44Z</time>
      </trkpt>
      <trkpt lat="43.16243" lon="5.9881">
        <ele>489.8</ele>
        <time>2023-03-22T08:16:50Z</time>
      </trkpt>
      <trkpt lat="43.16248" lon="5.98825">
        <ele>490.8</ele>
        <time>2023-03-22T08:16:55Z</time>
      </trkpt>
      <trkpt lat="43.16253" lon="5.98839">
        <ele>492</ele>
        <time>2023-03-22T08:17:00Z</time>
      </trkpt>
      <trkpt lat="43.16258" lon="5.98854">
        <ele>493</ele>
        <time>2023-03-22T08:17:05Z</time>
      </trkpt>
      <trkpt lat="43.16265" lon="5.98872">
        <ele>494.2</ele>
        <time>2023-03-22T08:17:11Z</time>
      </trkpt>
      <trkpt lat="43.1627" lon="5.98887">
        <ele>495.4</ele>
        <time>2023-03-22T08:17:16Z</time>
      </trkpt>
      <trkpt lat="43.16277" lon="5.98907">
        <ele>496.6</ele>
        <time>2023-03-22T08:17:22Z</time>
      </trkpt>
      <trkpt lat="43.16281" lon="5.98919">
        <ele>497.6</ele>
        <time>2023-03-22T08:17:26Z</time>
      </trkpt>
      <trkpt lat="43.16316" lon="5.98974">
        <ele>498.6</ele>
        <time>2023-03-22T08:17:41Z</time>
      </trkpt>
      <trkpt lat="43.16328" lon="5.99011">
        <ele>498.6</ele>
        <time>2023-03-22T08:17:50Z</time>
      </trkpt>
      <trkpt lat="43.16335" lon="5.99033">
        <ele>499.6</ele>
        <time>2023-03-22T08:17:56Z</time>
      </trkpt>
      <trkpt lat="43.16341" lon="5.99047">
        <ele>501</ele>
        <time>2023-03-22T08:18:00Z</time>
      </trkpt>
      <trkpt lat="43.16349" lon="5.99066">
        <ele>502.4</ele>
        <time>2023-03-22T08:18:06Z</time>
      </trkpt>
      <trkpt lat="43.1636" lon="5.99085">
        <ele>503.4</ele>
        <time>2023-03-22T08:18:12Z</time>
      </trkpt>
      <trkpt lat="43.16371" lon="5.99102">
        <ele>504.2</ele>
        <time>2023-03-22T08:18:18Z</time>
      </trkpt>
      <trkpt lat="43.16368" lon="5.99134">
        <ele>505.4</ele>
        <time>2023-03-22T08:18:27Z</time>
      </trkpt>
      <trkpt lat="43.16341" lon="5.9916">
        <ele>506.4</ele>
        <time>2023-03-22T08:18:38Z</time>
      </trkpt>
      <trkpt lat="43.16327" lon="5.99182">
        <ele>507.6</ele>
        <time>2023-03-22T08:18:46Z</time>
      </trkpt>
      <trkpt lat="43.16329" lon="5.99203">
        <ele>508.6</ele>
        <time>2023-03-22T08:18:52Z</time>
      </trkpt>
      <trkpt lat="43.16335" lon="5.99235">
        <ele>509.8</ele>
        <time>2023-03-22T08:19:01Z</time>
      </trkpt>
      <trkpt lat="43.16337" lon="5.99256">
        <ele>510.8</ele>
        <time>2023-03-22T08:19:07Z</time>
      </trkpt>
      <trkpt lat="43.16334" lon="5.99273">
        <ele>512</ele>
        <time>2023-03-22T08:19:12Z</time>
      </trkpt>
      <trkpt lat="43.16326" lon="5.99292">
        <ele>513</ele>
        <time>2023-03-22T08:19:18Z</time>
      </trkpt>
      <trkpt lat="43.16321" lon="5.99314">
        <ele>514.2</ele>
        <time>2023-03-22T08:19:25Z</time>
      </trkpt>
      <trkpt lat="43.1632" lon="5.9933">
        <ele>515.2</ele>
        <time>2023-03-22T08:19:30Z</time>
      </trkpt>
      <trkpt lat="43.16319" lon="5.99351">
        <ele>516.2</ele>
        <time>2023-03-22T08:19:37Z</time>
      </trkpt>
      <trkpt lat="43.16315" lon="5.99365">
        <ele>517.2</ele>
        <time>2023-03-22T08:19:42Z</time>
      </trkpt>
      <trkpt lat="43.1631" lon="5.99378">
        <ele>518.4</ele>
        <time>2023-03-22T08:19:47Z</time>
      </trkpt>
      <trkpt lat="43.16304" lon="5.99393">
        <ele>519.4</ele>
        <time>2023-03-22T08:19:53Z</time>
      </trkpt>
      <trkpt lat="43.16297" lon="5.99411">
        <ele>520.6</ele>
        <time>2023-03-22T08:20:00Z</time>
      </trkpt>
      <trkpt lat="43.16291" lon="5.99427">
        <ele>521.6</ele>
        <time>2023-03-22T08:20:06Z</time>
      </trkpt>
      <trkpt lat="43.16288" lon="5.9944">
        <ele>522.8</ele>
        <time>2023-03-22T08:20:11Z</time>
      </trkpt>
      <trkpt lat="43.16288" lon="5.99455">
        <ele>524</ele>
        <time>2023-03-22T08:20:16Z</time>
      </trkpt>
      <trkpt lat="43.16288" lon="5.99472">
        <ele>525</ele>
        <time>2023-03-22T08:20:22Z</time>
      </trkpt>
      <trkpt lat="43.16289" lon="5.99488">
        <ele>526.2</ele>
        <time>2023-03-22T08:20:27Z</time>
      </trkpt>
      <trkpt lat="43.1629" lon="5.99504">
        <ele>527.2</ele>
        <time>2023-03-22T08:20:32Z</time>
      </trkpt>
      <trkpt lat="43.16292" lon="5.99516">
        <ele>528.2</ele>
        <time>2023-03-22T08:20:36Z</time>
      </trkpt>
      <trkpt lat="43.16293" lon="5.99531">
        <ele>529.4</ele>
        <time>2023-03-22T08:20:41Z</time>
      </trkpt>
      <trkpt lat="43.16291" lon="5.99554">
        <ele>530.6</ele>
        <time>2023-03-22T08:20:49Z</time>
      </trkpt>
      <trkpt lat="43.16289" lon="5.99565">
        <ele>531.6</ele>
        <time>2023-03-22T08:20:53Z</time>
      </trkpt>
      <trkpt lat="43.16287" lon="5.99581">
        <ele>532.8</ele>
        <time>2023-03-22T08:20:59Z</time>
      </trkpt>
      <trkpt lat="43.16284" lon="5.99594">
        <ele>533.8</ele>
        <time>2023-03-22T08:21:04Z</time>
      </trkpt>
      <trkpt lat="43.16279" lon="5.99612">
        <ele>535</ele>
        <time>2023-03-22T08:21:11Z</time>
      </trkpt>
      <trkpt lat="43.16275" lon="5.99628">
        <ele>536</ele>
        <time>2023-03-22T08:21:17Z</time>
      </trkpt>
      <trkpt lat="43.16274" lon="5.99645">
        <ele>537</ele>
        <time>2023-03-22T08:21:23Z</time>
      </trkpt>
      <trkpt lat="43.16274" lon="5.99656">
        <ele>538.2</ele>
        <time>2023-03-22T08:21:27Z</time>
      </trkpt>
      <trkpt lat="43.16274" lon="5.99673">
        <ele>539.2</ele>
        <time>2023-03-22T08:21:33Z</time>
      </trkpt>
      <trkpt lat="43.1627" lon="5.99701">
        <ele>540</ele>
        <time>2023-03-22T08:21:42Z</time>
      </trkpt>
      <trkpt lat="43.16267" lon="5.99706">
        <ele>540.2</ele>
        <time>2023-03-22T08:21:44Z</time>
      </trkpt>
      <trkpt lat="43.16264" lon="5.99707">
        <ele>540.2</ele>
        <time>2023-03-22T08:21:45Z</time>
      </trkpt>
      <trkpt lat="43.16238" lon="5.99708">
        <ele>541.2</ele>
        <time>2023-03-22T08:21:55Z</time>
      </trkpt>
      <trkpt lat="43.16233" lon="5.99708">
        <ele>541.2</ele>
        <time>2023-03-22T08:21:57Z</time>
      </trkpt>
      <trkpt lat="43.16212" lon="5.99711">
        <ele>542.4</ele>
        <time>2023-03-22T08:22:06Z</time>
      </trkpt>
      <trkpt lat="43.16197" lon="5.99715">
        <ele>543.6</ele>
        <time>2023-03-22T08:22:13Z</time>
      </trkpt>
      <trkpt lat="43.16188" lon="5.99719">
        <ele>544.6</ele>
        <time>2023-03-22T08:22:18Z</time>
      </trkpt>
      <trkpt lat="43.16176" lon="5.99725">
        <ele>545.8</ele>
        <time>2023-03-22T08:22:24Z</time>
      </trkpt>
      <trkpt lat="43.16167" lon="5.99733">
        <ele>546.8</ele>
        <time>2023-03-22T08:22:30Z</time>
      </trkpt>
      <trkpt lat="43.16161" lon="5.9974">
        <ele>547.8</ele>
        <time>2023-03-22T08:22:34Z</time>
      </trkpt>
      <trkpt lat="43.16154" lon="5.99753">
        <ele>548.8</ele>
        <time>2023-03-22T08:22:40Z</time>
      </trkpt>
      <trkpt lat="43.16151" lon="5.99765">
        <ele>550</ele>
        <time>2023-03-22T08:22:45Z</time>
      </trkpt>
      <trkpt lat="43.16146" lon="5.99779">
        <ele>551</ele>
        <time>2023-03-22T08:22:51Z</time>
      </trkpt>
      <trkpt lat="43.1614" lon="5.99796">
        <ele>552.2</ele>
        <time>2023-03-22T08:22:58Z</time>
      </trkpt>
      <trkpt lat="43.16137" lon="5.99812">
        <ele>553.2</ele>
        <time>2023-03-22T08:23:04Z</time>
      </trkpt>
      <trkpt lat="43.16134" lon="5.99824">
        <ele>554.2</ele>
        <time>2023-03-22T08:23:09Z</time>
      </trkpt>
      <trkpt lat="43.16129" lon="5.99841">
        <ele>555.4</ele>
        <time>2023-03-22T08:23:16Z</time>
      </trkpt>
      <trkpt lat="43.16122" lon="5.99854">
        <ele>556.6</ele>
        <time>2023-03-22T08:23:22Z</time>
      </trkpt>
      <trkpt lat="43.16113" lon="5.99866">
        <ele>557.6</ele>
        <time>2023-03-22T08:23:28Z</time>
      </trkpt>
      <trkpt lat="43.16101" lon="5.99874">
        <ele>558.8</ele>
        <time>2023-03-22T08:23:34Z</time>
      </trkpt>
      <trkpt lat="43.16091" lon="5.99881">
        <ele>559.8</ele>
        <time>2023-03-22T08:23:39Z</time>
      </trkpt>
      <trkpt lat="43.16084" lon="5.99886">
        <ele>560.8</ele>
        <time>2023-03-22T08:23:43Z</time>
      </trkpt>
      <trkpt lat="43.16071" lon="5.99893">
        <ele>562</ele>
        <time>2023-03-22T08:23:50Z</time>
      </trkpt>
      <trkpt lat="43.16057" lon="5.999">
        <ele>563.2</ele>
        <time>2023-03-22T08:23:57Z</time>
      </trkpt>
      <trkpt lat="43.16046" lon="5.99906">
        <ele>564.4</ele>
        <time>2023-03-22T08:24:03Z</time>
      </trkpt>
      <trkpt lat="43.16033" lon="5.99915">
        <ele>565.4</ele>
        <time>2023-03-22T08:24:10Z</time>
      </trkpt>
      <trkpt lat="43.16023" lon="5.99924">
        <ele>566.6</ele>
        <time>2023-03-22T08:24:16Z</time>
      </trkpt>
      <trkpt lat="43.16016" lon="5.99929">
        <ele>567.6</ele>
        <time>2023-03-22T08:24:20Z</time>
      </trkpt>
      <trkpt lat="43.16006" lon="5.99939">
        <ele>568.6</ele>
        <time>2023-03-22T08:24:26Z</time>
      </trkpt>
      <trkpt lat="43.15995" lon="5.99946">
        <ele>569.8</ele>
        <time>2023-03-22T08:24:32Z</time>
      </trkpt>
      <trkpt lat="43.15984" lon="5.99952">
        <ele>571</ele>
        <time>2023-03-22T08:24:38Z</time>
      </trkpt>
      <trkpt lat="43.15971" lon="5.9997">
        <ele>572</ele>
        <time>2023-03-22T08:24:46Z</time>
      </trkpt>
      <trkpt lat="43.1599" lon="5.99973">
        <ele>573</ele>
        <time>2023-03-22T08:24:55Z</time>
      </trkpt>
      <trkpt lat="43.15992" lon="5.99971">
        <ele>573</ele>
        <time>2023-03-22T08:24:56Z</time>
      </trkpt>
      <trkpt lat="43.16014" lon="5.99956">
        <ele>574</ele>
        <time>2023-03-22T08:25:06Z</time>
      </trkpt>
      <trkpt lat="43.16029" lon="5.99951">
        <ele>575.2</ele>
        <time>2023-03-22T08:25:13Z</time>
      </trkpt>
      <trkpt lat="43.16041" lon="5.9995">
        <ele>576.2</ele>
        <time>2023-03-22T08:25:19Z</time>
      </trkpt>
      <trkpt lat="43.16055" lon="5.99949">
        <ele>577.6</ele>
        <time>2023-03-22T08:25:26Z</time>
      </trkpt>
      <trkpt lat="43.16067" lon="5.99949">
        <ele>578.8</ele>
        <time>2023-03-22T08:25:32Z</time>
      </trkpt>
      <trkpt lat="43.16079" lon="5.99951">
        <ele>579.8</ele>
        <time>2023-03-22T08:25:38Z</time>
      </trkpt>
      <trkpt lat="43.16091" lon="5.99951">
        <ele>580.8</ele>
        <time>2023-03-22T08:25:44Z</time>
      </trkpt>
      <trkpt lat="43.16101" lon="5.99952">
        <ele>582</ele>
        <time>2023-03-22T08:25:49Z</time>
      </trkpt>
      <trkpt lat="43.16115" lon="5.99954">
        <ele>583</ele>
        <time>2023-03-22T08:25:56Z</time>
      </trkpt>
      <trkpt lat="43.16123" lon="5.99954">
        <ele>584.2</ele>
        <time>2023-03-22T08:26:00Z</time>
      </trkpt>
      <trkpt lat="43.16136" lon="5.99957">
        <ele>585.4</ele>
        <time>2023-03-22T08:26:07Z</time>
      </trkpt>
      <trkpt lat="43.16148" lon="5.99959">
        <ele>586.2</ele>
        <time>2023-03-22T08:26:13Z</time>
      </trkpt>
      <trkpt lat="43.16161" lon="5.9996">
        <ele>587.2</ele>
        <time>2023-03-22T08:26:20Z</time>
      </trkpt>
      <trkpt lat="43.16175" lon="5.99957">
        <ele>588.6</ele>
        <time>2023-03-22T08:26:27Z</time>
      </trkpt>
      <trkpt lat="43.16184" lon="5.99956">
        <ele>589.6</ele>
        <time>2023-03-22T08:26:32Z</time>
      </trkpt>
      <trkpt lat="43.16195" lon="5.99956">
        <ele>590.8</ele>
        <time>2023-03-22T08:26:37Z</time>
      </trkpt>
      <trkpt lat="43.16205" lon="5.99955">
        <ele>591.8</ele>
        <time>2023-03-22T08:26:42Z</time>
      </trkpt>
      <trkpt lat="43.16218" lon="5.99952">
        <ele>592.8</ele>
        <time>2023-03-22T08:26:48Z</time>
      </trkpt>
      <trkpt lat="43.16229" lon="5.99948">
        <ele>594</ele>
        <time>2023-03-22T08:26:53Z</time>
      </trkpt>
      <trkpt lat="43.16248" lon="5.99961">
        <ele>595</ele>
        <time>2023-03-22T08:27:03Z</time>
      </trkpt>
      <trkpt lat="43.16254" lon="6.00002">
        <ele>596.2</ele>
        <time>2023-03-22T08:27:14Z</time>
      </trkpt>
      <trkpt lat="43.16261" lon="6.00025">
        <ele>597.4</ele>
        <time>2023-03-22T08:27:20Z</time>
      </trkpt>
      <trkpt lat="43.16251" lon="6.00045">
        <ele>598.4</ele>
        <time>2023-03-22T08:27:27Z</time>
      </trkpt>
      <trkpt lat="43.16214" lon="6.00052">
        <ele>599.4</ele>
        <time>2023-03-22T08:27:39Z</time>
      </trkpt>
      <trkpt lat="43.16178" lon="6.00074">
        <ele>600.6</ele>
        <time>2023-03-22T08:27:51Z</time>
      </trkpt>
      <trkpt lat="43.16169" lon="6.00089">
        <ele>601</ele>
        <time>2023-03-22T08:27:55Z</time>
      </trkpt>
      <trkpt lat="43.16151" lon="6.00117">
        <ele>601.6</ele>
        <time>2023-03-22T08:28:03Z</time>
      </trkpt>
      <trkpt lat="43.16126" lon="6.00151">
        <ele>602.8</ele>
        <time>2023-03-22T08:28:13Z</time>
      </trkpt>
      <trkpt lat="43.16089" lon="6.00201">
        <ele>603.6</ele>
        <time>2023-03-22T08:28:28Z</time>
      </trkpt>
      <trkpt lat="43.16081" lon="6.00215">
        <ele>603.8</ele>
        <time>2023-03-22T08:28:32Z</time>
      </trkpt>
      <trkpt lat="43.16079" lon="6.00251">
        <ele>604.8</ele>
        <time>2023-03-22T08:28:40Z</time>
      </trkpt>
      <trkpt lat="43.16098" lon="6.00291">
        <ele>606.2</ele>
        <time>2023-03-22T08:28:52Z</time>
      </trkpt>
      <trkpt lat="43.16104" lon="6.00302">
        <ele>607.2</ele>
        <time>2023-03-22T08:28:57Z</time>
      </trkpt>
      <trkpt lat="43.16108" lon="6.0031">
        <ele>608.2</ele>
        <time>2023-03-22T08:29:01Z</time>
      </trkpt>
      <trkpt lat="43.16116" lon="6.00322">
        <ele>609.2</ele>
        <time>2023-03-22T08:29:07Z</time>
      </trkpt>
      <trkpt lat="43.16129" lon="6.00339">
        <ele>610.4</ele>
        <time>2023-03-22T08:29:16Z</time>
      </trkpt>
      <trkpt lat="43.16137" lon="6.00354">
        <ele>611.6</ele>
        <time>2023-03-22T08:29:23Z</time>
      </trkpt>
      <trkpt lat="43.16143" lon="6.00362">
        <ele>612.8</ele>
        <time>2023-03-22T08:29:27Z</time>
      </trkpt>
      <trkpt lat="43.16151" lon="6.00372">
        <ele>613.8</ele>
        <time>2023-03-22T08:29:32Z</time>
      </trkpt>
      <trkpt lat="43.1616" lon="6.00385">
        <ele>614.8</ele>
        <time>2023-03-22T08:29:38Z</time>
      </trkpt>
      <trkpt lat="43.16166" lon="6.00395">
        <ele>615.8</ele>
        <time>2023-03-22T08:29:43Z</time>
      </trkpt>
      <trkpt lat="43.16171" lon="6.00408">
        <ele>616.8</ele>
        <time>2023-03-22T08:29:48Z</time>
      </trkpt>
      <trkpt lat="43.16178" lon="6.00424">
        <ele>618</ele>
        <time>2023-03-22T08:29:55Z</time>
      </trkpt>
      <trkpt lat="43.16182" lon="6.00436">
        <ele>619.4</ele>
        <time>2023-03-22T08:30:00Z</time>
      </trkpt>
      <trkpt lat="43.1619" lon="6.00456">
        <ele>620.4</ele>
        <time>2023-03-22T08:30:08Z</time>
      </trkpt>
      <trkpt lat="43.16195" lon="6.00468">
        <ele>621.6</ele>
        <time>2023-03-22T08:30:13Z</time>
      </trkpt>
      <trkpt lat="43.162" lon="6.0048">
        <ele>622.6</ele>
        <time>2023-03-22T08:30:18Z</time>
      </trkpt>
      <trkpt lat="43.1621" lon="6.00498">
        <ele>623.8</ele>
        <time>2023-03-22T08:30:26Z</time>
      </trkpt>
      <trkpt lat="43.1622" lon="6.00506">
        <ele>624.8</ele>
        <time>2023-03-22T08:30:32Z</time>
      </trkpt>
      <trkpt lat="43.16228" lon="6.00508">
        <ele>626</ele>
        <time>2023-03-22T08:30:36Z</time>
      </trkpt>
      <trkpt lat="43.16241" lon="6.00512">
        <ele>627.2</ele>
        <time>2023-03-22T08:30:43Z</time>
      </trkpt>
      <trkpt lat="43.16249" lon="6.00516">
        <ele>627.6</ele>
        <time>2023-03-22T08:30:47Z</time>
      </trkpt>
      <trkpt lat="43.16255" lon="6.00518">
        <ele>628.4</ele>
        <time>2023-03-22T08:30:50Z</time>
      </trkpt>
      <trkpt lat="43.16261" lon="6.00525">
        <ele>629.4</ele>
        <time>2023-03-22T08:30:54Z</time>
      </trkpt>
      <trkpt lat="43.16272" lon="6.00545">
        <ele>630.4</ele>
        <time>2023-03-22T08:31:02Z</time>
      </trkpt>
      <trkpt lat="43.16275" lon="6.0057">
        <ele>631.4</ele>
        <time>2023-03-22T08:31:10Z</time>
      </trkpt>
      <trkpt lat="43.16274" lon="6.00592">
        <ele>632.4</ele>
        <time>2023-03-22T08:31:17Z</time>
      </trkpt>
      <trkpt lat="43.16272" lon="6.00613">
        <ele>633.4</ele>
        <time>2023-03-22T08:31:24Z</time>
      </trkpt>
      <trkpt lat="43.16269" lon="6.00627">
        <ele>634.6</ele>
        <time>2023-03-22T08:31:29Z</time>
      </trkpt>
      <trkpt lat="43.16264" lon="6.00641">
        <ele>635.8</ele>
        <time>2023-03-22T08:31:35Z</time>
      </trkpt>
      <trkpt lat="43.16258" lon="6.00653">
        <ele>637</ele>
        <time>2023-03-22T08:31:41Z</time>
      </trkpt>
      <trkpt lat="43.16253" lon="6.00667">
        <ele>638</ele>
        <time>2023-03-22T08:31:47Z</time>
      </trkpt>
      <trkpt lat="43.16247" lon="6.00682">
        <ele>639.2</ele>
        <time>2023-03-22T08:31:53Z</time>
      </trkpt>
      <trkpt lat="43.16245" lon="6.00694">
        <ele>640.4</ele>
        <time>2023-03-22T08:31:58Z</time>
      </trkpt>
      <trkpt lat="43.16254" lon="6.00693">
        <ele>641.6</ele>
        <time>2023-03-22T08:32:02Z</time>
      </trkpt>
      <trkpt lat="43.16256" lon="6.00691">
        <ele>641.8</ele>
        <time>2023-03-22T08:32:03Z</time>
      </trkpt>
      <trkpt lat="43.1627" lon="6.00667">
        <ele>642.2</ele>
        <time>2023-03-22T08:32:14Z</time>
      </trkpt>
      <trkpt lat="43.16275" lon="6.00656">
        <ele>640.8</ele>
        <time>2023-03-22T08:32:27Z</time>
      </trkpt>
      <trkpt lat="43.16276" lon="6.00655">
        <ele>640.6</ele>
        <time>2023-03-22T08:32:43Z</time>
      </trkpt>
      <trkpt lat="43.16276" lon="6.00655">
        <ele>640.2</ele>
        <time>2023-03-22T08:33:27Z</time>
      </trkpt>
      <trkpt lat="43.16276" lon="6.00655">
        <ele>640.4</ele>
        <time>2023-03-22T08:33:30Z</time>
      </trkpt>
      <trkpt lat="43.16276" lon="6.00655">
        <ele>640.4</ele>
        <time>2023-03-22T08:33:35Z</time>
      </trkpt>
      <trkpt lat="43.16276" lon="6.00655">
        <ele>640.2</ele>
        <time>2023-03-22T08:33:52Z</time>
      </trkpt>
      <trkpt lat="43.16294" lon="6.00646">
        <ele>638.6</ele>
        <time>2023-03-22T08:35:17Z</time>
      </trkpt>
      <trkpt lat="43.16295" lon="6.00643">
        <ele>637.6</ele>
        <time>2023-03-22T08:35:19Z</time>
      </trkpt>
      <trkpt lat="43.16295" lon="6.00641">
        <ele>637.2</ele>
        <time>2023-03-22T08:35:20Z</time>
      </trkpt>
      <trkpt lat="43.16294" lon="6.00632">
        <ele>636.2</ele>
        <time>2023-03-22T08:35:23Z</time>
      </trkpt>
      <trkpt lat="43.16298" lon="6.00619">
        <ele>635.6</ele>
        <time>2023-03-22T08:35:28Z</time>
      </trkpt>
      <trkpt lat="43.16299" lon="6.00617">
        <ele>635.2</ele>
        <time>2023-03-22T08:35:29Z</time>
      </trkpt>
      <trkpt lat="43.16301" lon="6.00612">
        <ele>633.8</ele>
        <time>2023-03-22T08:35:31Z</time>
      </trkpt>
      <trkpt lat="43.16304" lon="6.00603">
        <ele>632.8</ele>
        <time>2023-03-22T08:35:34Z</time>
      </trkpt>
      <trkpt lat="43.16308" lon="6.00597">
        <ele>631.6</ele>
        <time>2023-03-22T08:35:37Z</time>
      </trkpt>
      <trkpt lat="43.16311" lon="6.00593">
        <ele>630.2</ele>
        <time>2023-03-22T08:35:39Z</time>
      </trkpt>
      <trkpt lat="43.16313" lon="6.00587">
        <ele>628.8</ele>
        <time>2023-03-22T08:35:41Z</time>
      </trkpt>
      <trkpt lat="43.16316" lon="6.00582">
        <ele>627.2</ele>
        <time>2023-03-22T08:35:43Z</time>
      </trkpt>
      <trkpt lat="43.16319" lon="6.00576">
        <ele>626</ele>
        <time>2023-03-22T08:35:45Z</time>
      </trkpt>
      <trkpt lat="43.1632" lon="6.00573">
        <ele>624.8</ele>
        <time>2023-03-22T08:35:46Z</time>
      </trkpt>
      <trkpt lat="43.16323" lon="6.00569">
        <ele>623.8</ele>
        <time>2023-03-22T08:35:47Z</time>
      </trkpt>
      <trkpt lat="43.16326" lon="6.00566">
        <ele>622.8</ele>
        <time>2023-03-22T08:35:48Z</time>
      </trkpt>
      <trkpt lat="43.16332" lon="6.00563">
        <ele>621.2</ele>
        <time>2023-03-22T08:35:50Z</time>
      </trkpt>
      <trkpt lat="43.16337" lon="6.00562">
        <ele>619.4</ele>
        <time>2023-03-22T08:35:52Z</time>
      </trkpt>
      <trkpt lat="43.1634" lon="6.00564">
        <ele>617.8</ele>
        <time>2023-03-22T08:35:54Z</time>
      </trkpt>
      <trkpt lat="43.16343" lon="6.00564">
        <ele>617</ele>
        <time>2023-03-22T08:35:56Z</time>
      </trkpt>
      <trkpt lat="43.16345" lon="6.00564">
        <ele>616.8</ele>
        <time>2023-03-22T08:35:57Z</time>
      </trkpt>
      <trkpt lat="43.1636" lon="6.00565">
        <ele>616.4</ele>
        <time>2023-03-22T08:36:09Z</time>
      </trkpt>
      <trkpt lat="43.16363" lon="6.00577">
        <ele>615.4</ele>
        <time>2023-03-22T08:36:14Z</time>
      </trkpt>
      <trkpt lat="43.16364" lon="6.00579">
        <ele>615.2</ele>
        <time>2023-03-22T08:36:15Z</time>
      </trkpt>
      <trkpt lat="43.16365" lon="6.00583">
        <ele>613.8</ele>
        <time>2023-03-22T08:36:17Z</time>
      </trkpt>
      <trkpt lat="43.16366" lon="6.00583">
        <ele>612.4</ele>
        <time>2023-03-22T08:36:20Z</time>
      </trkpt>
      <trkpt lat="43.16366" lon="6.00583">
        <ele>611.4</ele>
        <time>2023-03-22T08:36:22Z</time>
      </trkpt>
      <trkpt lat="43.16366" lon="6.00583">
        <ele>610.4</ele>
        <time>2023-03-22T08:36:25Z</time>
      </trkpt>
      <trkpt lat="43.16368" lon="6.0058">
        <ele>609.8</ele>
        <time>2023-03-22T08:36:30Z</time>
      </trkpt>
      <trkpt lat="43.16369" lon="6.00578">
        <ele>609.6</ele>
        <time>2023-03-22T08:36:31Z</time>
      </trkpt>
      <trkpt lat="43.16375" lon="6.00568">
        <ele>609.2</ele>
        <time>2023-03-22T08:36:36Z</time>
      </trkpt>
      <trkpt lat="43.16377" lon="6.00567">
        <ele>608.2</ele>
        <time>2023-03-22T08:36:39Z</time>
      </trkpt>
      <trkpt lat="43.16378" lon="6.00568">
        <ele>606.8</ele>
        <time>2023-03-22T08:36:42Z</time>
      </trkpt>
      <trkpt lat="43.16379" lon="6.00569">
        <ele>605.8</ele>
        <time>2023-03-22T08:36:45Z</time>
      </trkpt>
      <trkpt lat="43.16379" lon="6.00575">
        <ele>604.8</ele>
        <time>2023-03-22T08:36:51Z</time>
      </trkpt>
      <trkpt lat="43.16379" lon="6.00575">
        <ele>604.2</ele>
        <time>2023-03-22T08:37:00Z</time>
      </trkpt>
      <trkpt lat="43.16383" lon="6.00585">
        <ele>603.8</ele>
        <time>2023-03-22T08:37:40Z</time>
      </trkpt>
      <trkpt lat="43.16383" lon="6.00592">
        <ele>603.8</ele>
        <time>2023-03-22T08:37:43Z</time>
      </trkpt>
      <trkpt lat="43.16384" lon="6.00595">
        <ele>603.8</ele>
        <time>2023-03-22T08:37:44Z</time>
      </trkpt>
      <trkpt lat="43.16385" lon="6.006">
        <ele>602.4</ele>
        <time>2023-03-22T08:37:48Z</time>
      </trkpt>
      <trkpt lat="43.16384" lon="6.00603">
        <ele>601.2</ele>
        <time>2023-03-22T08:37:51Z</time>
      </trkpt>
      <trkpt lat="43.16384" lon="6.00605">
        <ele>600</ele>
        <time>2023-03-22T08:37:54Z</time>
      </trkpt>
      <trkpt lat="43.16384" lon="6.00606">
        <ele>599.6</ele>
        <time>2023-03-22T08:37:55Z</time>
      </trkpt>
      <trkpt lat="43.16386" lon="6.00611">
        <ele>598.8</ele>
        <time>2023-03-22T08:37:58Z</time>
      </trkpt>
      <trkpt lat="43.16389" lon="6.00624">
        <ele>597.6</ele>
        <time>2023-03-22T08:38:02Z</time>
      </trkpt>
      <trkpt lat="43.1639" lon="6.00628">
        <ele>597.2</ele>
        <time>2023-03-22T08:38:03Z</time>
      </trkpt>
      <trkpt lat="43.1639" lon="6.00637">
        <ele>596.6</ele>
        <time>2023-03-22T08:38:05Z</time>
      </trkpt>
      <trkpt lat="43.16391" lon="6.00639">
        <ele>596</ele>
        <time>2023-03-22T08:38:06Z</time>
      </trkpt>
      <trkpt lat="43.16392" lon="6.0064">
        <ele>595.4</ele>
        <time>2023-03-22T08:38:07Z</time>
      </trkpt>
      <trkpt lat="43.16394" lon="6.00639">
        <ele>594.4</ele>
        <time>2023-03-22T08:38:09Z</time>
      </trkpt>
      <trkpt lat="43.16394" lon="6.00634">
        <ele>592.4</ele>
        <time>2023-03-22T08:38:11Z</time>
      </trkpt>
      <trkpt lat="43.16397" lon="6.00632">
        <ele>591.6</ele>
        <time>2023-03-22T08:38:14Z</time>
      </trkpt>
      <trkpt lat="43.16398" lon="6.00632">
        <ele>591</ele>
        <time>2023-03-22T08:38:15Z</time>
      </trkpt>
      <trkpt lat="43.16399" lon="6.00631">
        <ele>590.8</ele>
        <time>2023-03-22T08:38:16Z</time>
      </trkpt>
      <trkpt lat="43.164" lon="6.0063">
        <ele>590.4</ele>
        <time>2023-03-22T08:38:17Z</time>
      </trkpt>
      <trkpt lat="43.16403" lon="6.00624">
        <ele>588.8</ele>
        <time>2023-03-22T08:38:20Z</time>
      </trkpt>
      <trkpt lat="43.16405" lon="6.00619">
        <ele>587.6</ele>
        <time>2023-03-22T08:38:22Z</time>
      </trkpt>
      <trkpt lat="43.16407" lon="6.00615">
        <ele>586.4</ele>
        <time>2023-03-22T08:38:24Z</time>
      </trkpt>
      <trkpt lat="43.16411" lon="6.00611">
        <ele>585</ele>
        <time>2023-03-22T08:38:27Z</time>
      </trkpt>
      <trkpt lat="43.16411" lon="6.0061">
        <ele>584</ele>
        <time>2023-03-22T08:38:29Z</time>
      </trkpt>
      <trkpt lat="43.16411" lon="6.00611">
        <ele>582.6</ele>
        <time>2023-03-22T08:38:31Z</time>
      </trkpt>
      <trkpt lat="43.16412" lon="6.00613">
        <ele>582.2</ele>
        <time>2023-03-22T08:38:32Z</time>
      </trkpt>
      <trkpt lat="43.16413" lon="6.00615">
        <ele>581.4</ele>
        <time>2023-03-22T08:38:33Z</time>
      </trkpt>
      <trkpt lat="43.16415" lon="6.00621">
        <ele>580.2</ele>
        <time>2023-03-22T08:38:35Z</time>
      </trkpt>
      <trkpt lat="43.16422" lon="6.00633">
        <ele>579</ele>
        <time>2023-03-22T08:38:39Z</time>
      </trkpt>
      <trkpt lat="43.16424" lon="6.00636">
        <ele>577.4</ele>
        <time>2023-03-22T08:38:41Z</time>
      </trkpt>
      <trkpt lat="43.16425" lon="6.00637">
        <ele>576.4</ele>
        <time>2023-03-22T08:38:42Z</time>
      </trkpt>
      <trkpt lat="43.16428" lon="6.00639">
        <ele>574.6</ele>
        <time>2023-03-22T08:38:44Z</time>
      </trkpt>
      <trkpt lat="43.16431" lon="6.00641">
        <ele>572.8</ele>
        <time>2023-03-22T08:38:46Z</time>
      </trkpt>
      <trkpt lat="43.16433" lon="6.00646">
        <ele>571.8</ele>
        <time>2023-03-22T08:38:48Z</time>
      </trkpt>
      <trkpt lat="43.16436" lon="6.0065">
        <ele>570.6</ele>
        <time>2023-03-22T08:38:50Z</time>
      </trkpt>
      <trkpt lat="43.1644" lon="6.00655">
        <ele>569.6</ele>
        <time>2023-03-22T08:38:52Z</time>
      </trkpt>
      <trkpt lat="43.16442" lon="6.0066">
        <ele>568.2</ele>
        <time>2023-03-22T08:38:54Z</time>
      </trkpt>
      <trkpt lat="43.16445" lon="6.00664">
        <ele>566.8</ele>
        <time>2023-03-22T08:38:56Z</time>
      </trkpt>
      <trkpt lat="43.16449" lon="6.00667">
        <ele>565.4</ele>
        <time>2023-03-22T08:38:58Z</time>
      </trkpt>
      <trkpt lat="43.16452" lon="6.00668">
        <ele>564.2</ele>
        <time>2023-03-22T08:39:00Z</time>
      </trkpt>
      <trkpt lat="43.16453" lon="6.00668">
        <ele>563.6</ele>
        <time>2023-03-22T08:39:01Z</time>
      </trkpt>
      <trkpt lat="43.16455" lon="6.00668">
        <ele>562.8</ele>
        <time>2023-03-22T08:39:02Z</time>
      </trkpt>
      <trkpt lat="43.16457" lon="6.00667">
        <ele>561.4</ele>
        <time>2023-03-22T08:39:04Z</time>
      </trkpt>
      <trkpt lat="43.16458" lon="6.00667">
        <ele>560</ele>
        <time>2023-03-22T08:39:06Z</time>
      </trkpt>
      <trkpt lat="43.1646" lon="6.00668">
        <ele>558.8</ele>
        <time>2023-03-22T08:39:08Z</time>
      </trkpt>
      <trkpt lat="43.16462" lon="6.0067">
        <ele>557.6</ele>
        <time>2023-03-22T08:39:10Z</time>
      </trkpt>
      <trkpt lat="43.16463" lon="6.00671">
        <ele>556.4</ele>
        <time>2023-03-22T08:39:13Z</time>
      </trkpt>
      <trkpt lat="43.16465" lon="6.00671">
        <ele>555.2</ele>
        <time>2023-03-22T08:39:17Z</time>
      </trkpt>
      <trkpt lat="43.16469" lon="6.00668">
        <ele>554.2</ele>
        <time>2023-03-22T08:39:23Z</time>
      </trkpt>
      <trkpt lat="43.16472" lon="6.00671">
        <ele>553.2</ele>
        <time>2023-03-22T08:39:30Z</time>
      </trkpt>
      <trkpt lat="43.16473" lon="6.00674">
        <ele>553</ele>
        <time>2023-03-22T08:39:32Z</time>
      </trkpt>
      <trkpt lat="43.16477" lon="6.00679">
        <ele>552.4</ele>
        <time>2023-03-22T08:39:36Z</time>
      </trkpt>
      <trkpt lat="43.16479" lon="6.00689">
        <ele>552</ele>
        <time>2023-03-22T08:39:39Z</time>
      </trkpt>
      <trkpt lat="43.16479" lon="6.00696">
        <ele>550.6</ele>
        <time>2023-03-22T08:39:42Z</time>
      </trkpt>
      <trkpt lat="43.1648" lon="6.00697">
        <ele>549.8</ele>
        <time>2023-03-22T08:39:43Z</time>
      </trkpt>
      <trkpt lat="43.16481" lon="6.00699">
        <ele>549</ele>
        <time>2023-03-22T08:39:44Z</time>
      </trkpt>
      <trkpt lat="43.16482" lon="6.00704">
        <ele>547.8</ele>
        <time>2023-03-22T08:39:46Z</time>
      </trkpt>
      <trkpt lat="43.16487" lon="6.00717">
        <ele>546.8</ele>
        <time>2023-03-22T08:39:50Z</time>
      </trkpt>
      <trkpt lat="43.16498" lon="6.00723">
        <ele>545.6</ele>
        <time>2023-03-22T08:39:55Z</time>
      </trkpt>
      <trkpt lat="43.16501" lon="6.00723">
        <ele>544.8</ele>
        <time>2023-03-22T08:39:56Z</time>
      </trkpt>
      <trkpt lat="43.16504" lon="6.00724">
        <ele>543.6</ele>
        <time>2023-03-22T08:39:57Z</time>
      </trkpt>
      <trkpt lat="43.16509" lon="6.00722">
        <ele>542</ele>
        <time>2023-03-22T08:39:59Z</time>
      </trkpt>
      <trkpt lat="43.16512" lon="6.00718">
        <ele>540.4</ele>
        <time>2023-03-22T08:40:01Z</time>
      </trkpt>
      <trkpt lat="43.16517" lon="6.00716">
        <ele>538.4</ele>
        <time>2023-03-22T08:40:03Z</time>
      </trkpt>
      <trkpt lat="43.16519" lon="6.00715">
        <ele>537.4</ele>
        <time>2023-03-22T08:40:04Z</time>
      </trkpt>
      <trkpt lat="43.16523" lon="6.00713">
        <ele>535.8</ele>
        <time>2023-03-22T08:40:06Z</time>
      </trkpt>
      <trkpt lat="43.16525" lon="6.0071">
        <ele>535</ele>
        <time>2023-03-22T08:40:07Z</time>
      </trkpt>
      <trkpt lat="43.16526" lon="6.00706">
        <ele>534.4</ele>
        <time>2023-03-22T08:40:08Z</time>
      </trkpt>
      <trkpt lat="43.1653" lon="6.007">
        <ele>533</ele>
        <time>2023-03-22T08:40:10Z</time>
      </trkpt>
      <trkpt lat="43.16532" lon="6.00699">
        <ele>532</ele>
        <time>2023-03-22T08:40:11Z</time>
      </trkpt>
      <trkpt lat="43.16536" lon="6.00695">
        <ele>530.2</ele>
        <time>2023-03-22T08:40:13Z</time>
      </trkpt>
      <trkpt lat="43.16538" lon="6.00691">
        <ele>528.8</ele>
        <time>2023-03-22T08:40:15Z</time>
      </trkpt>
      <trkpt lat="43.16543" lon="6.00693">
        <ele>527.2</ele>
        <time>2023-03-22T08:40:17Z</time>
      </trkpt>
      <trkpt lat="43.16549" lon="6.00694">
        <ele>525.8</ele>
        <time>2023-03-22T08:40:19Z</time>
      </trkpt>
      <trkpt lat="43.16552" lon="6.00693">
        <ele>525</ele>
        <time>2023-03-22T08:40:20Z</time>
      </trkpt>
      <trkpt lat="43.16555" lon="6.00694">
        <ele>524.2</ele>
        <time>2023-03-22T08:40:21Z</time>
      </trkpt>
      <trkpt lat="43.16558" lon="6.00696">
        <ele>523</ele>
        <time>2023-03-22T08:40:22Z</time>
      </trkpt>
      <trkpt lat="43.16563" lon="6.00701">
        <ele>521.6</ele>
        <time>2023-03-22T08:40:24Z</time>
      </trkpt>
      <trkpt lat="43.16567" lon="6.00706">
        <ele>520</ele>
        <time>2023-03-22T08:40:26Z</time>
      </trkpt>
      <trkpt lat="43.1657" lon="6.00709">
        <ele>519</ele>
        <time>2023-03-22T08:40:27Z</time>
      </trkpt>
      <trkpt lat="43.16574" lon="6.00716">
        <ele>517.6</ele>
        <time>2023-03-22T08:40:29Z</time>
      </trkpt>
      <trkpt lat="43.16577" lon="6.00725">
        <ele>516.4</ele>
        <time>2023-03-22T08:40:31Z</time>
      </trkpt>
      <trkpt lat="43.16579" lon="6.00733">
        <ele>515</ele>
        <time>2023-03-22T08:40:33Z</time>
      </trkpt>
      <trkpt lat="43.16583" lon="6.00738">
        <ele>514</ele>
        <time>2023-03-22T08:40:35Z</time>
      </trkpt>
      <trkpt lat="43.16587" lon="6.00742">
        <ele>512.2</ele>
        <time>2023-03-22T08:40:37Z</time>
      </trkpt>
      <trkpt lat="43.1659" lon="6.00743">
        <ele>511</ele>
        <time>2023-03-22T08:40:38Z</time>
      </trkpt>
      <trkpt lat="43.16594" lon="6.00746">
        <ele>509.6</ele>
        <time>2023-03-22T08:40:40Z</time>
      </trkpt>
      <trkpt lat="43.16596" lon="6.00749">
        <ele>508.4</ele>
        <time>2023-03-22T08:40:42Z</time>
      </trkpt>
      <trkpt lat="43.16599" lon="6.00751">
        <ele>507.2</ele>
        <time>2023-03-22T08:40:44Z</time>
      </trkpt>
      <trkpt lat="43.16604" lon="6.00753">
        <ele>506</ele>
        <time>2023-03-22T08:40:46Z</time>
      </trkpt>
      <trkpt lat="43.16605" lon="6.00753">
        <ele>505.4</ele>
        <time>2023-03-22T08:40:47Z</time>
      </trkpt>
      <trkpt lat="43.16607" lon="6.00752">
        <ele>504.8</ele>
        <time>2023-03-22T08:40:48Z</time>
      </trkpt>
      <trkpt lat="43.16614" lon="6.00748">
        <ele>503.4</ele>
        <time>2023-03-22T08:40:51Z</time>
      </trkpt>
      <trkpt lat="43.16618" lon="6.00747">
        <ele>501.8</ele>
        <time>2023-03-22T08:40:53Z</time>
      </trkpt>
      <trkpt lat="43.16622" lon="6.00744">
        <ele>500.8</ele>
        <time>2023-03-22T08:40:55Z</time>
      </trkpt>
      <trkpt lat="43.16626" lon="6.00739">
        <ele>498.6</ele>
        <time>2023-03-22T08:40:57Z</time>
      </trkpt>
      <trkpt lat="43.16627" lon="6.00739">
        <ele>498</ele>
        <time>2023-03-22T08:40:58Z</time>
      </trkpt>
      <trkpt lat="43.16628" lon="6.0074">
        <ele>497.2</ele>
        <time>2023-03-22T08:40:59Z</time>
      </trkpt>
      <trkpt lat="43.16632" lon="6.00743">
        <ele>495.4</ele>
        <time>2023-03-22T08:41:01Z</time>
      </trkpt>
      <trkpt lat="43.16637" lon="6.00745">
        <ele>493.8</ele>
        <time>2023-03-22T08:41:03Z</time>
      </trkpt>
      <trkpt lat="43.16644" lon="6.00746">
        <ele>492.4</ele>
        <time>2023-03-22T08:41:05Z</time>
      </trkpt>
      <trkpt lat="43.1665" lon="6.00748">
        <ele>491.4</ele>
        <time>2023-03-22T08:41:07Z</time>
      </trkpt>
      <trkpt lat="43.16655" lon="6.00754">
        <ele>490</ele>
        <time>2023-03-22T08:41:09Z</time>
      </trkpt>
      <trkpt lat="43.1666" lon="6.00763">
        <ele>488.6</ele>
        <time>2023-03-22T08:41:11Z</time>
      </trkpt>
      <trkpt lat="43.16665" lon="6.00771">
        <ele>487</ele>
        <time>2023-03-22T08:41:13Z</time>
      </trkpt>
      <trkpt lat="43.1667" lon="6.00779">
        <ele>485.6</ele>
        <time>2023-03-22T08:41:15Z</time>
      </trkpt>
      <trkpt lat="43.16672" lon="6.00782">
        <ele>484.6</ele>
        <time>2023-03-22T08:41:16Z</time>
      </trkpt>
      <trkpt lat="43.16677" lon="6.00787">
        <ele>483</ele>
        <time>2023-03-22T08:41:18Z</time>
      </trkpt>
      <trkpt lat="43.16683" lon="6.00788">
        <ele>481.6</ele>
        <time>2023-03-22T08:41:20Z</time>
      </trkpt>
      <trkpt lat="43.16686" lon="6.0079">
        <ele>480.8</ele>
        <time>2023-03-22T08:41:21Z</time>
      </trkpt>
      <trkpt lat="43.16689" lon="6.00793">
        <ele>480.2</ele>
        <time>2023-03-22T08:41:22Z</time>
      </trkpt>
      <trkpt lat="43.16698" lon="6.00803">
        <ele>478.8</ele>
        <time>2023-03-22T08:41:25Z</time>
      </trkpt>
      <trkpt lat="43.16708" lon="6.00816">
        <ele>477.4</ele>
        <time>2023-03-22T08:41:28Z</time>
      </trkpt>
      <trkpt lat="43.1671" lon="6.00819">
        <ele>476.8</ele>
        <time>2023-03-22T08:41:29Z</time>
      </trkpt>
      <trkpt lat="43.16712" lon="6.00822">
        <ele>476.2</ele>
        <time>2023-03-22T08:41:30Z</time>
      </trkpt>
      <trkpt lat="43.16714" lon="6.00823">
        <ele>475</ele>
        <time>2023-03-22T08:41:32Z</time>
      </trkpt>
      <trkpt lat="43.16714" lon="6.00823">
        <ele>473.8</ele>
        <time>2023-03-22T08:41:34Z</time>
      </trkpt>
      <trkpt lat="43.16714" lon="6.00823">
        <ele>472.6</ele>
        <time>2023-03-22T08:41:36Z</time>
      </trkpt>
      <trkpt lat="43.16737" lon="6.00821">
        <ele>471.8</ele>
        <time>2023-03-22T08:41:57Z</time>
      </trkpt>
      <trkpt lat="43.1674" lon="6.00823">
        <ele>471.6</ele>
        <time>2023-03-22T08:41:58Z</time>
      </trkpt>
      <trkpt lat="43.16756" lon="6.00835">
        <ele>470.4</ele>
        <time>2023-03-22T08:42:02Z</time>
      </trkpt>
      <trkpt lat="43.16768" lon="6.00839">
        <ele>468.8</ele>
        <time>2023-03-22T08:42:05Z</time>
      </trkpt>
      <trkpt lat="43.16774" lon="6.00846">
        <ele>468.4</ele>
        <time>2023-03-22T08:42:09Z</time>
      </trkpt>
      <trkpt lat="43.16777" lon="6.00847">
        <ele>468.4</ele>
        <time>2023-03-22T08:42:15Z</time>
      </trkpt>
      <trkpt lat="43.16787" lon="6.00854">
        <ele>469.6</ele>
        <time>2023-03-22T08:42:28Z</time>
      </trkpt>
      <trkpt lat="43.1679" lon="6.00858">
        <ele>469.8</ele>
        <time>2023-03-22T08:42:30Z</time>
      </trkpt>
      <trkpt lat="43.16796" lon="6.00867">
        <ele>470.2</ele>
        <time>2023-03-22T08:42:35Z</time>
      </trkpt>
      <trkpt lat="43.16802" lon="6.00871">
        <ele>470.8</ele>
        <time>2023-03-22T08:42:38Z</time>
      </trkpt>
      <trkpt lat="43.16806" lon="6.00873">
        <ele>471.8</ele>
        <time>2023-03-22T08:42:40Z</time>
      </trkpt>
      <trkpt lat="43.16815" lon="6.00874">
        <ele>473.2</ele>
        <time>2023-03-22T08:42:44Z</time>
      </trkpt>
      <trkpt lat="43.16828" lon="6.00877">
        <ele>474.2</ele>
        <time>2023-03-22T08:42:50Z</time>
      </trkpt>
      <trkpt lat="43.16841" lon="6.00881">
        <ele>475.6</ele>
        <time>2023-03-22T08:42:57Z</time>
      </trkpt>
      <trkpt lat="43.16849" lon="6.00883">
        <ele>476.6</ele>
        <time>2023-03-22T08:43:01Z</time>
      </trkpt>
      <trkpt lat="43.16853" lon="6.00884">
        <ele>477</ele>
        <time>2023-03-22T08:43:03Z</time>
      </trkpt>
      <trkpt lat="43.16859" lon="6.0089">
        <ele>477.6</ele>
        <time>2023-03-22T08:43:07Z</time>
      </trkpt>
      <trkpt lat="43.16861" lon="6.00892">
        <ele>479</ele>
        <time>2023-03-22T08:43:12Z</time>
      </trkpt>
      <trkpt lat="43.16861" lon="6.00892">
        <ele>480.2</ele>
        <time>2023-03-22T08:43:14Z</time>
      </trkpt>
      <trkpt lat="43.16863" lon="6.00894">
        <ele>481.2</ele>
        <time>2023-03-22T08:43:24Z</time>
      </trkpt>
      <trkpt lat="43.16863" lon="6.00895">
        <ele>481.6</ele>
        <time>2023-03-22T08:43:43Z</time>
      </trkpt>
      <trkpt lat="43.16863" lon="6.00895">
        <ele>481.6</ele>
        <time>2023-03-22T08:43:49Z</time>
      </trkpt>
      <trkpt lat="43.16863" lon="6.00895">
        <ele>481.6</ele>
        <time>2023-03-22T08:43:52Z</time>
      </trkpt>
      <trkpt lat="43.16863" lon="6.00895">
        <ele>482</ele>
        <time>2023-03-22T08:44:08Z</time>
      </trkpt>
      <trkpt lat="43.16863" lon="6.00895">
        <ele>482</ele>
        <time>2023-03-22T08:44:12Z</time>
      </trkpt>
      <trkpt lat="43.16866" lon="6.00899">
        <ele>482</ele>
        <time>2023-03-22T08:44:18Z</time>
      </trkpt>
      <trkpt lat="43.16873" lon="6.00899">
        <ele>481.6</ele>
        <time>2023-03-22T08:44:25Z</time>
      </trkpt>
      <trkpt lat="43.16874" lon="6.00898">
        <ele>481.6</ele>
        <time>2023-03-22T08:44:33Z</time>
      </trkpt>
      <trkpt lat="43.16876" lon="6.00896">
        <ele>481.8</ele>
        <time>2023-03-22T08:44:38Z</time>
      </trkpt>
      <trkpt lat="43.16877" lon="6.00894">
        <ele>482</ele>
        <time>2023-03-22T08:44:43Z</time>
      </trkpt>
      <trkpt lat="43.16879" lon="6.00893">
        <ele>482.2</ele>
        <time>2023-03-22T08:44:46Z</time>
      </trkpt>
      <trkpt lat="43.16881" lon="6.00892">
        <ele>483</ele>
        <time>2023-03-22T08:45:03Z</time>
      </trkpt>
      <trkpt lat="43.16882" lon="6.0089">
        <ele>483</ele>
        <time>2023-03-22T08:45:04Z</time>
      </trkpt>
      <trkpt lat="43.16896" lon="6.0088">
        <ele>482.4</ele>
        <time>2023-03-22T08:45:10Z</time>
      </trkpt>
      <trkpt lat="43.16912" lon="6.0087">
        <ele>481</ele>
        <time>2023-03-22T08:45:15Z</time>
      </trkpt>
      <trkpt lat="43.16917" lon="6.00863">
        <ele>479.8</ele>
        <time>2023-03-22T08:45:17Z</time>
      </trkpt>
      <trkpt lat="43.1692" lon="6.00856">
        <ele>478.2</ele>
        <time>2023-03-22T08:45:19Z</time>
      </trkpt>
      <trkpt lat="43.16923" lon="6.00853">
        <ele>476.8</ele>
        <time>2023-03-22T08:45:21Z</time>
      </trkpt>
      <trkpt lat="43.1694" lon="6.00838">
        <ele>475.6</ele>
        <time>2023-03-22T08:45:27Z</time>
      </trkpt>
      <trkpt lat="43.16949" lon="6.00826">
        <ele>474.4</ele>
        <time>2023-03-22T08:45:31Z</time>
      </trkpt>
      <trkpt lat="43.16949" lon="6.00824">
        <ele>472.6</ele>
        <time>2023-03-22T08:45:32Z</time>
      </trkpt>
      <trkpt lat="43.16951" lon="6.0082">
        <ele>471.2</ele>
        <time>2023-03-22T08:45:34Z</time>
      </trkpt>
      <trkpt lat="43.16955" lon="6.00816">
        <ele>470</ele>
        <time>2023-03-22T08:45:37Z</time>
      </trkpt>
      <trkpt lat="43.1697" lon="6.00795">
        <ele>469</ele>
        <time>2023-03-22T08:45:45Z</time>
      </trkpt>
      <trkpt lat="43.16974" lon="6.00787">
        <ele>467.8</ele>
        <time>2023-03-22T08:45:47Z</time>
      </trkpt>
      <trkpt lat="43.16979" lon="6.00781">
        <ele>466.8</ele>
        <time>2023-03-22T08:45:49Z</time>
      </trkpt>
      <trkpt lat="43.16984" lon="6.00775">
        <ele>465.8</ele>
        <time>2023-03-22T08:45:51Z</time>
      </trkpt>
      <trkpt lat="43.16989" lon="6.00767">
        <ele>464.6</ele>
        <time>2023-03-22T08:45:53Z</time>
      </trkpt>
      <trkpt lat="43.16993" lon="6.00759">
        <ele>462.8</ele>
        <time>2023-03-22T08:45:55Z</time>
      </trkpt>
      <trkpt lat="43.16995" lon="6.00756">
        <ele>461.8</ele>
        <time>2023-03-22T08:45:56Z</time>
      </trkpt>
      <trkpt lat="43.16996" lon="6.00753">
        <ele>460.8</ele>
        <time>2023-03-22T08:45:57Z</time>
      </trkpt>
      <trkpt lat="43.16996" lon="6.00749">
        <ele>459.8</ele>
        <time>2023-03-22T08:45:58Z</time>
      </trkpt>
      <trkpt lat="43.16998" lon="6.00739">
        <ele>458.2</ele>
        <time>2023-03-22T08:46:00Z</time>
      </trkpt>
      <trkpt lat="43.16999" lon="6.00734">
        <ele>457.6</ele>
        <time>2023-03-22T08:46:01Z</time>
      </trkpt>
      <trkpt lat="43.16999" lon="6.00728">
        <ele>457</ele>
        <time>2023-03-22T08:46:02Z</time>
      </trkpt>
      <trkpt lat="43.17" lon="6.00722">
        <ele>456.4</ele>
        <time>2023-03-22T08:46:03Z</time>
      </trkpt>
      <trkpt lat="43.17001" lon="6.00716">
        <ele>455.8</ele>
        <time>2023-03-22T08:46:04Z</time>
      </trkpt>
      <trkpt lat="43.17002" lon="6.0071">
        <ele>455.2</ele>
        <time>2023-03-22T08:46:05Z</time>
      </trkpt>
      <trkpt lat="43.17003" lon="6.00705">
        <ele>454.4</ele>
        <time>2023-03-22T08:46:06Z</time>
      </trkpt>
      <trkpt lat="43.17004" lon="6.007">
        <ele>453.4</ele>
        <time>2023-03-22T08:46:07Z</time>
      </trkpt>
      <trkpt lat="43.17004" lon="6.00695">
        <ele>452.6</ele>
        <time>2023-03-22T08:46:08Z</time>
      </trkpt>
      <trkpt lat="43.17008" lon="6.00686">
        <ele>451.2</ele>
        <time>2023-03-22T08:46:10Z</time>
      </trkpt>
      <trkpt lat="43.17013" lon="6.00676">
        <ele>449.6</ele>
        <time>2023-03-22T08:46:12Z</time>
      </trkpt>
      <trkpt lat="43.17018" lon="6.00669">
        <ele>448.2</ele>
        <time>2023-03-22T08:46:14Z</time>
      </trkpt>
      <trkpt lat="43.17023" lon="6.00664">
        <ele>447</ele>
        <time>2023-03-22T08:46:16Z</time>
      </trkpt>
      <trkpt lat="43.17026" lon="6.0066">
        <ele>446.2</ele>
        <time>2023-03-22T08:46:17Z</time>
      </trkpt>
      <trkpt lat="43.17029" lon="6.00657">
        <ele>445.4</ele>
        <time>2023-03-22T08:46:18Z</time>
      </trkpt>
      <trkpt lat="43.17032" lon="6.00653">
        <ele>444.2</ele>
        <time>2023-03-22T08:46:19Z</time>
      </trkpt>
      <trkpt lat="43.17037" lon="6.00645">
        <ele>442.2</ele>
        <time>2023-03-22T08:46:21Z</time>
      </trkpt>
      <trkpt lat="43.1704" lon="6.00635">
        <ele>440.6</ele>
        <time>2023-03-22T08:46:23Z</time>
      </trkpt>
      <trkpt lat="43.1704" lon="6.00624">
        <ele>438.8</ele>
        <time>2023-03-22T08:46:25Z</time>
      </trkpt>
      <trkpt lat="43.17045" lon="6.00617">
        <ele>437</ele>
        <time>2023-03-22T08:46:27Z</time>
      </trkpt>
      <trkpt lat="43.1705" lon="6.00612">
        <ele>435.2</ele>
        <time>2023-03-22T08:46:29Z</time>
      </trkpt>
      <trkpt lat="43.17053" lon="6.00612">
        <ele>434</ele>
        <time>2023-03-22T08:46:30Z</time>
      </trkpt>
      <trkpt lat="43.17058" lon="6.00613">
        <ele>432.4</ele>
        <time>2023-03-22T08:46:32Z</time>
      </trkpt>
      <trkpt lat="43.17062" lon="6.00606">
        <ele>430.6</ele>
        <time>2023-03-22T08:46:35Z</time>
      </trkpt>
      <trkpt lat="43.17064" lon="6.00602">
        <ele>429.8</ele>
        <time>2023-03-22T08:46:36Z</time>
      </trkpt>
      <trkpt lat="43.17066" lon="6.00598">
        <ele>428.8</ele>
        <time>2023-03-22T08:46:37Z</time>
      </trkpt>
      <trkpt lat="43.17068" lon="6.00588">
        <ele>427.2</ele>
        <time>2023-03-22T08:46:39Z</time>
      </trkpt>
      <trkpt lat="43.17068" lon="6.0058">
        <ele>425.4</ele>
        <time>2023-03-22T08:46:41Z</time>
      </trkpt>
      <trkpt lat="43.17071" lon="6.00574">
        <ele>423.8</ele>
        <time>2023-03-22T08:46:43Z</time>
      </trkpt>
      <trkpt lat="43.17073" lon="6.00571">
        <ele>422.8</ele>
        <time>2023-03-22T08:46:44Z</time>
      </trkpt>
      <trkpt lat="43.17076" lon="6.0057">
        <ele>421.6</ele>
        <time>2023-03-22T08:46:45Z</time>
      </trkpt>
      <trkpt lat="43.17079" lon="6.00565">
        <ele>420</ele>
        <time>2023-03-22T08:46:47Z</time>
      </trkpt>
      <trkpt lat="43.17083" lon="6.00559">
        <ele>418.8</ele>
        <time>2023-03-22T08:46:49Z</time>
      </trkpt>
      <trkpt lat="43.17086" lon="6.00551">
        <ele>417.4</ele>
        <time>2023-03-22T08:46:51Z</time>
      </trkpt>
      <trkpt lat="43.17086" lon="6.00542">
        <ele>415.8</ele>
        <time>2023-03-22T08:46:53Z</time>
      </trkpt>
      <trkpt lat="43.17088" lon="6.00534">
        <ele>414</ele>
        <time>2023-03-22T08:46:55Z</time>
      </trkpt>
      <trkpt lat="43.1709" lon="6.00529">
        <ele>412.4</ele>
        <time>2023-03-22T08:46:57Z</time>
      </trkpt>
      <trkpt lat="43.17093" lon="6.00523">
        <ele>411</ele>
        <time>2023-03-22T08:46:59Z</time>
      </trkpt>
      <trkpt lat="43.17096" lon="6.00516">
        <ele>409.6</ele>
        <time>2023-03-22T08:47:01Z</time>
      </trkpt>
      <trkpt lat="43.17101" lon="6.00509">
        <ele>408.6</ele>
        <time>2023-03-22T08:47:03Z</time>
      </trkpt>
      <trkpt lat="43.17103" lon="6.00502">
        <ele>407.2</ele>
        <time>2023-03-22T08:47:05Z</time>
      </trkpt>
      <trkpt lat="43.17103" lon="6.00494">
        <ele>405.4</ele>
        <time>2023-03-22T08:47:07Z</time>
      </trkpt>
      <trkpt lat="43.17105" lon="6.00488">
        <ele>403.8</ele>
        <time>2023-03-22T08:47:09Z</time>
      </trkpt>
      <trkpt lat="43.17108" lon="6.00486">
        <ele>402</ele>
        <time>2023-03-22T08:47:11Z</time>
      </trkpt>
      <trkpt lat="43.1711" lon="6.00481">
        <ele>400.8</ele>
        <time>2023-03-22T08:47:13Z</time>
      </trkpt>
      <trkpt lat="43.17109" lon="6.00474">
        <ele>399.4</ele>
        <time>2023-03-22T08:47:15Z</time>
      </trkpt>
      <trkpt lat="43.17106" lon="6.00465">
        <ele>398.2</ele>
        <time>2023-03-22T08:47:17Z</time>
      </trkpt>
      <trkpt lat="43.17102" lon="6.00458">
        <ele>397</ele>
        <time>2023-03-22T08:47:19Z</time>
      </trkpt>
      <trkpt lat="43.17099" lon="6.00453">
        <ele>396</ele>
        <time>2023-03-22T08:47:21Z</time>
      </trkpt>
      <trkpt lat="43.17094" lon="6.00446">
        <ele>394.4</ele>
        <time>2023-03-22T08:47:24Z</time>
      </trkpt>
      <trkpt lat="43.17089" lon="6.00434">
        <ele>394</ele>
        <time>2023-03-22T08:47:27Z</time>
      </trkpt>
      <trkpt lat="43.17088" lon="6.00424">
        <ele>393.8</ele>
        <time>2023-03-22T08:47:30Z</time>
      </trkpt>
      <trkpt lat="43.17089" lon="6.00415">
        <ele>393.4</ele>
        <time>2023-03-22T08:47:33Z</time>
      </trkpt>
      <trkpt lat="43.17087" lon="6.00407">
        <ele>392.2</ele>
        <time>2023-03-22T08:47:35Z</time>
      </trkpt>
      <trkpt lat="43.17081" lon="6.00395">
        <ele>390.6</ele>
        <time>2023-03-22T08:47:38Z</time>
      </trkpt>
      <trkpt lat="43.17076" lon="6.00388">
        <ele>389</ele>
        <time>2023-03-22T08:47:40Z</time>
      </trkpt>
      <trkpt lat="43.17073" lon="6.00381">
        <ele>387.4</ele>
        <time>2023-03-22T08:47:42Z</time>
      </trkpt>
      <trkpt lat="43.17072" lon="6.00374">
        <ele>386</ele>
        <time>2023-03-22T08:47:44Z</time>
      </trkpt>
      <trkpt lat="43.17072" lon="6.00366">
        <ele>384.6</ele>
        <time>2023-03-22T08:47:46Z</time>
      </trkpt>
      <trkpt lat="43.1707" lon="6.00362">
        <ele>383.8</ele>
        <time>2023-03-22T08:47:47Z</time>
      </trkpt>
      <trkpt lat="43.17068" lon="6.0036">
        <ele>383.4</ele>
        <time>2023-03-22T08:47:48Z</time>
      </trkpt>
      <trkpt lat="43.17062" lon="6.00355">
        <ele>382.2</ele>
        <time>2023-03-22T08:47:50Z</time>
      </trkpt>
      <trkpt lat="43.1706" lon="6.00354">
        <ele>381.2</ele>
        <time>2023-03-22T08:47:51Z</time>
      </trkpt>
      <trkpt lat="43.17057" lon="6.00352">
        <ele>380.2</ele>
        <time>2023-03-22T08:47:52Z</time>
      </trkpt>
      <trkpt lat="43.17055" lon="6.00352">
        <ele>379.2</ele>
        <time>2023-03-22T08:47:53Z</time>
      </trkpt>
      <trkpt lat="43.17047" lon="6.00351">
        <ele>377.8</ele>
        <time>2023-03-22T08:47:56Z</time>
      </trkpt>
      <trkpt lat="43.17042" lon="6.00347">
        <ele>377.4</ele>
        <time>2023-03-22T08:47:58Z</time>
      </trkpt>
      <trkpt lat="43.17032" lon="6.00339">
        <ele>377</ele>
        <time>2023-03-22T08:48:01Z</time>
      </trkpt>
      <trkpt lat="43.17016" lon="6.00323">
        <ele>376.6</ele>
        <time>2023-03-22T08:48:06Z</time>
      </trkpt>
      <trkpt lat="43.17006" lon="6.00317">
        <ele>375</ele>
        <time>2023-03-22T08:48:09Z</time>
      </trkpt>
      <trkpt lat="43.17003" lon="6.00311">
        <ele>373.6</ele>
        <time>2023-03-22T08:48:11Z</time>
      </trkpt>
      <trkpt lat="43.17003" lon="6.00308">
        <ele>373</ele>
        <time>2023-03-22T08:48:12Z</time>
      </trkpt>
      <trkpt lat="43.17003" lon="6.00304">
        <ele>372.4</ele>
        <time>2023-03-22T08:48:13Z</time>
      </trkpt>
      <trkpt lat="43.17005" lon="6.00299">
        <ele>371</ele>
        <time>2023-03-22T08:48:15Z</time>
      </trkpt>
      <trkpt lat="43.17004" lon="6.00294">
        <ele>370.2</ele>
        <time>2023-03-22T08:48:17Z</time>
      </trkpt>
      <trkpt lat="43.17004" lon="6.00292">
        <ele>369.8</ele>
        <time>2023-03-22T08:48:18Z</time>
      </trkpt>
      <trkpt lat="43.17005" lon="6.0029">
        <ele>369.6</ele>
        <time>2023-03-22T08:48:19Z</time>
      </trkpt>
      <trkpt lat="43.17009" lon="6.00288">
        <ele>368.4</ele>
        <time>2023-03-22T08:48:21Z</time>
      </trkpt>
      <trkpt lat="43.17015" lon="6.00285">
        <ele>367.2</ele>
        <time>2023-03-22T08:48:23Z</time>
      </trkpt>
      <trkpt lat="43.17026" lon="6.00273">
        <ele>366</ele>
        <time>2023-03-22T08:48:27Z</time>
      </trkpt>
      <trkpt lat="43.17034" lon="6.00262">
        <ele>364.4</ele>
        <time>2023-03-22T08:48:30Z</time>
      </trkpt>
      <trkpt lat="43.17039" lon="6.00249">
        <ele>363.4</ele>
        <time>2023-03-22T08:48:33Z</time>
      </trkpt>
      <trkpt lat="43.1704" lon="6.00241">
        <ele>362</ele>
        <time>2023-03-22T08:48:35Z</time>
      </trkpt>
      <trkpt lat="43.17041" lon="6.00239">
        <ele>361.4</ele>
        <time>2023-03-22T08:48:36Z</time>
      </trkpt>
      <trkpt lat="43.17043" lon="6.00239">
        <ele>360.8</ele>
        <time>2023-03-22T08:48:37Z</time>
      </trkpt>
      <trkpt lat="43.17048" lon="6.00241">
        <ele>359.2</ele>
        <time>2023-03-22T08:48:39Z</time>
      </trkpt>
      <trkpt lat="43.17055" lon="6.00244">
        <ele>357.6</ele>
        <time>2023-03-22T08:48:41Z</time>
      </trkpt>
      <trkpt lat="43.17062" lon="6.00246">
        <ele>356.4</ele>
        <time>2023-03-22T08:48:43Z</time>
      </trkpt>
      <trkpt lat="43.17071" lon="6.00248">
        <ele>355.4</ele>
        <time>2023-03-22T08:48:46Z</time>
      </trkpt>
      <trkpt lat="43.1708" lon="6.0025">
        <ele>354.6</ele>
        <time>2023-03-22T08:48:49Z</time>
      </trkpt>
      <trkpt lat="43.17083" lon="6.0025">
        <ele>354.4</ele>
        <time>2023-03-22T08:48:50Z</time>
      </trkpt>
      <trkpt lat="43.17114" lon="6.00267">
        <ele>353.8</ele>
        <time>2023-03-22T08:49:01Z</time>
      </trkpt>
      <trkpt lat="43.17139" lon="6.00292">
        <ele>353.6</ele>
        <time>2023-03-22T08:49:10Z</time>
      </trkpt>
      <trkpt lat="43.17184" lon="6.00322">
        <ele>353.4</ele>
        <time>2023-03-22T08:49:20Z</time>
      </trkpt>
      <trkpt lat="43.172" lon="6.00332">
        <ele>351.8</ele>
        <time>2023-03-22T08:49:23Z</time>
      </trkpt>
      <trkpt lat="43.1721" lon="6.00338">
        <ele>350.6</ele>
        <time>2023-03-22T08:49:25Z</time>
      </trkpt>
      <trkpt lat="43.17223" lon="6.00348">
        <ele>349.4</ele>
        <time>2023-03-22T08:49:28Z</time>
      </trkpt>
      <trkpt lat="43.17233" lon="6.00351">
        <ele>348.2</ele>
        <time>2023-03-22T08:49:30Z</time>
      </trkpt>
      <trkpt lat="43.17245" lon="6.00355">
        <ele>346.4</ele>
        <time>2023-03-22T08:49:32Z</time>
      </trkpt>
      <trkpt lat="43.17259" lon="6.00361">
        <ele>345.4</ele>
        <time>2023-03-22T08:49:34Z</time>
      </trkpt>
      <trkpt lat="43.17273" lon="6.0037">
        <ele>344.6</ele>
        <time>2023-03-22T08:49:36Z</time>
      </trkpt>
      <trkpt lat="43.17279" lon="6.00376">
        <ele>343.8</ele>
        <time>2023-03-22T08:49:37Z</time>
      </trkpt>
      <trkpt lat="43.17284" lon="6.00381">
        <ele>343</ele>
        <time>2023-03-22T08:49:38Z</time>
      </trkpt>
      <trkpt lat="43.17289" lon="6.00387">
        <ele>342</ele>
        <time>2023-03-22T08:49:39Z</time>
      </trkpt>
      <trkpt lat="43.17296" lon="6.00393">
        <ele>340.6</ele>
        <time>2023-03-22T08:49:41Z</time>
      </trkpt>
      <trkpt lat="43.17299" lon="6.00393">
        <ele>340.2</ele>
        <time>2023-03-22T08:49:42Z</time>
      </trkpt>
      <trkpt lat="43.17305" lon="6.00385">
        <ele>339.4</ele>
        <time>2023-03-22T08:49:45Z</time>
      </trkpt>
      <trkpt lat="43.17314" lon="6.00365">
        <ele>339</ele>
        <time>2023-03-22T08:49:49Z</time>
      </trkpt>
      <trkpt lat="43.17321" lon="6.00351">
        <ele>338.8</ele>
        <time>2023-03-22T08:49:52Z</time>
      </trkpt>
      <trkpt lat="43.17333" lon="6.00351">
        <ele>338.6</ele>
        <time>2023-03-22T08:49:56Z</time>
      </trkpt>
      <trkpt lat="43.17347" lon="6.0037">
        <ele>338.6</ele>
        <time>2023-03-22T08:50:02Z</time>
      </trkpt>
      <trkpt lat="43.17376" lon="6.00411">
        <ele>339.8</ele>
        <time>2023-03-22T08:50:17Z</time>
      </trkpt>
      <trkpt lat="43.17381" lon="6.00414">
        <ele>340.4</ele>
        <time>2023-03-22T08:50:19Z</time>
      </trkpt>
      <trkpt lat="43.17394" lon="6.00423">
        <ele>341.6</ele>
        <time>2023-03-22T08:50:25Z</time>
      </trkpt>
      <trkpt lat="43.17404" lon="6.00425">
        <ele>342.8</ele>
        <time>2023-03-22T08:50:30Z</time>
      </trkpt>
      <trkpt lat="43.17412" lon="6.00424">
        <ele>344</ele>
        <time>2023-03-22T08:50:34Z</time>
      </trkpt>
      <trkpt lat="43.17418" lon="6.00423">
        <ele>345</ele>
        <time>2023-03-22T08:50:37Z</time>
      </trkpt>
      <trkpt lat="43.17421" lon="6.00422">
        <ele>345.4</ele>
        <time>2023-03-22T08:50:38Z</time>
      </trkpt>
      <trkpt lat="43.17427" lon="6.0042">
        <ele>346.2</ele>
        <time>2023-03-22T08:50:41Z</time>
      </trkpt>
      <trkpt lat="43.17437" lon="6.00418">
        <ele>347.2</ele>
        <time>2023-03-22T08:50:46Z</time>
      </trkpt>
      <trkpt lat="43.17446" lon="6.00422">
        <ele>348.2</ele>
        <time>2023-03-22T08:50:50Z</time>
      </trkpt>
      <trkpt lat="43.17447" lon="6.00424">
        <ele>348.4</ele>
        <time>2023-03-22T08:50:51Z</time>
      </trkpt>
      <trkpt lat="43.17454" lon="6.00437">
        <ele>349.2</ele>
        <time>2023-03-22T08:50:57Z</time>
      </trkpt>
      <trkpt lat="43.17455" lon="6.00439">
        <ele>349.4</ele>
        <time>2023-03-22T08:50:58Z</time>
      </trkpt>
      <trkpt lat="43.17459" lon="6.00446">
        <ele>350.4</ele>
        <time>2023-03-22T08:51:02Z</time>
      </trkpt>
      <trkpt lat="43.17462" lon="6.00451">
        <ele>351.4</ele>
        <time>2023-03-22T08:51:05Z</time>
      </trkpt>
      <trkpt lat="43.17465" lon="6.00454">
        <ele>352.2</ele>
        <time>2023-03-22T08:51:07Z</time>
      </trkpt>
      <trkpt lat="43.17467" lon="6.00455">
        <ele>352.4</ele>
        <time>2023-03-22T08:51:08Z</time>
      </trkpt>
      <trkpt lat="43.17471" lon="6.00458">
        <ele>353.6</ele>
        <time>2023-03-22T08:51:11Z</time>
      </trkpt>
      <trkpt lat="43.17473" lon="6.00463">
        <ele>354.6</ele>
        <time>2023-03-22T08:51:14Z</time>
      </trkpt>
      <trkpt lat="43.17474" lon="6.00464">
        <ele>356</ele>
        <time>2023-03-22T08:51:17Z</time>
      </trkpt>
      <trkpt lat="43.17475" lon="6.00465">
        <ele>357</ele>
        <time>2023-03-22T08:51:20Z</time>
      </trkpt>
      <trkpt lat="43.17478" lon="6.00472">
        <ele>358.2</ele>
        <time>2023-03-22T08:51:26Z</time>
      </trkpt>
      <trkpt lat="43.17486" lon="6.00486">
        <ele>359.4</ele>
        <time>2023-03-22T08:51:33Z</time>
      </trkpt>
      <trkpt lat="43.17488" lon="6.00492">
        <ele>360.4</ele>
        <time>2023-03-22T08:51:36Z</time>
      </trkpt>
      <trkpt lat="43.17492" lon="6.005">
        <ele>361.8</ele>
        <time>2023-03-22T08:51:40Z</time>
      </trkpt>
      <trkpt lat="43.17496" lon="6.00502">
        <ele>363.2</ele>
        <time>2023-03-22T08:51:43Z</time>
      </trkpt>
      <trkpt lat="43.17499" lon="6.00502">
        <ele>364.2</ele>
        <time>2023-03-22T08:51:45Z</time>
      </trkpt>
      <trkpt lat="43.17502" lon="6.00501">
        <ele>365.6</ele>
        <time>2023-03-22T08:51:47Z</time>
      </trkpt>
      <trkpt lat="43.17503" lon="6.00501">
        <ele>366.2</ele>
        <time>2023-03-22T08:51:48Z</time>
      </trkpt>
      <trkpt lat="43.17504" lon="6.00501">
        <ele>366.6</ele>
        <time>2023-03-22T08:51:49Z</time>
      </trkpt>
      <trkpt lat="43.17506" lon="6.00501">
        <ele>368</ele>
        <time>2023-03-22T08:51:52Z</time>
      </trkpt>
      <trkpt lat="43.17506" lon="6.00501">
        <ele>369.2</ele>
        <time>2023-03-22T08:51:55Z</time>
      </trkpt>
      <trkpt lat="43.17506" lon="6.00504">
        <ele>370.2</ele>
        <time>2023-03-22T08:52:00Z</time>
      </trkpt>
      <trkpt lat="43.17508" lon="6.00507">
        <ele>371.4</ele>
        <time>2023-03-22T08:52:13Z</time>
      </trkpt>
      <trkpt lat="43.17527" lon="6.00514">
        <ele>372.6</ele>
        <time>2023-03-22T08:52:33Z</time>
      </trkpt>
      <trkpt lat="43.17532" lon="6.00514">
        <ele>373.6</ele>
        <time>2023-03-22T08:52:36Z</time>
      </trkpt>
      <trkpt lat="43.17536" lon="6.00514">
        <ele>374.8</ele>
        <time>2023-03-22T08:52:39Z</time>
      </trkpt>
      <trkpt lat="43.17543" lon="6.00513">
        <ele>375.8</ele>
        <time>2023-03-22T08:52:43Z</time>
      </trkpt>
      <trkpt lat="43.17549" lon="6.00515">
        <ele>377.2</ele>
        <time>2023-03-22T08:52:47Z</time>
      </trkpt>
      <trkpt lat="43.17552" lon="6.00522">
        <ele>378.2</ele>
        <time>2023-03-22T08:52:50Z</time>
      </trkpt>
      <trkpt lat="43.17552" lon="6.00527">
        <ele>378.8</ele>
        <time>2023-03-22T08:52:52Z</time>
      </trkpt>
      <trkpt lat="43.17552" lon="6.00529">
        <ele>379.4</ele>
        <time>2023-03-22T08:52:53Z</time>
      </trkpt>
      <trkpt lat="43.17548" lon="6.00536">
        <ele>380.2</ele>
        <time>2023-03-22T08:52:57Z</time>
      </trkpt>
      <trkpt lat="43.17546" lon="6.00539">
        <ele>381.4</ele>
        <time>2023-03-22T08:52:59Z</time>
      </trkpt>
      <trkpt lat="43.17543" lon="6.00546">
        <ele>382.8</ele>
        <time>2023-03-22T08:53:03Z</time>
      </trkpt>
      <trkpt lat="43.17539" lon="6.00553">
        <ele>384</ele>
        <time>2023-03-22T08:53:07Z</time>
      </trkpt>
      <trkpt lat="43.17536" lon="6.00562">
        <ele>385.2</ele>
        <time>2023-03-22T08:53:11Z</time>
      </trkpt>
      <trkpt lat="43.17533" lon="6.0057">
        <ele>386.2</ele>
        <time>2023-03-22T08:53:15Z</time>
      </trkpt>
      <trkpt lat="43.17529" lon="6.00584">
        <ele>387.2</ele>
        <time>2023-03-22T08:53:21Z</time>
      </trkpt>
      <trkpt lat="43.17527" lon="6.00596">
        <ele>388.4</ele>
        <time>2023-03-22T08:53:27Z</time>
      </trkpt>
      <trkpt lat="43.17527" lon="6.00604">
        <ele>389.6</ele>
        <time>2023-03-22T08:53:31Z</time>
      </trkpt>
      <trkpt lat="43.17529" lon="6.00607">
        <ele>390.6</ele>
        <time>2023-03-22T08:53:33Z</time>
      </trkpt>
      <trkpt lat="43.17534" lon="6.00609">
        <ele>392</ele>
        <time>2023-03-22T08:53:37Z</time>
      </trkpt>
      <trkpt lat="43.1754" lon="6.00608">
        <ele>392.8</ele>
        <time>2023-03-22T08:53:40Z</time>
      </trkpt>
      <trkpt lat="43.17541" lon="6.00608">
        <ele>393</ele>
        <time>2023-03-22T08:53:41Z</time>
      </trkpt>
      <trkpt lat="43.17547" lon="6.00608">
        <ele>394.2</ele>
        <time>2023-03-22T08:53:45Z</time>
      </trkpt>
      <trkpt lat="43.17551" lon="6.00613">
        <ele>395.6</ele>
        <time>2023-03-22T08:53:49Z</time>
      </trkpt>
      <trkpt lat="43.17551" lon="6.00621">
        <ele>396.8</ele>
        <time>2023-03-22T08:53:52Z</time>
      </trkpt>
      <trkpt lat="43.17552" lon="6.00628">
        <ele>398.2</ele>
        <time>2023-03-22T08:53:55Z</time>
      </trkpt>
      <trkpt lat="43.17555" lon="6.00634">
        <ele>399.2</ele>
        <time>2023-03-22T08:53:58Z</time>
      </trkpt>
      <trkpt lat="43.17558" lon="6.00641">
        <ele>400.2</ele>
        <time>2023-03-22T08:54:02Z</time>
      </trkpt>
      <trkpt lat="43.17559" lon="6.00646">
        <ele>401.2</ele>
        <time>2023-03-22T08:54:04Z</time>
      </trkpt>
      <trkpt lat="43.17561" lon="6.00651">
        <ele>403.2</ele>
        <time>2023-03-22T08:54:07Z</time>
      </trkpt>
      <trkpt lat="43.17561" lon="6.00657">
        <ele>404.4</ele>
        <time>2023-03-22T08:54:10Z</time>
      </trkpt>
      <trkpt lat="43.17563" lon="6.00663">
        <ele>405.6</ele>
        <time>2023-03-22T08:54:13Z</time>
      </trkpt>
      <trkpt lat="43.17566" lon="6.00668">
        <ele>406.6</ele>
        <time>2023-03-22T08:54:16Z</time>
      </trkpt>
      <trkpt lat="43.17569" lon="6.00676">
        <ele>407.8</ele>
        <time>2023-03-22T08:54:20Z</time>
      </trkpt>
      <trkpt lat="43.17571" lon="6.00684">
        <ele>409</ele>
        <time>2023-03-22T08:54:25Z</time>
      </trkpt>
      <trkpt lat="43.17573" lon="6.0069">
        <ele>410.2</ele>
        <time>2023-03-22T08:54:28Z</time>
      </trkpt>
      <trkpt lat="43.17574" lon="6.00696">
        <ele>411.4</ele>
        <time>2023-03-22T08:54:31Z</time>
      </trkpt>
      <trkpt lat="43.17576" lon="6.00702">
        <ele>412.4</ele>
        <time>2023-03-22T08:54:34Z</time>
      </trkpt>
      <trkpt lat="43.17579" lon="6.0071">
        <ele>413.6</ele>
        <time>2023-03-22T08:54:38Z</time>
      </trkpt>
      <trkpt lat="43.17581" lon="6.00717">
        <ele>415.4</ele>
        <time>2023-03-22T08:54:42Z</time>
      </trkpt>
      <trkpt lat="43.17583" lon="6.00723">
        <ele>416.4</ele>
        <time>2023-03-22T08:54:45Z</time>
      </trkpt>
      <trkpt lat="43.17583" lon="6.00729">
        <ele>417.4</ele>
        <time>2023-03-22T08:54:48Z</time>
      </trkpt>
      <trkpt lat="43.17585" lon="6.00737">
        <ele>418.4</ele>
        <time>2023-03-22T08:54:52Z</time>
      </trkpt>
      <trkpt lat="43.17589" lon="6.0075">
        <ele>419.6</ele>
        <time>2023-03-22T08:54:59Z</time>
      </trkpt>
      <trkpt lat="43.17593" lon="6.00759">
        <ele>420.8</ele>
        <time>2023-03-22T08:55:04Z</time>
      </trkpt>
      <trkpt lat="43.17597" lon="6.00766">
        <ele>422</ele>
        <time>2023-03-22T08:55:08Z</time>
      </trkpt>
      <trkpt lat="43.17604" lon="6.00773">
        <ele>423.4</ele>
        <time>2023-03-22T08:55:13Z</time>
      </trkpt>
      <trkpt lat="43.17607" lon="6.00778">
        <ele>424.6</ele>
        <time>2023-03-22T08:55:16Z</time>
      </trkpt>
      <trkpt lat="43.17611" lon="6.00784">
        <ele>425.8</ele>
        <time>2023-03-22T08:55:20Z</time>
      </trkpt>
      <trkpt lat="43.17615" lon="6.00788">
        <ele>427</ele>
        <time>2023-03-22T08:55:23Z</time>
      </trkpt>
      <trkpt lat="43.17622" lon="6.00795">
        <ele>428</ele>
        <time>2023-03-22T08:55:28Z</time>
      </trkpt>
      <trkpt lat="43.17626" lon="6.00801">
        <ele>429.4</ele>
        <time>2023-03-22T08:55:32Z</time>
      </trkpt>
      <trkpt lat="43.1763" lon="6.00806">
        <ele>430.6</ele>
        <time>2023-03-22T08:55:35Z</time>
      </trkpt>
      <trkpt lat="43.17632" lon="6.00812">
        <ele>431.6</ele>
        <time>2023-03-22T08:55:38Z</time>
      </trkpt>
      <trkpt lat="43.17634" lon="6.00818">
        <ele>432.8</ele>
        <time>2023-03-22T08:55:41Z</time>
      </trkpt>
      <trkpt lat="43.17637" lon="6.00824">
        <ele>433.8</ele>
        <time>2023-03-22T08:55:44Z</time>
      </trkpt>
      <trkpt lat="43.1764" lon="6.00829">
        <ele>434.8</ele>
        <time>2023-03-22T08:55:47Z</time>
      </trkpt>
      <trkpt lat="43.17644" lon="6.00833">
        <ele>435.8</ele>
        <time>2023-03-22T08:55:50Z</time>
      </trkpt>
      <trkpt lat="43.1765" lon="6.00838">
        <ele>437.2</ele>
        <time>2023-03-22T08:55:55Z</time>
      </trkpt>
      <trkpt lat="43.17651" lon="6.00838">
        <ele>437.6</ele>
        <time>2023-03-22T08:55:56Z</time>
      </trkpt>
      <trkpt lat="43.17655" lon="6.00831">
        <ele>438.4</ele>
        <time>2023-03-22T08:56:00Z</time>
      </trkpt>
      <trkpt lat="43.17658" lon="6.0082">
        <ele>439.4</ele>
        <time>2023-03-22T08:56:05Z</time>
      </trkpt>
      <trkpt lat="43.17661" lon="6.00808">
        <ele>440.6</ele>
        <time>2023-03-22T08:56:10Z</time>
      </trkpt>
      <trkpt lat="43.17664" lon="6.00803">
        <ele>441.8</ele>
        <time>2023-03-22T08:56:13Z</time>
      </trkpt>
      <trkpt lat="43.17668" lon="6.008">
        <ele>443</ele>
        <time>2023-03-22T08:56:16Z</time>
      </trkpt>
      <trkpt lat="43.17674" lon="6.008">
        <ele>444</ele>
        <time>2023-03-22T08:56:20Z</time>
      </trkpt>
      <trkpt lat="43.17684" lon="6.00803">
        <ele>445.8</ele>
        <time>2023-03-22T08:56:25Z</time>
      </trkpt>
      <trkpt lat="43.17692" lon="6.00802">
        <ele>447.4</ele>
        <time>2023-03-22T08:56:29Z</time>
      </trkpt>
      <trkpt lat="43.17695" lon="6.00802">
        <ele>448.4</ele>
        <time>2023-03-22T08:56:31Z</time>
      </trkpt>
      <trkpt lat="43.17699" lon="6.008">
        <ele>449.6</ele>
        <time>2023-03-22T08:56:33Z</time>
      </trkpt>
      <trkpt lat="43.17704" lon="6.00799">
        <ele>450.6</ele>
        <time>2023-03-22T08:56:36Z</time>
      </trkpt>
      <trkpt lat="43.17712" lon="6.00798">
        <ele>451.8</ele>
        <time>2023-03-22T08:56:41Z</time>
      </trkpt>
      <trkpt lat="43.17717" lon="6.00789">
        <ele>452.8</ele>
        <time>2023-03-22T08:56:46Z</time>
      </trkpt>
      <trkpt lat="43.17718" lon="6.00779">
        <ele>453.8</ele>
        <time>2023-03-22T08:56:50Z</time>
      </trkpt>
      <trkpt lat="43.17721" lon="6.00766">
        <ele>455</ele>
        <time>2023-03-22T08:56:56Z</time>
      </trkpt>
      <trkpt lat="43.17725" lon="6.00761">
        <ele>456</ele>
        <time>2023-03-22T08:56:59Z</time>
      </trkpt>
      <trkpt lat="43.17729" lon="6.00759">
        <ele>456.6</ele>
        <time>2023-03-22T08:57:01Z</time>
      </trkpt>
      <trkpt lat="43.17735" lon="6.00758">
        <ele>457.2</ele>
        <time>2023-03-22T08:57:04Z</time>
      </trkpt>
      <trkpt lat="43.1775" lon="6.00754">
        <ele>458.4</ele>
        <time>2023-03-22T08:57:13Z</time>
      </trkpt>
      <trkpt lat="43.17763" lon="6.00753">
        <ele>459.4</ele>
        <time>2023-03-22T08:57:20Z</time>
      </trkpt>
      <trkpt lat="43.17772" lon="6.00752">
        <ele>460.4</ele>
        <time>2023-03-22T08:57:25Z</time>
      </trkpt>
      <trkpt lat="43.17783" lon="6.00752">
        <ele>461.6</ele>
        <time>2023-03-22T08:57:31Z</time>
      </trkpt>
      <trkpt lat="43.17791" lon="6.00756">
        <ele>462.8</ele>
        <time>2023-03-22T08:57:35Z</time>
      </trkpt>
      <trkpt lat="43.17798" lon="6.00757">
        <ele>463.8</ele>
        <time>2023-03-22T08:57:39Z</time>
      </trkpt>
      <trkpt lat="43.178" lon="6.00758">
        <ele>464</ele>
        <time>2023-03-22T08:57:40Z</time>
      </trkpt>
      <trkpt lat="43.17809" lon="6.00757">
        <ele>465</ele>
        <time>2023-03-22T08:57:45Z</time>
      </trkpt>
      <trkpt lat="43.17816" lon="6.00756">
        <ele>466.2</ele>
        <time>2023-03-22T08:57:49Z</time>
      </trkpt>
      <trkpt lat="43.17823" lon="6.00754">
        <ele>467.2</ele>
        <time>2023-03-22T08:57:53Z</time>
      </trkpt>
      <trkpt lat="43.17829" lon="6.00751">
        <ele>468.6</ele>
        <time>2023-03-22T08:57:57Z</time>
      </trkpt>
      <trkpt lat="43.17836" lon="6.00752">
        <ele>469.6</ele>
        <time>2023-03-22T08:58:01Z</time>
      </trkpt>
      <trkpt lat="43.17843" lon="6.00758">
        <ele>471</ele>
        <time>2023-03-22T08:58:05Z</time>
      </trkpt>
      <trkpt lat="43.17847" lon="6.00762">
        <ele>472.2</ele>
        <time>2023-03-22T08:58:08Z</time>
      </trkpt>
      <trkpt lat="43.17854" lon="6.0077">
        <ele>473.4</ele>
        <time>2023-03-22T08:58:13Z</time>
      </trkpt>
      <trkpt lat="43.17863" lon="6.00778">
        <ele>474.4</ele>
        <time>2023-03-22T08:58:19Z</time>
      </trkpt>
      <trkpt lat="43.17872" lon="6.00787">
        <ele>475.2</ele>
        <time>2023-03-22T08:58:25Z</time>
      </trkpt>
      <trkpt lat="43.17878" lon="6.00793">
        <ele>476.4</ele>
        <time>2023-03-22T08:58:29Z</time>
      </trkpt>
      <trkpt lat="43.17883" lon="6.00799">
        <ele>477.6</ele>
        <time>2023-03-22T08:58:33Z</time>
      </trkpt>
      <trkpt lat="43.17888" lon="6.00803">
        <ele>479</ele>
        <time>2023-03-22T08:58:36Z</time>
      </trkpt>
      <trkpt lat="43.17895" lon="6.00808">
        <ele>480.2</ele>
        <time>2023-03-22T08:58:41Z</time>
      </trkpt>
      <trkpt lat="43.17899" lon="6.00809">
        <ele>481.4</ele>
        <time>2023-03-22T08:58:43Z</time>
      </trkpt>
      <trkpt lat="43.17904" lon="6.0081">
        <ele>482.6</ele>
        <time>2023-03-22T08:58:46Z</time>
      </trkpt>
      <trkpt lat="43.17911" lon="6.00809">
        <ele>483.8</ele>
        <time>2023-03-22T08:58:50Z</time>
      </trkpt>
      <trkpt lat="43.17917" lon="6.00808">
        <ele>484.8</ele>
        <time>2023-03-22T08:58:53Z</time>
      </trkpt>
      <trkpt lat="43.17922" lon="6.00805">
        <ele>485.8</ele>
        <time>2023-03-22T08:58:56Z</time>
      </trkpt>
      <trkpt lat="43.17933" lon="6.00805">
        <ele>487</ele>
        <time>2023-03-22T08:59:01Z</time>
      </trkpt>
      <trkpt lat="43.17944" lon="6.00807">
        <ele>488.2</ele>
        <time>2023-03-22T08:59:06Z</time>
      </trkpt>
      <trkpt lat="43.17952" lon="6.00826">
        <ele>488.6</ele>
        <time>2023-03-22T08:59:15Z</time>
      </trkpt>
      <trkpt lat="43.17948" lon="6.00854">
        <ele>489</ele>
        <time>2023-03-22T08:59:25Z</time>
      </trkpt>
      <trkpt lat="43.17949" lon="6.00874">
        <ele>490.2</ele>
        <time>2023-03-22T08:59:32Z</time>
      </trkpt>
      <trkpt lat="43.17949" lon="6.00881">
        <ele>491.4</ele>
        <time>2023-03-22T08:59:35Z</time>
      </trkpt>
      <trkpt lat="43.17948" lon="6.00887">
        <ele>492.4</ele>
        <time>2023-03-22T08:59:39Z</time>
      </trkpt>
      <trkpt lat="43.17949" lon="6.00889">
        <ele>493.8</ele>
        <time>2023-03-22T08:59:43Z</time>
      </trkpt>
      <trkpt lat="43.17948" lon="6.00894">
        <ele>495</ele>
        <time>2023-03-22T08:59:46Z</time>
      </trkpt>
      <trkpt lat="43.17947" lon="6.00899">
        <ele>496.2</ele>
        <time>2023-03-22T08:59:49Z</time>
      </trkpt>
      <trkpt lat="43.17946" lon="6.00906">
        <ele>496.8</ele>
        <time>2023-03-22T08:59:54Z</time>
      </trkpt>
      <trkpt lat="43.17947" lon="6.0091">
        <ele>497.2</ele>
        <time>2023-03-22T08:59:56Z</time>
      </trkpt>
      <trkpt lat="43.17946" lon="6.00915">
        <ele>498.6</ele>
        <time>2023-03-22T08:59:59Z</time>
      </trkpt>
      <trkpt lat="43.17941" lon="6.00919">
        <ele>499.6</ele>
        <time>2023-03-22T09:00:03Z</time>
      </trkpt>
      <trkpt lat="43.1794" lon="6.00924">
        <ele>500.4</ele>
        <time>2023-03-22T09:00:06Z</time>
      </trkpt>
      <trkpt lat="43.1794" lon="6.00929">
        <ele>501.8</ele>
        <time>2023-03-22T09:00:09Z</time>
      </trkpt>
      <trkpt lat="43.17939" lon="6.00934">
        <ele>503</ele>
        <time>2023-03-22T09:00:12Z</time>
      </trkpt>
      <trkpt lat="43.17941" lon="6.00939">
        <ele>504</ele>
        <time>2023-03-22T09:00:15Z</time>
      </trkpt>
      <trkpt lat="43.17942" lon="6.00942">
        <ele>505</ele>
        <time>2023-03-22T09:00:17Z</time>
      </trkpt>
      <trkpt lat="43.17941" lon="6.00944">
        <ele>506.4</ele>
        <time>2023-03-22T09:00:19Z</time>
      </trkpt>
      <trkpt lat="43.17939" lon="6.00945">
        <ele>506.6</ele>
        <time>2023-03-22T09:00:20Z</time>
      </trkpt>
      <trkpt lat="43.17937" lon="6.00948">
        <ele>507.2</ele>
        <time>2023-03-22T09:00:22Z</time>
      </trkpt>
      <trkpt lat="43.17933" lon="6.00952">
        <ele>508.8</ele>
        <time>2023-03-22T09:00:25Z</time>
      </trkpt>
      <trkpt lat="43.1793" lon="6.00957">
        <ele>510</ele>
        <time>2023-03-22T09:00:28Z</time>
      </trkpt>
      <trkpt lat="43.17927" lon="6.00964">
        <ele>511</ele>
        <time>2023-03-22T09:00:31Z</time>
      </trkpt>
      <trkpt lat="43.17927" lon="6.0097">
        <ele>512.2</ele>
        <time>2023-03-22T09:00:34Z</time>
      </trkpt>
      <trkpt lat="43.17928" lon="6.00982">
        <ele>513.4</ele>
        <time>2023-03-22T09:00:39Z</time>
      </trkpt>
      <trkpt lat="43.17926" lon="6.00997">
        <ele>514.6</ele>
        <time>2023-03-22T09:00:45Z</time>
      </trkpt>
      <trkpt lat="43.17925" lon="6.01">
        <ele>514.8</ele>
        <time>2023-03-22T09:00:46Z</time>
      </trkpt>
      <trkpt lat="43.17923" lon="6.01011">
        <ele>515.4</ele>
        <time>2023-03-22T09:00:50Z</time>
      </trkpt>
      <trkpt lat="43.17924" lon="6.01017">
        <ele>515.4</ele>
        <time>2023-03-22T09:00:52Z</time>
      </trkpt>
      <trkpt lat="43.17931" lon="6.01036">
        <ele>516.6</ele>
        <time>2023-03-22T09:01:01Z</time>
      </trkpt>
      <trkpt lat="43.17932" lon="6.01042">
        <ele>516.6</ele>
        <time>2023-03-22T09:01:03Z</time>
      </trkpt>
      <trkpt lat="43.17931" lon="6.01052">
        <ele>516.6</ele>
        <time>2023-03-22T09:01:07Z</time>
      </trkpt>
      <trkpt lat="43.17932" lon="6.01059">
        <ele>516.6</ele>
        <time>2023-03-22T09:01:10Z</time>
      </trkpt>
      <trkpt lat="43.17938" lon="6.01078">
        <ele>517.4</ele>
        <time>2023-03-22T09:01:18Z</time>
      </trkpt>
      <trkpt lat="43.17938" lon="6.0108">
        <ele>517.6</ele>
        <time>2023-03-22T09:01:19Z</time>
      </trkpt>
      <trkpt lat="43.17936" lon="6.01091">
        <ele>518.6</ele>
        <time>2023-03-22T09:01:24Z</time>
      </trkpt>
      <trkpt lat="43.17938" lon="6.01103">
        <ele>520</ele>
        <time>2023-03-22T09:01:30Z</time>
      </trkpt>
      <trkpt lat="43.17939" lon="6.01111">
        <ele>521.4</ele>
        <time>2023-03-22T09:01:33Z</time>
      </trkpt>
      <trkpt lat="43.17942" lon="6.01115">
        <ele>521.6</ele>
        <time>2023-03-22T09:01:35Z</time>
      </trkpt>
      <trkpt lat="43.17943" lon="6.01118">
        <ele>522.2</ele>
        <time>2023-03-22T09:01:38Z</time>
      </trkpt>
      <trkpt lat="43.17943" lon="6.0112">
        <ele>522.4</ele>
        <time>2023-03-22T09:01:39Z</time>
      </trkpt>
      <trkpt lat="43.17943" lon="6.01124">
        <ele>522.8</ele>
        <time>2023-03-22T09:01:41Z</time>
      </trkpt>
      <trkpt lat="43.17945" lon="6.01128">
        <ele>523.6</ele>
        <time>2023-03-22T09:01:45Z</time>
      </trkpt>
      <trkpt lat="43.17945" lon="6.01132">
        <ele>523.6</ele>
        <time>2023-03-22T09:01:50Z</time>
      </trkpt>
      <trkpt lat="43.17948" lon="6.01152">
        <ele>523.4</ele>
        <time>2023-03-22T09:01:58Z</time>
      </trkpt>
      <trkpt lat="43.17951" lon="6.01183">
        <ele>523</ele>
        <time>2023-03-22T09:02:11Z</time>
      </trkpt>
      <trkpt lat="43.17952" lon="6.01186">
        <ele>523.8</ele>
        <time>2023-03-22T09:02:18Z</time>
      </trkpt>
      <trkpt lat="43.17952" lon="6.01186">
        <ele>524.4</ele>
        <time>2023-03-22T09:02:27Z</time>
      </trkpt>
      <trkpt lat="43.17951" lon="6.01186">
        <ele>524.4</ele>
        <time>2023-03-22T09:03:05Z</time>
      </trkpt>
      <trkpt lat="43.17951" lon="6.01186">
        <ele>524.4</ele>
        <time>2023-03-22T09:03:06Z</time>
      </trkpt>
      <trkpt lat="43.17951" lon="6.01186">
        <ele>524</ele>
        <time>2023-03-22T09:03:25Z</time>
      </trkpt>
      <trkpt lat="43.17953" lon="6.01186">
        <ele>523.8</ele>
        <time>2023-03-22T09:03:46Z</time>
      </trkpt>
      <trkpt lat="43.17957" lon="6.01185">
        <ele>523.8</ele>
        <time>2023-03-22T09:03:50Z</time>
      </trkpt>
      <trkpt lat="43.17962" lon="6.01187">
        <ele>522.8</ele>
        <time>2023-03-22T09:03:54Z</time>
      </trkpt>
      <trkpt lat="43.17965" lon="6.01189">
        <ele>521.4</ele>
        <time>2023-03-22T09:03:57Z</time>
      </trkpt>
      <trkpt lat="43.17967" lon="6.0119">
        <ele>520.2</ele>
        <time>2023-03-22T09:04:00Z</time>
      </trkpt>
      <trkpt lat="43.17969" lon="6.01187">
        <ele>518.8</ele>
        <time>2023-03-22T09:04:03Z</time>
      </trkpt>
      <trkpt lat="43.1797" lon="6.01182">
        <ele>517.6</ele>
        <time>2023-03-22T09:04:05Z</time>
      </trkpt>
      <trkpt lat="43.17971" lon="6.01172">
        <ele>516.4</ele>
        <time>2023-03-22T09:04:08Z</time>
      </trkpt>
      <trkpt lat="43.17971" lon="6.01168">
        <ele>515.6</ele>
        <time>2023-03-22T09:04:09Z</time>
      </trkpt>
      <trkpt lat="43.17971" lon="6.01164">
        <ele>515</ele>
        <time>2023-03-22T09:04:10Z</time>
      </trkpt>
      <trkpt lat="43.17971" lon="6.01159">
        <ele>513.8</ele>
        <time>2023-03-22T09:04:12Z</time>
      </trkpt>
      <trkpt lat="43.17971" lon="6.01159">
        <ele>512.4</ele>
        <time>2023-03-22T09:04:14Z</time>
      </trkpt>
      <trkpt lat="43.17972" lon="6.01161">
        <ele>511.2</ele>
        <time>2023-03-22T09:04:17Z</time>
      </trkpt>
      <trkpt lat="43.17977" lon="6.01163">
        <ele>510.2</ele>
        <time>2023-03-22T09:04:21Z</time>
      </trkpt>
      <trkpt lat="43.17978" lon="6.01165">
        <ele>509.8</ele>
        <time>2023-03-22T09:04:22Z</time>
      </trkpt>
      <trkpt lat="43.17983" lon="6.01165">
        <ele>509</ele>
        <time>2023-03-22T09:04:26Z</time>
      </trkpt>
      <trkpt lat="43.17985" lon="6.01162">
        <ele>508.2</ele>
        <time>2023-03-22T09:04:28Z</time>
      </trkpt>
      <trkpt lat="43.17986" lon="6.0116">
        <ele>507.4</ele>
        <time>2023-03-22T09:04:29Z</time>
      </trkpt>
      <trkpt lat="43.17989" lon="6.01158">
        <ele>506</ele>
        <time>2023-03-22T09:04:31Z</time>
      </trkpt>
      <trkpt lat="43.1799" lon="6.01159">
        <ele>505.4</ele>
        <time>2023-03-22T09:04:32Z</time>
      </trkpt>
      <trkpt lat="43.17991" lon="6.01161">
        <ele>505</ele>
        <time>2023-03-22T09:04:33Z</time>
      </trkpt>
      <trkpt lat="43.17992" lon="6.01162">
        <ele>504.4</ele>
        <time>2023-03-22T09:04:34Z</time>
      </trkpt>
      <trkpt lat="43.17993" lon="6.01163">
        <ele>503.8</ele>
        <time>2023-03-22T09:04:35Z</time>
      </trkpt>
      <trkpt lat="43.17997" lon="6.01161">
        <ele>502.4</ele>
        <time>2023-03-22T09:04:38Z</time>
      </trkpt>
      <trkpt lat="43.17998" lon="6.01159">
        <ele>502</ele>
        <time>2023-03-22T09:04:39Z</time>
      </trkpt>
      <trkpt lat="43.17999" lon="6.01157">
        <ele>501.4</ele>
        <time>2023-03-22T09:04:40Z</time>
      </trkpt>
      <trkpt lat="43.18004" lon="6.01153">
        <ele>500.2</ele>
        <time>2023-03-22T09:04:43Z</time>
      </trkpt>
      <trkpt lat="43.18006" lon="6.01153">
        <ele>499.2</ele>
        <time>2023-03-22T09:04:45Z</time>
      </trkpt>
      <trkpt lat="43.18007" lon="6.01153">
        <ele>498.2</ele>
        <time>2023-03-22T09:04:47Z</time>
      </trkpt>
      <trkpt lat="43.18007" lon="6.01153">
        <ele>497.8</ele>
        <time>2023-03-22T09:04:48Z</time>
      </trkpt>
      <trkpt lat="43.18008" lon="6.01153">
        <ele>496.4</ele>
        <time>2023-03-22T09:04:50Z</time>
      </trkpt>
      <trkpt lat="43.1801" lon="6.01148">
        <ele>495.6</ele>
        <time>2023-03-22T09:04:55Z</time>
      </trkpt>
      <trkpt lat="43.18019" lon="6.01144">
        <ele>495.2</ele>
        <time>2023-03-22T09:05:01Z</time>
      </trkpt>
      <trkpt lat="43.18023" lon="6.01146">
        <ele>494</ele>
        <time>2023-03-22T09:05:03Z</time>
      </trkpt>
      <trkpt lat="43.18026" lon="6.01146">
        <ele>493</ele>
        <time>2023-03-22T09:05:05Z</time>
      </trkpt>
      <trkpt lat="43.1803" lon="6.01146">
        <ele>492</ele>
        <time>2023-03-22T09:05:07Z</time>
      </trkpt>
      <trkpt lat="43.18032" lon="6.01147">
        <ele>491.4</ele>
        <time>2023-03-22T09:05:08Z</time>
      </trkpt>
      <trkpt lat="43.18033" lon="6.01149">
        <ele>490.8</ele>
        <time>2023-03-22T09:05:09Z</time>
      </trkpt>
      <trkpt lat="43.18035" lon="6.01155">
        <ele>489.4</ele>
        <time>2023-03-22T09:05:11Z</time>
      </trkpt>
      <trkpt lat="43.18038" lon="6.01159">
        <ele>488</ele>
        <time>2023-03-22T09:05:13Z</time>
      </trkpt>
      <trkpt lat="43.18041" lon="6.0116">
        <ele>487</ele>
        <time>2023-03-22T09:05:15Z</time>
      </trkpt>
      <trkpt lat="43.18043" lon="6.01156">
        <ele>485.6</ele>
        <time>2023-03-22T09:05:17Z</time>
      </trkpt>
      <trkpt lat="43.18047" lon="6.01151">
        <ele>484.4</ele>
        <time>2023-03-22T09:05:19Z</time>
      </trkpt>
      <trkpt lat="43.18052" lon="6.01149">
        <ele>483.6</ele>
        <time>2023-03-22T09:05:21Z</time>
      </trkpt>
      <trkpt lat="43.18054" lon="6.01149">
        <ele>482.8</ele>
        <time>2023-03-22T09:05:22Z</time>
      </trkpt>
      <trkpt lat="43.18058" lon="6.01145">
        <ele>481.6</ele>
        <time>2023-03-22T09:05:25Z</time>
      </trkpt>
      <trkpt lat="43.18063" lon="6.01141">
        <ele>480.6</ele>
        <time>2023-03-22T09:05:28Z</time>
      </trkpt>
      <trkpt lat="43.18068" lon="6.0114">
        <ele>479.4</ele>
        <time>2023-03-22T09:05:30Z</time>
      </trkpt>
      <trkpt lat="43.18071" lon="6.01136">
        <ele>477.8</ele>
        <time>2023-03-22T09:05:32Z</time>
      </trkpt>
      <trkpt lat="43.18074" lon="6.01133">
        <ele>476.6</ele>
        <time>2023-03-22T09:05:34Z</time>
      </trkpt>
      <trkpt lat="43.18077" lon="6.01134">
        <ele>475.2</ele>
        <time>2023-03-22T09:05:36Z</time>
      </trkpt>
      <trkpt lat="43.18079" lon="6.01136">
        <ele>473.4</ele>
        <time>2023-03-22T09:05:38Z</time>
      </trkpt>
      <trkpt lat="43.1808" lon="6.01135">
        <ele>472</ele>
        <time>2023-03-22T09:05:40Z</time>
      </trkpt>
      <trkpt lat="43.18083" lon="6.01133">
        <ele>470.2</ele>
        <time>2023-03-22T09:05:42Z</time>
      </trkpt>
      <trkpt lat="43.18085" lon="6.01134">
        <ele>469.2</ele>
        <time>2023-03-22T09:05:44Z</time>
      </trkpt>
      <trkpt lat="43.18088" lon="6.01133">
        <ele>467.8</ele>
        <time>2023-03-22T09:05:47Z</time>
      </trkpt>
      <trkpt lat="43.18089" lon="6.01131">
        <ele>466.4</ele>
        <time>2023-03-22T09:05:50Z</time>
      </trkpt>
      <trkpt lat="43.18093" lon="6.01126">
        <ele>464.6</ele>
        <time>2023-03-22T09:05:53Z</time>
      </trkpt>
      <trkpt lat="43.18097" lon="6.01119">
        <ele>463.4</ele>
        <time>2023-03-22T09:05:56Z</time>
      </trkpt>
      <trkpt lat="43.18098" lon="6.01113">
        <ele>462.8</ele>
        <time>2023-03-22T09:05:59Z</time>
      </trkpt>
      <trkpt lat="43.18098" lon="6.01111">
        <ele>462.4</ele>
        <time>2023-03-22T09:06:00Z</time>
      </trkpt>
      <trkpt lat="43.18099" lon="6.0111">
        <ele>461.4</ele>
        <time>2023-03-22T09:06:02Z</time>
      </trkpt>
      <trkpt lat="43.18103" lon="6.01113">
        <ele>459.8</ele>
        <time>2023-03-22T09:06:04Z</time>
      </trkpt>
      <trkpt lat="43.18104" lon="6.01116">
        <ele>458.2</ele>
        <time>2023-03-22T09:06:05Z</time>
      </trkpt>
      <trkpt lat="43.18106" lon="6.01122">
        <ele>457.8</ele>
        <time>2023-03-22T09:06:07Z</time>
      </trkpt>
      <trkpt lat="43.18105" lon="6.01128">
        <ele>457</ele>
        <time>2023-03-22T09:06:09Z</time>
      </trkpt>
      <trkpt lat="43.18105" lon="6.01132">
        <ele>455.8</ele>
        <time>2023-03-22T09:06:11Z</time>
      </trkpt>
      <trkpt lat="43.18106" lon="6.01136">
        <ele>454.6</ele>
        <time>2023-03-22T09:06:14Z</time>
      </trkpt>
      <trkpt lat="43.18108" lon="6.01136">
        <ele>454</ele>
        <time>2023-03-22T09:06:16Z</time>
      </trkpt>
      <trkpt lat="43.1811" lon="6.01135">
        <ele>453.6</ele>
        <time>2023-03-22T09:06:18Z</time>
      </trkpt>
      <trkpt lat="43.18114" lon="6.01127">
        <ele>452.2</ele>
        <time>2023-03-22T09:06:21Z</time>
      </trkpt>
      <trkpt lat="43.18116" lon="6.0112">
        <ele>451.4</ele>
        <time>2023-03-22T09:06:23Z</time>
      </trkpt>
      <trkpt lat="43.18117" lon="6.01118">
        <ele>450.6</ele>
        <time>2023-03-22T09:06:24Z</time>
      </trkpt>
      <trkpt lat="43.18118" lon="6.01117">
        <ele>449.8</ele>
        <time>2023-03-22T09:06:25Z</time>
      </trkpt>
      <trkpt lat="43.18119" lon="6.01116">
        <ele>448.8</ele>
        <time>2023-03-22T09:06:26Z</time>
      </trkpt>
      <trkpt lat="43.18121" lon="6.01117">
        <ele>448</ele>
        <time>2023-03-22T09:06:27Z</time>
      </trkpt>
      <trkpt lat="43.18122" lon="6.01119">
        <ele>447.6</ele>
        <time>2023-03-22T09:06:28Z</time>
      </trkpt>
      <trkpt lat="43.18124" lon="6.01121">
        <ele>447.4</ele>
        <time>2023-03-22T09:06:29Z</time>
      </trkpt>
      <trkpt lat="43.18129" lon="6.01132">
        <ele>446.4</ele>
        <time>2023-03-22T09:06:33Z</time>
      </trkpt>
      <trkpt lat="43.1813" lon="6.01134">
        <ele>445.6</ele>
        <time>2023-03-22T09:06:34Z</time>
      </trkpt>
      <trkpt lat="43.1813" lon="6.01137">
        <ele>444.4</ele>
        <time>2023-03-22T09:06:35Z</time>
      </trkpt>
      <trkpt lat="43.18131" lon="6.01141">
        <ele>442.6</ele>
        <time>2023-03-22T09:06:37Z</time>
      </trkpt>
      <trkpt lat="43.18132" lon="6.01142">
        <ele>441</ele>
        <time>2023-03-22T09:06:38Z</time>
      </trkpt>
      <trkpt lat="43.18134" lon="6.01145">
        <ele>439.2</ele>
        <time>2023-03-22T09:06:40Z</time>
      </trkpt>
      <trkpt lat="43.18136" lon="6.01144">
        <ele>437.6</ele>
        <time>2023-03-22T09:06:42Z</time>
      </trkpt>
      <trkpt lat="43.18138" lon="6.01145">
        <ele>436.2</ele>
        <time>2023-03-22T09:06:44Z</time>
      </trkpt>
      <trkpt lat="43.18143" lon="6.01146">
        <ele>434.8</ele>
        <time>2023-03-22T09:06:46Z</time>
      </trkpt>
      <trkpt lat="43.18149" lon="6.01145">
        <ele>433.4</ele>
        <time>2023-03-22T09:06:48Z</time>
      </trkpt>
      <trkpt lat="43.18156" lon="6.0114">
        <ele>432.2</ele>
        <time>2023-03-22T09:06:50Z</time>
      </trkpt>
      <trkpt lat="43.18161" lon="6.01133">
        <ele>431.2</ele>
        <time>2023-03-22T09:06:52Z</time>
      </trkpt>
      <trkpt lat="43.18163" lon="6.0113">
        <ele>430</ele>
        <time>2023-03-22T09:06:53Z</time>
      </trkpt>
      <trkpt lat="43.18164" lon="6.01128">
        <ele>428.8</ele>
        <time>2023-03-22T09:06:54Z</time>
      </trkpt>
      <trkpt lat="43.18167" lon="6.01127">
        <ele>427.4</ele>
        <time>2023-03-22T09:06:55Z</time>
      </trkpt>
      <trkpt lat="43.18169" lon="6.01126">
        <ele>426.2</ele>
        <time>2023-03-22T09:06:56Z</time>
      </trkpt>
      <trkpt lat="43.18173" lon="6.01125">
        <ele>424.6</ele>
        <time>2023-03-22T09:06:58Z</time>
      </trkpt>
      <trkpt lat="43.18186" lon="6.01131">
        <ele>423.2</ele>
        <time>2023-03-22T09:07:03Z</time>
      </trkpt>
      <trkpt lat="43.18191" lon="6.01132">
        <ele>421.6</ele>
        <time>2023-03-22T09:07:05Z</time>
      </trkpt>
      <trkpt lat="43.18198" lon="6.01131">
        <ele>419.8</ele>
        <time>2023-03-22T09:07:07Z</time>
      </trkpt>
      <trkpt lat="43.18205" lon="6.01133">
        <ele>418.4</ele>
        <time>2023-03-22T09:07:09Z</time>
      </trkpt>
      <trkpt lat="43.18211" lon="6.01133">
        <ele>415.8</ele>
        <time>2023-03-22T09:07:11Z</time>
      </trkpt>
      <trkpt lat="43.18217" lon="6.01131">
        <ele>414</ele>
        <time>2023-03-22T09:07:13Z</time>
      </trkpt>
      <trkpt lat="43.18222" lon="6.0113">
        <ele>411.8</ele>
        <time>2023-03-22T09:07:15Z</time>
      </trkpt>
      <trkpt lat="43.18227" lon="6.01127">
        <ele>410</ele>
        <time>2023-03-22T09:07:17Z</time>
      </trkpt>
      <trkpt lat="43.18232" lon="6.01127">
        <ele>408.6</ele>
        <time>2023-03-22T09:07:19Z</time>
      </trkpt>
      <trkpt lat="43.18235" lon="6.0113">
        <ele>407.6</ele>
        <time>2023-03-22T09:07:20Z</time>
      </trkpt>
      <trkpt lat="43.18241" lon="6.01134">
        <ele>406.2</ele>
        <time>2023-03-22T09:07:22Z</time>
      </trkpt>
      <trkpt lat="43.18245" lon="6.01133">
        <ele>404.6</ele>
        <time>2023-03-22T09:07:24Z</time>
      </trkpt>
      <trkpt lat="43.18251" lon="6.01131">
        <ele>403</ele>
        <time>2023-03-22T09:07:26Z</time>
      </trkpt>
      <trkpt lat="43.18257" lon="6.01132">
        <ele>401.4</ele>
        <time>2023-03-22T09:07:28Z</time>
      </trkpt>
      <trkpt lat="43.18263" lon="6.01132">
        <ele>400</ele>
        <time>2023-03-22T09:07:30Z</time>
      </trkpt>
      <trkpt lat="43.18272" lon="6.01132">
        <ele>398.6</ele>
        <time>2023-03-22T09:07:33Z</time>
      </trkpt>
      <trkpt lat="43.18277" lon="6.01129">
        <ele>396.2</ele>
        <time>2023-03-22T09:07:35Z</time>
      </trkpt>
      <trkpt lat="43.18278" lon="6.01127">
        <ele>395.2</ele>
        <time>2023-03-22T09:07:36Z</time>
      </trkpt>
      <trkpt lat="43.18281" lon="6.01126">
        <ele>394.4</ele>
        <time>2023-03-22T09:07:37Z</time>
      </trkpt>
      <trkpt lat="43.18283" lon="6.01126">
        <ele>393.8</ele>
        <time>2023-03-22T09:07:38Z</time>
      </trkpt>
      <trkpt lat="43.18289" lon="6.01128">
        <ele>392.2</ele>
        <time>2023-03-22T09:07:40Z</time>
      </trkpt>
      <trkpt lat="43.18294" lon="6.0113">
        <ele>390.4</ele>
        <time>2023-03-22T09:07:42Z</time>
      </trkpt>
      <trkpt lat="43.18301" lon="6.01131">
        <ele>389</ele>
        <time>2023-03-22T09:07:44Z</time>
      </trkpt>
      <trkpt lat="43.18308" lon="6.01128">
        <ele>387.6</ele>
        <time>2023-03-22T09:07:46Z</time>
      </trkpt>
      <trkpt lat="43.18316" lon="6.01124">
        <ele>386.4</ele>
        <time>2023-03-22T09:07:48Z</time>
      </trkpt>
      <trkpt lat="43.18319" lon="6.01122">
        <ele>385.8</ele>
        <time>2023-03-22T09:07:49Z</time>
      </trkpt>
      <trkpt lat="43.18323" lon="6.0112">
        <ele>385</ele>
        <time>2023-03-22T09:07:50Z</time>
      </trkpt>
      <trkpt lat="43.18328" lon="6.0112">
        <ele>383</ele>
        <time>2023-03-22T09:07:52Z</time>
      </trkpt>
      <trkpt lat="43.1833" lon="6.01121">
        <ele>382</ele>
        <time>2023-03-22T09:07:53Z</time>
      </trkpt>
      <trkpt lat="43.18333" lon="6.01122">
        <ele>381</ele>
        <time>2023-03-22T09:07:54Z</time>
      </trkpt>
      <trkpt lat="43.18339" lon="6.01124">
        <ele>379.2</ele>
        <time>2023-03-22T09:07:56Z</time>
      </trkpt>
      <trkpt lat="43.18343" lon="6.01121">
        <ele>378</ele>
        <time>2023-03-22T09:07:58Z</time>
      </trkpt>
      <trkpt lat="43.18347" lon="6.01114">
        <ele>376.4</ele>
        <time>2023-03-22T09:08:01Z</time>
      </trkpt>
      <trkpt lat="43.18352" lon="6.01111">
        <ele>374.6</ele>
        <time>2023-03-22T09:08:03Z</time>
      </trkpt>
      <trkpt lat="43.18355" lon="6.01108">
        <ele>373.6</ele>
        <time>2023-03-22T09:08:04Z</time>
      </trkpt>
      <trkpt lat="43.18362" lon="6.01103">
        <ele>372.2</ele>
        <time>2023-03-22T09:08:06Z</time>
      </trkpt>
      <trkpt lat="43.18367" lon="6.01096">
        <ele>371.4</ele>
        <time>2023-03-22T09:08:08Z</time>
      </trkpt>
      <trkpt lat="43.18371" lon="6.01093">
        <ele>370.6</ele>
        <time>2023-03-22T09:08:09Z</time>
      </trkpt>
      <trkpt lat="43.18373" lon="6.0109">
        <ele>370.2</ele>
        <time>2023-03-22T09:08:10Z</time>
      </trkpt>
      <trkpt lat="43.18377" lon="6.01088">
        <ele>369.4</ele>
        <time>2023-03-22T09:08:11Z</time>
      </trkpt>
      <trkpt lat="43.18384" lon="6.01084">
        <ele>367.8</ele>
        <time>2023-03-22T09:08:13Z</time>
      </trkpt>
      <trkpt lat="43.18391" lon="6.01079">
        <ele>366.4</ele>
        <time>2023-03-22T09:08:15Z</time>
      </trkpt>
      <trkpt lat="43.18398" lon="6.01078">
        <ele>364</ele>
        <time>2023-03-22T09:08:17Z</time>
      </trkpt>
      <trkpt lat="43.18402" lon="6.01078">
        <ele>362.4</ele>
        <time>2023-03-22T09:08:19Z</time>
      </trkpt>
      <trkpt lat="43.18407" lon="6.01074">
        <ele>360.8</ele>
        <time>2023-03-22T09:08:21Z</time>
      </trkpt>
      <trkpt lat="43.18415" lon="6.01071">
        <ele>359</ele>
        <time>2023-03-22T09:08:23Z</time>
      </trkpt>
      <trkpt lat="43.18422" lon="6.01068">
        <ele>358.4</ele>
        <time>2023-03-22T09:08:25Z</time>
      </trkpt>
      <trkpt lat="43.18425" lon="6.01066">
        <ele>358</ele>
        <time>2023-03-22T09:08:26Z</time>
      </trkpt>
      <trkpt lat="43.18435" lon="6.01059">
        <ele>356</ele>
        <time>2023-03-22T09:08:29Z</time>
      </trkpt>
      <trkpt lat="43.18439" lon="6.01057">
        <ele>355</ele>
        <time>2023-03-22T09:08:30Z</time>
      </trkpt>
      <trkpt lat="43.18442" lon="6.01054">
        <ele>354</ele>
        <time>2023-03-22T09:08:31Z</time>
      </trkpt>
      <trkpt lat="43.18445" lon="6.01051">
        <ele>353.6</ele>
        <time>2023-03-22T09:08:32Z</time>
      </trkpt>
      <trkpt lat="43.18448" lon="6.01047">
        <ele>352.8</ele>
        <time>2023-03-22T09:08:33Z</time>
      </trkpt>
      <trkpt lat="43.18451" lon="6.01044">
        <ele>352</ele>
        <time>2023-03-22T09:08:34Z</time>
      </trkpt>
      <trkpt lat="43.18455" lon="6.01041">
        <ele>351.2</ele>
        <time>2023-03-22T09:08:35Z</time>
      </trkpt>
      <trkpt lat="43.18463" lon="6.01037">
        <ele>349.4</ele>
        <time>2023-03-22T09:08:37Z</time>
      </trkpt>
      <trkpt lat="43.1847" lon="6.01035">
        <ele>347.8</ele>
        <time>2023-03-22T09:08:39Z</time>
      </trkpt>
      <trkpt lat="43.18479" lon="6.01034">
        <ele>346</ele>
        <time>2023-03-22T09:08:41Z</time>
      </trkpt>
      <trkpt lat="43.18482" lon="6.01033">
        <ele>345.2</ele>
        <time>2023-03-22T09:08:42Z</time>
      </trkpt>
      <trkpt lat="43.18485" lon="6.01031">
        <ele>344.2</ele>
        <time>2023-03-22T09:08:43Z</time>
      </trkpt>
      <trkpt lat="43.18488" lon="6.01028">
        <ele>343</ele>
        <time>2023-03-22T09:08:44Z</time>
      </trkpt>
      <trkpt lat="43.1849" lon="6.01019">
        <ele>342</ele>
        <time>2023-03-22T09:08:46Z</time>
      </trkpt>
      <trkpt lat="43.18489" lon="6.0101">
        <ele>340.4</ele>
        <time>2023-03-22T09:08:48Z</time>
      </trkpt>
      <trkpt lat="43.1849" lon="6.01004">
        <ele>338.6</ele>
        <time>2023-03-22T09:08:50Z</time>
      </trkpt>
      <trkpt lat="43.18492" lon="6.01001">
        <ele>336.8</ele>
        <time>2023-03-22T09:08:51Z</time>
      </trkpt>
      <trkpt lat="43.18496" lon="6.00997">
        <ele>335.4</ele>
        <time>2023-03-22T09:08:53Z</time>
      </trkpt>
      <trkpt lat="43.18498" lon="6.00995">
        <ele>333.6</ele>
        <time>2023-03-22T09:08:55Z</time>
      </trkpt>
      <trkpt lat="43.185" lon="6.00994">
        <ele>332.6</ele>
        <time>2023-03-22T09:08:57Z</time>
      </trkpt>
      <trkpt lat="43.18502" lon="6.00995">
        <ele>331.6</ele>
        <time>2023-03-22T09:08:58Z</time>
      </trkpt>
      <trkpt lat="43.18503" lon="6.00996">
        <ele>330.4</ele>
        <time>2023-03-22T09:08:59Z</time>
      </trkpt>
      <trkpt lat="43.18506" lon="6.00995">
        <ele>329.4</ele>
        <time>2023-03-22T09:09:01Z</time>
      </trkpt>
      <trkpt lat="43.1851" lon="6.00989">
        <ele>328.2</ele>
        <time>2023-03-22T09:09:04Z</time>
      </trkpt>
      <trkpt lat="43.18511" lon="6.00986">
        <ele>327.8</ele>
        <time>2023-03-22T09:09:05Z</time>
      </trkpt>
      <trkpt lat="43.18513" lon="6.00983">
        <ele>327.4</ele>
        <time>2023-03-22T09:09:06Z</time>
      </trkpt>
      <trkpt lat="43.18518" lon="6.00977">
        <ele>327</ele>
        <time>2023-03-22T09:09:08Z</time>
      </trkpt>
      <trkpt lat="43.18522" lon="6.00974">
        <ele>326</ele>
        <time>2023-03-22T09:09:10Z</time>
      </trkpt>
      <trkpt lat="43.18525" lon="6.00973">
        <ele>325</ele>
        <time>2023-03-22T09:09:11Z</time>
      </trkpt>
      <trkpt lat="43.18527" lon="6.00972">
        <ele>324</ele>
        <time>2023-03-22T09:09:12Z</time>
      </trkpt>
      <trkpt lat="43.18529" lon="6.00971">
        <ele>323</ele>
        <time>2023-03-22T09:09:13Z</time>
      </trkpt>
      <trkpt lat="43.18532" lon="6.00966">
        <ele>321.4</ele>
        <time>2023-03-22T09:09:15Z</time>
      </trkpt>
      <trkpt lat="43.18535" lon="6.0096">
        <ele>319.4</ele>
        <time>2023-03-22T09:09:17Z</time>
      </trkpt>
      <trkpt lat="43.18539" lon="6.00955">
        <ele>317.4</ele>
        <time>2023-03-22T09:09:19Z</time>
      </trkpt>
      <trkpt lat="43.18542" lon="6.00954">
        <ele>316.6</ele>
        <time>2023-03-22T09:09:20Z</time>
      </trkpt>
      <trkpt lat="43.18544" lon="6.00954">
        <ele>315.8</ele>
        <time>2023-03-22T09:09:21Z</time>
      </trkpt>
      <trkpt lat="43.18549" lon="6.00954">
        <ele>314</ele>
        <time>2023-03-22T09:09:23Z</time>
      </trkpt>
      <trkpt lat="43.18552" lon="6.00954">
        <ele>312.2</ele>
        <time>2023-03-22T09:09:24Z</time>
      </trkpt>
      <trkpt lat="43.18556" lon="6.00953">
        <ele>311.2</ele>
        <time>2023-03-22T09:09:25Z</time>
      </trkpt>
      <trkpt lat="43.18559" lon="6.00953">
        <ele>310.4</ele>
        <time>2023-03-22T09:09:26Z</time>
      </trkpt>
      <trkpt lat="43.18568" lon="6.00954">
        <ele>308.6</ele>
        <time>2023-03-22T09:09:28Z</time>
      </trkpt>
      <trkpt lat="43.18578" lon="6.00955">
        <ele>307.4</ele>
        <time>2023-03-22T09:09:30Z</time>
      </trkpt>
      <trkpt lat="43.18587" lon="6.00955">
        <ele>305.4</ele>
        <time>2023-03-22T09:09:32Z</time>
      </trkpt>
      <trkpt lat="43.18591" lon="6.00956">
        <ele>304.2</ele>
        <time>2023-03-22T09:09:33Z</time>
      </trkpt>
      <trkpt lat="43.18594" lon="6.00956">
        <ele>303</ele>
        <time>2023-03-22T09:09:34Z</time>
      </trkpt>
      <trkpt lat="43.18597" lon="6.00955">
        <ele>301.6</ele>
        <time>2023-03-22T09:09:35Z</time>
      </trkpt>
      <trkpt lat="43.186" lon="6.00954">
        <ele>300.4</ele>
        <time>2023-03-22T09:09:36Z</time>
      </trkpt>
      <trkpt lat="43.18603" lon="6.00953">
        <ele>299.2</ele>
        <time>2023-03-22T09:09:37Z</time>
      </trkpt>
      <trkpt lat="43.18606" lon="6.00953">
        <ele>298</ele>
        <time>2023-03-22T09:09:38Z</time>
      </trkpt>
      <trkpt lat="43.18612" lon="6.00954">
        <ele>296</ele>
        <time>2023-03-22T09:09:40Z</time>
      </trkpt>
      <trkpt lat="43.18615" lon="6.0095">
        <ele>294.8</ele>
        <time>2023-03-22T09:09:42Z</time>
      </trkpt>
      <trkpt lat="43.18616" lon="6.00945">
        <ele>293.4</ele>
        <time>2023-03-22T09:09:44Z</time>
      </trkpt>
      <trkpt lat="43.18615" lon="6.00941">
        <ele>292.2</ele>
        <time>2023-03-22T09:09:45Z</time>
      </trkpt>
      <trkpt lat="43.18615" lon="6.00935">
        <ele>290.8</ele>
        <time>2023-03-22T09:09:47Z</time>
      </trkpt>
      <trkpt lat="43.18615" lon="6.00928">
        <ele>289</ele>
        <time>2023-03-22T09:09:49Z</time>
      </trkpt>
      <trkpt lat="43.18614" lon="6.00921">
        <ele>287.4</ele>
        <time>2023-03-22T09:09:51Z</time>
      </trkpt>
      <trkpt lat="43.18612" lon="6.00914">
        <ele>286</ele>
        <time>2023-03-22T09:09:53Z</time>
      </trkpt>
      <trkpt lat="43.18612" lon="6.00908">
        <ele>284.4</ele>
        <time>2023-03-22T09:09:55Z</time>
      </trkpt>
      <trkpt lat="43.18611" lon="6.00906">
        <ele>283.8</ele>
        <time>2023-03-22T09:09:56Z</time>
      </trkpt>
      <trkpt lat="43.18611" lon="6.00904">
        <ele>282.4</ele>
        <time>2023-03-22T09:09:57Z</time>
      </trkpt>
      <trkpt lat="43.1861" lon="6.00899">
        <ele>280.2</ele>
        <time>2023-03-22T09:09:59Z</time>
      </trkpt>
      <trkpt lat="43.18609" lon="6.00893">
        <ele>278.4</ele>
        <time>2023-03-22T09:10:01Z</time>
      </trkpt>
      <trkpt lat="43.18609" lon="6.00887">
        <ele>277</ele>
        <time>2023-03-22T09:10:03Z</time>
      </trkpt>
      <trkpt lat="43.18607" lon="6.00879">
        <ele>276</ele>
        <time>2023-03-22T09:10:05Z</time>
      </trkpt>
      <trkpt lat="43.18607" lon="6.00874">
        <ele>275.2</ele>
        <time>2023-03-22T09:10:06Z</time>
      </trkpt>
      <trkpt lat="43.18606" lon="6.0087">
        <ele>274.4</ele>
        <time>2023-03-22T09:10:07Z</time>
      </trkpt>
      <trkpt lat="43.18604" lon="6.00861">
        <ele>272.6</ele>
        <time>2023-03-22T09:10:09Z</time>
      </trkpt>
      <trkpt lat="43.18603" lon="6.00856">
        <ele>271.4</ele>
        <time>2023-03-22T09:10:10Z</time>
      </trkpt>
      <trkpt lat="43.18602" lon="6.00852">
        <ele>270.2</ele>
        <time>2023-03-22T09:10:11Z</time>
      </trkpt>
      <trkpt lat="43.186" lon="6.00847">
        <ele>269</ele>
        <time>2023-03-22T09:10:12Z</time>
      </trkpt>
      <trkpt lat="43.18598" lon="6.00843">
        <ele>268</ele>
        <time>2023-03-22T09:10:13Z</time>
      </trkpt>
      <trkpt lat="43.18596" lon="6.00839">
        <ele>267</ele>
        <time>2023-03-22T09:10:14Z</time>
      </trkpt>
      <trkpt lat="43.18594" lon="6.00835">
        <ele>266</ele>
        <time>2023-03-22T09:10:15Z</time>
      </trkpt>
      <trkpt lat="43.18591" lon="6.00831">
        <ele>265</ele>
        <time>2023-03-22T09:10:16Z</time>
      </trkpt>
      <trkpt lat="43.18589" lon="6.00827">
        <ele>264</ele>
        <time>2023-03-22T09:10:17Z</time>
      </trkpt>
      <trkpt lat="43.18585" lon="6.00816">
        <ele>262</ele>
        <time>2023-03-22T09:10:19Z</time>
      </trkpt>
      <trkpt lat="43.18584" lon="6.00811">
        <ele>261</ele>
        <time>2023-03-22T09:10:20Z</time>
      </trkpt>
      <trkpt lat="43.18582" lon="6.00806">
        <ele>260.6</ele>
        <time>2023-03-22T09:10:21Z</time>
      </trkpt>
      <trkpt lat="43.1858" lon="6.00799">
        <ele>259.4</ele>
        <time>2023-03-22T09:10:25Z</time>
      </trkpt>
      <trkpt lat="43.18581" lon="6.00797">
        <ele>257.8</ele>
        <time>2023-03-22T09:10:27Z</time>
      </trkpt>
      <trkpt lat="43.18582" lon="6.00795">
        <ele>256.4</ele>
        <time>2023-03-22T09:10:29Z</time>
      </trkpt>
      <trkpt lat="43.18581" lon="6.0079">
        <ele>255.4</ele>
        <time>2023-03-22T09:10:34Z</time>
      </trkpt>
      <trkpt lat="43.18581" lon="6.00785">
        <ele>255.4</ele>
        <time>2023-03-22T09:10:37Z</time>
      </trkpt>
      <trkpt lat="43.18583" lon="6.00764">
        <ele>254.4</ele>
        <time>2023-03-22T09:10:45Z</time>
      </trkpt>
      <trkpt lat="43.18584" lon="6.00761">
        <ele>253.6</ele>
        <time>2023-03-22T09:10:46Z</time>
      </trkpt>
      <trkpt lat="43.18585" lon="6.0076">
        <ele>253.2</ele>
        <time>2023-03-22T09:10:47Z</time>
      </trkpt>
      <trkpt lat="43.18588" lon="6.00757">
        <ele>252.2</ele>
        <time>2023-03-22T09:10:50Z</time>
      </trkpt>
      <trkpt lat="43.18588" lon="6.00752">
        <ele>251</ele>
        <time>2023-03-22T09:10:52Z</time>
      </trkpt>
      <trkpt lat="43.18587" lon="6.00743">
        <ele>249.8</ele>
        <time>2023-03-22T09:10:55Z</time>
      </trkpt>
      <trkpt lat="43.18587" lon="6.0074">
        <ele>249.4</ele>
        <time>2023-03-22T09:10:56Z</time>
      </trkpt>
      <trkpt lat="43.18587" lon="6.00733">
        <ele>248.4</ele>
        <time>2023-03-22T09:10:58Z</time>
      </trkpt>
      <trkpt lat="43.18589" lon="6.00731">
        <ele>247.8</ele>
        <time>2023-03-22T09:10:59Z</time>
      </trkpt>
      <trkpt lat="43.1859" lon="6.0073">
        <ele>247.4</ele>
        <time>2023-03-22T09:11:00Z</time>
      </trkpt>
      <trkpt lat="43.18596" lon="6.00729">
        <ele>245.6</ele>
        <time>2023-03-22T09:11:04Z</time>
      </trkpt>
      <trkpt lat="43.18599" lon="6.0073">
        <ele>244.2</ele>
        <time>2023-03-22T09:11:06Z</time>
      </trkpt>
      <trkpt lat="43.18602" lon="6.00735">
        <ele>243</ele>
        <time>2023-03-22T09:11:08Z</time>
      </trkpt>
      <trkpt lat="43.18605" lon="6.0074">
        <ele>242</ele>
        <time>2023-03-22T09:11:10Z</time>
      </trkpt>
      <trkpt lat="43.18616" lon="6.0074">
        <ele>240.8</ele>
        <time>2023-03-22T09:11:14Z</time>
      </trkpt>
      <trkpt lat="43.18618" lon="6.00738">
        <ele>240.2</ele>
        <time>2023-03-22T09:11:15Z</time>
      </trkpt>
      <trkpt lat="43.1862" lon="6.00738">
        <ele>239.8</ele>
        <time>2023-03-22T09:11:16Z</time>
      </trkpt>
      <trkpt lat="43.18622" lon="6.00737">
        <ele>239.4</ele>
        <time>2023-03-22T09:11:17Z</time>
      </trkpt>
      <trkpt lat="43.18625" lon="6.00737">
        <ele>239</ele>
        <time>2023-03-22T09:11:18Z</time>
      </trkpt>
      <trkpt lat="43.18633" lon="6.00742">
        <ele>238.2</ele>
        <time>2023-03-22T09:11:20Z</time>
      </trkpt>
      <trkpt lat="43.18639" lon="6.00753">
        <ele>237</ele>
        <time>2023-03-22T09:11:23Z</time>
      </trkpt>
      <trkpt lat="43.18641" lon="6.00758">
        <ele>235.8</ele>
        <time>2023-03-22T09:11:25Z</time>
      </trkpt>
      <trkpt lat="43.18643" lon="6.00759">
        <ele>234.6</ele>
        <time>2023-03-22T09:11:26Z</time>
      </trkpt>
      <trkpt lat="43.18645" lon="6.00761">
        <ele>234</ele>
        <time>2023-03-22T09:11:27Z</time>
      </trkpt>
      <trkpt lat="43.18648" lon="6.00766">
        <ele>233.2</ele>
        <time>2023-03-22T09:11:29Z</time>
      </trkpt>
      <trkpt lat="43.18684" lon="6.00809">
        <ele>233</ele>
        <time>2023-03-22T09:11:46Z</time>
      </trkpt>
      <trkpt lat="43.18728" lon="6.00848">
        <ele>233.8</ele>
        <time>2023-03-22T09:12:03Z</time>
      </trkpt>
      <trkpt lat="43.18731" lon="6.00851">
        <ele>234.2</ele>
        <time>2023-03-22T09:12:04Z</time>
      </trkpt>
      <trkpt lat="43.18756" lon="6.00874">
        <ele>234.4</ele>
        <time>2023-03-22T09:12:12Z</time>
      </trkpt>
      <trkpt lat="43.18761" lon="6.00882">
        <ele>234.6</ele>
        <time>2023-03-22T09:12:14Z</time>
      </trkpt>
      <trkpt lat="43.18768" lon="6.00901">
        <ele>234.6</ele>
        <time>2023-03-22T09:12:18Z</time>
      </trkpt>
      <trkpt lat="43.18766" lon="6.00924">
        <ele>234.6</ele>
        <time>2023-03-22T09:12:22Z</time>
      </trkpt>
      <trkpt lat="43.18756" lon="6.00965">
        <ele>234.8</ele>
        <time>2023-03-22T09:12:30Z</time>
      </trkpt>
      <trkpt lat="43.18755" lon="6.0097">
        <ele>235</ele>
        <time>2023-03-22T09:12:31Z</time>
      </trkpt>
      <trkpt lat="43.18735" lon="6.01014">
        <ele>236</ele>
        <time>2023-03-22T09:12:41Z</time>
      </trkpt>
      <trkpt lat="43.18708" lon="6.01068">
        <ele>237</ele>
        <time>2023-03-22T09:12:54Z</time>
      </trkpt>
      <trkpt lat="43.18672" lon="6.01122">
        <ele>238</ele>
        <time>2023-03-22T09:13:08Z</time>
      </trkpt>
      <trkpt lat="43.18669" lon="6.01125">
        <ele>238.2</ele>
        <time>2023-03-22T09:13:09Z</time>
      </trkpt>
      <trkpt lat="43.18642" lon="6.01184">
        <ele>238.8</ele>
        <time>2023-03-22T09:13:23Z</time>
      </trkpt>
      <trkpt lat="43.18631" lon="6.01209">
        <ele>239.2</ele>
        <time>2023-03-22T09:13:29Z</time>
      </trkpt>
      <trkpt lat="43.1861" lon="6.01234">
        <ele>240.4</ele>
        <time>2023-03-22T09:13:38Z</time>
      </trkpt>
      <trkpt lat="43.18594" lon="6.01242">
        <ele>241.4</ele>
        <time>2023-03-22T09:13:43Z</time>
      </trkpt>
      <trkpt lat="43.18579" lon="6.01258">
        <ele>242.6</ele>
        <time>2023-03-22T09:13:49Z</time>
      </trkpt>
      <trkpt lat="43.18564" lon="6.01296">
        <ele>243.4</ele>
        <time>2023-03-22T09:13:59Z</time>
      </trkpt>
      <trkpt lat="43.18582" lon="6.01346">
        <ele>244.4</ele>
        <time>2023-03-22T09:14:10Z</time>
      </trkpt>
      <trkpt lat="43.18584" lon="6.01349">
        <ele>244.4</ele>
        <time>2023-03-22T09:14:11Z</time>
      </trkpt>
      <trkpt lat="43.18604" lon="6.01353">
        <ele>244.8</ele>
        <time>2023-03-22T09:14:17Z</time>
      </trkpt>
      <trkpt lat="43.18638" lon="6.01344">
        <ele>245</ele>
        <time>2023-03-22T09:14:26Z</time>
      </trkpt>
      <trkpt lat="43.1866" lon="6.01344">
        <ele>245.2</ele>
        <time>2023-03-22T09:14:32Z</time>
      </trkpt>
      <trkpt lat="43.18712" lon="6.01349">
        <ele>246.2</ele>
        <time>2023-03-22T09:14:48Z</time>
      </trkpt>
      <trkpt lat="43.18716" lon="6.01348">
        <ele>246.4</ele>
        <time>2023-03-22T09:14:49Z</time>
      </trkpt>
      <trkpt lat="43.18732" lon="6.01337">
        <ele>247.2</ele>
        <time>2023-03-22T09:14:55Z</time>
      </trkpt>
      <trkpt lat="43.18746" lon="6.01329">
        <ele>248</ele>
        <time>2023-03-22T09:15:01Z</time>
      </trkpt>
      <trkpt lat="43.18774" lon="6.01323">
        <ele>249</ele>
        <time>2023-03-22T09:15:10Z</time>
      </trkpt>
      <trkpt lat="43.18803" lon="6.01315">
        <ele>250</ele>
        <time>2023-03-22T09:15:19Z</time>
      </trkpt>
      <trkpt lat="43.18834" lon="6.01303">
        <ele>250.8</ele>
        <time>2023-03-22T09:15:28Z</time>
      </trkpt>
      <trkpt lat="43.1885" lon="6.01345">
        <ele>252</ele>
        <time>2023-03-22T09:15:39Z</time>
      </trkpt>
      <trkpt lat="43.18824" lon="6.0139">
        <ele>252.6</ele>
        <time>2023-03-22T09:15:51Z</time>
      </trkpt>
      <trkpt lat="43.18819" lon="6.01397">
        <ele>252.8</ele>
        <time>2023-03-22T09:15:53Z</time>
      </trkpt>
      <trkpt lat="43.18795" lon="6.01428">
        <ele>253.8</ele>
        <time>2023-03-22T09:16:02Z</time>
      </trkpt>
      <trkpt lat="43.18768" lon="6.01461">
        <ele>255</ele>
        <time>2023-03-22T09:16:12Z</time>
      </trkpt>
      <trkpt lat="43.18744" lon="6.01479">
        <ele>256</ele>
        <time>2023-03-22T09:16:19Z</time>
      </trkpt>
      <trkpt lat="43.1871" lon="6.0152">
        <ele>256.8</ele>
        <time>2023-03-22T09:16:31Z</time>
      </trkpt>
      <trkpt lat="43.18706" lon="6.01532">
        <ele>257.4</ele>
        <time>2023-03-22T09:16:34Z</time>
      </trkpt>
      <trkpt lat="43.18699" lon="6.01562">
        <ele>258.4</ele>
        <time>2023-03-22T09:16:41Z</time>
      </trkpt>
      <trkpt lat="43.18697" lon="6.01607">
        <ele>259.6</ele>
        <time>2023-03-22T09:16:50Z</time>
      </trkpt>
      <trkpt lat="43.18702" lon="6.01683">
        <ele>260.4</ele>
        <time>2023-03-22T09:17:05Z</time>
      </trkpt>
      <trkpt lat="43.18712" lon="6.01714">
        <ele>261</ele>
        <time>2023-03-22T09:17:12Z</time>
      </trkpt>
      <trkpt lat="43.18721" lon="6.01751">
        <ele>262</ele>
        <time>2023-03-22T09:17:20Z</time>
      </trkpt>
      <trkpt lat="43.18714" lon="6.01808">
        <ele>263.4</ele>
        <time>2023-03-22T09:17:34Z</time>
      </trkpt>
      <trkpt lat="43.18714" lon="6.01836">
        <ele>264.2</ele>
        <time>2023-03-22T09:17:41Z</time>
      </trkpt>
      <trkpt lat="43.18713" lon="6.0186">
        <ele>265.2</ele>
        <time>2023-03-22T09:17:47Z</time>
      </trkpt>
      <trkpt lat="43.18719" lon="6.01889">
        <ele>266.2</ele>
        <time>2023-03-22T09:17:54Z</time>
      </trkpt>
      <trkpt lat="43.1872" lon="6.01892">
        <ele>266.4</ele>
        <time>2023-03-22T09:17:55Z</time>
      </trkpt>
      <trkpt lat="43.18737" lon="6.01884">
        <ele>266.8</ele>
        <time>2023-03-22T09:18:00Z</time>
      </trkpt>
      <trkpt lat="43.18775" lon="6.01858">
        <ele>266.6</ele>
        <time>2023-03-22T09:18:10Z</time>
      </trkpt>
      <trkpt lat="43.18782" lon="6.01855">
        <ele>266.6</ele>
        <time>2023-03-22T09:18:12Z</time>
      </trkpt>
      <trkpt lat="43.18832" lon="6.01843">
        <ele>267</ele>
        <time>2023-03-22T09:18:26Z</time>
      </trkpt>
      <trkpt lat="43.18835" lon="6.01843">
        <ele>267</ele>
        <time>2023-03-22T09:18:27Z</time>
      </trkpt>
      <trkpt lat="43.18858" lon="6.01847">
        <ele>268.2</ele>
        <time>2023-03-22T09:18:34Z</time>
      </trkpt>
      <trkpt lat="43.1888" lon="6.01854">
        <ele>269.4</ele>
        <time>2023-03-22T09:18:42Z</time>
      </trkpt>
      <trkpt lat="43.18898" lon="6.01865">
        <ele>270.2</ele>
        <time>2023-03-22T09:18:49Z</time>
      </trkpt>
      <trkpt lat="43.18912" lon="6.01896">
        <ele>271.2</ele>
        <time>2023-03-22T09:18:58Z</time>
      </trkpt>
      <trkpt lat="43.18932" lon="6.0192">
        <ele>272.2</ele>
        <time>2023-03-22T09:19:08Z</time>
      </trkpt>
      <trkpt lat="43.18967" lon="6.01919">
        <ele>273.2</ele>
        <time>2023-03-22T09:19:19Z</time>
      </trkpt>
      <trkpt lat="43.19015" lon="6.01889">
        <ele>273.8</ele>
        <time>2023-03-22T09:19:33Z</time>
      </trkpt>
      <trkpt lat="43.19056" lon="6.01858">
        <ele>274.2</ele>
        <time>2023-03-22T09:19:45Z</time>
      </trkpt>
      <trkpt lat="43.1907" lon="6.01852">
        <ele>274.4</ele>
        <time>2023-03-22T09:19:49Z</time>
      </trkpt>
      <trkpt lat="43.19078" lon="6.01851">
        <ele>274.6</ele>
        <time>2023-03-22T09:19:51Z</time>
      </trkpt>
      <trkpt lat="43.19127" lon="6.01878">
        <ele>275.2</ele>
        <time>2023-03-22T09:20:04Z</time>
      </trkpt>
      <trkpt lat="43.19166" lon="6.01927">
        <ele>276</ele>
        <time>2023-03-22T09:20:18Z</time>
      </trkpt>
      <trkpt lat="43.19169" lon="6.0193">
        <ele>276</ele>
        <time>2023-03-22T09:20:19Z</time>
      </trkpt>
      <trkpt lat="43.19202" lon="6.01966">
        <ele>276.8</ele>
        <time>2023-03-22T09:20:29Z</time>
      </trkpt>
      <trkpt lat="43.19207" lon="6.02019">
        <ele>276.4</ele>
        <time>2023-03-22T09:20:36Z</time>
      </trkpt>
      <trkpt lat="43.19206" lon="6.02039">
        <ele>275</ele>
        <time>2023-03-22T09:20:39Z</time>
      </trkpt>
      <trkpt lat="43.19205" lon="6.02048">
        <ele>274</ele>
        <time>2023-03-22T09:20:41Z</time>
      </trkpt>
      <trkpt lat="43.19208" lon="6.0206">
        <ele>272.8</ele>
        <time>2023-03-22T09:20:45Z</time>
      </trkpt>
      <trkpt lat="43.19216" lon="6.02079">
        <ele>272.2</ele>
        <time>2023-03-22T09:20:52Z</time>
      </trkpt>
      <trkpt lat="43.19244" lon="6.021">
        <ele>274.4</ele>
        <time>2023-03-22T09:21:05Z</time>
      </trkpt>
      <trkpt lat="43.19253" lon="6.02106">
        <ele>275.6</ele>
        <time>2023-03-22T09:21:09Z</time>
      </trkpt>
      <trkpt lat="43.19265" lon="6.02114">
        <ele>276.6</ele>
        <time>2023-03-22T09:21:14Z</time>
      </trkpt>
      <trkpt lat="43.19273" lon="6.02119">
        <ele>277.6</ele>
        <time>2023-03-22T09:21:18Z</time>
      </trkpt>
      <trkpt lat="43.19278" lon="6.02124">
        <ele>278.6</ele>
        <time>2023-03-22T09:21:21Z</time>
      </trkpt>
      <trkpt lat="43.19284" lon="6.0213">
        <ele>279.8</ele>
        <time>2023-03-22T09:21:25Z</time>
      </trkpt>
      <trkpt lat="43.19289" lon="6.02136">
        <ele>281</ele>
        <time>2023-03-22T09:21:29Z</time>
      </trkpt>
      <trkpt lat="43.19292" lon="6.02141">
        <ele>282.4</ele>
        <time>2023-03-22T09:21:32Z</time>
      </trkpt>
      <trkpt lat="43.19296" lon="6.02146">
        <ele>283.6</ele>
        <time>2023-03-22T09:21:35Z</time>
      </trkpt>
      <trkpt lat="43.19299" lon="6.02153">
        <ele>284.6</ele>
        <time>2023-03-22T09:21:38Z</time>
      </trkpt>
      <trkpt lat="43.19303" lon="6.0216">
        <ele>285.4</ele>
        <time>2023-03-22T09:21:41Z</time>
      </trkpt>
      <trkpt lat="43.19307" lon="6.02169">
        <ele>286.6</ele>
        <time>2023-03-22T09:21:45Z</time>
      </trkpt>
      <trkpt lat="43.19311" lon="6.0218">
        <ele>287.6</ele>
        <time>2023-03-22T09:21:49Z</time>
      </trkpt>
      <trkpt lat="43.19312" lon="6.02194">
        <ele>288.8</ele>
        <time>2023-03-22T09:21:54Z</time>
      </trkpt>
      <trkpt lat="43.19308" lon="6.0221">
        <ele>289.8</ele>
        <time>2023-03-22T09:22:00Z</time>
      </trkpt>
      <trkpt lat="43.19297" lon="6.0223">
        <ele>290.4</ele>
        <time>2023-03-22T09:22:07Z</time>
      </trkpt>
      <trkpt lat="43.19291" lon="6.02237">
        <ele>290.4</ele>
        <time>2023-03-22T09:22:09Z</time>
      </trkpt>
      <trkpt lat="43.19269" lon="6.02257">
        <ele>289.6</ele>
        <time>2023-03-22T09:22:14Z</time>
      </trkpt>
      <trkpt lat="43.19255" lon="6.02277">
        <ele>287.8</ele>
        <time>2023-03-22T09:22:17Z</time>
      </trkpt>
      <trkpt lat="43.19244" lon="6.02289">
        <ele>286.2</ele>
        <time>2023-03-22T09:22:19Z</time>
      </trkpt>
      <trkpt lat="43.19235" lon="6.02301">
        <ele>284.2</ele>
        <time>2023-03-22T09:22:21Z</time>
      </trkpt>
      <trkpt lat="43.19231" lon="6.02308">
        <ele>283</ele>
        <time>2023-03-22T09:22:22Z</time>
      </trkpt>
      <trkpt lat="43.19228" lon="6.02315">
        <ele>281.8</ele>
        <time>2023-03-22T09:22:23Z</time>
      </trkpt>
      <trkpt lat="43.19223" lon="6.02322">
        <ele>280.4</ele>
        <time>2023-03-22T09:22:24Z</time>
      </trkpt>
      <trkpt lat="43.19218" lon="6.02329">
        <ele>279.4</ele>
        <time>2023-03-22T09:22:25Z</time>
      </trkpt>
      <trkpt lat="43.19207" lon="6.0234">
        <ele>278.2</ele>
        <time>2023-03-22T09:22:27Z</time>
      </trkpt>
      <trkpt lat="43.19188" lon="6.02353">
        <ele>276.8</ele>
        <time>2023-03-22T09:22:30Z</time>
      </trkpt>
      <trkpt lat="43.19176" lon="6.02358">
        <ele>274.8</ele>
        <time>2023-03-22T09:22:32Z</time>
      </trkpt>
      <trkpt lat="43.19165" lon="6.02363">
        <ele>273.4</ele>
        <time>2023-03-22T09:22:34Z</time>
      </trkpt>
      <trkpt lat="43.1916" lon="6.02365">
        <ele>273</ele>
        <time>2023-03-22T09:22:35Z</time>
      </trkpt>
      <trkpt lat="43.19148" lon="6.02366">
        <ele>272.2</ele>
        <time>2023-03-22T09:22:37Z</time>
      </trkpt>
      <trkpt lat="43.19137" lon="6.02363">
        <ele>272</ele>
        <time>2023-03-22T09:22:39Z</time>
      </trkpt>
      <trkpt lat="43.19122" lon="6.02359">
        <ele>271</ele>
        <time>2023-03-22T09:22:42Z</time>
      </trkpt>
      <trkpt lat="43.19088" lon="6.02352">
        <ele>270</ele>
        <time>2023-03-22T09:22:49Z</time>
      </trkpt>
      <trkpt lat="43.19059" lon="6.02342">
        <ele>269.6</ele>
        <time>2023-03-22T09:22:56Z</time>
      </trkpt>
      <trkpt lat="43.19032" lon="6.02355">
        <ele>269.4</ele>
        <time>2023-03-22T09:23:02Z</time>
      </trkpt>
      <trkpt lat="43.19024" lon="6.02358">
        <ele>269.2</ele>
        <time>2023-03-22T09:23:04Z</time>
      </trkpt>
      <trkpt lat="43.19016" lon="6.02359">
        <ele>268.8</ele>
        <time>2023-03-22T09:23:06Z</time>
      </trkpt>
      <trkpt lat="43.18972" lon="6.0236">
        <ele>268.2</ele>
        <time>2023-03-22T09:23:18Z</time>
      </trkpt>
      <trkpt lat="43.18963" lon="6.02363">
        <ele>269.6</ele>
        <time>2023-03-22T09:23:22Z</time>
      </trkpt>
      <trkpt lat="43.1896" lon="6.02363">
        <ele>270.2</ele>
        <time>2023-03-22T09:23:23Z</time>
      </trkpt>
      <trkpt lat="43.18955" lon="6.02365">
        <ele>271.2</ele>
        <time>2023-03-22T09:23:25Z</time>
      </trkpt>
      <trkpt lat="43.18951" lon="6.02368">
        <ele>272.2</ele>
        <time>2023-03-22T09:23:27Z</time>
      </trkpt>
      <trkpt lat="43.18942" lon="6.02373">
        <ele>273.4</ele>
        <time>2023-03-22T09:23:31Z</time>
      </trkpt>
      <trkpt lat="43.18935" lon="6.02377">
        <ele>274.6</ele>
        <time>2023-03-22T09:23:34Z</time>
      </trkpt>
      <trkpt lat="43.18925" lon="6.02379">
        <ele>275.6</ele>
        <time>2023-03-22T09:23:38Z</time>
      </trkpt>
      <trkpt lat="43.18909" lon="6.02379">
        <ele>276.8</ele>
        <time>2023-03-22T09:23:44Z</time>
      </trkpt>
      <trkpt lat="43.18899" lon="6.0238">
        <ele>276.8</ele>
        <time>2023-03-22T09:23:47Z</time>
      </trkpt>
      <trkpt lat="43.18891" lon="6.02383">
        <ele>276.8</ele>
        <time>2023-03-22T09:23:49Z</time>
      </trkpt>
      <trkpt lat="43.18871" lon="6.02398">
        <ele>276.4</ele>
        <time>2023-03-22T09:23:54Z</time>
      </trkpt>
      <trkpt lat="43.18862" lon="6.02403">
        <ele>275.6</ele>
        <time>2023-03-22T09:23:56Z</time>
      </trkpt>
      <trkpt lat="43.18853" lon="6.02405">
        <ele>274.6</ele>
        <time>2023-03-22T09:23:58Z</time>
      </trkpt>
      <trkpt lat="43.18842" lon="6.02405">
        <ele>273.4</ele>
        <time>2023-03-22T09:24:00Z</time>
      </trkpt>
      <trkpt lat="43.18837" lon="6.02407">
        <ele>272.8</ele>
        <time>2023-03-22T09:24:01Z</time>
      </trkpt>
      <trkpt lat="43.18832" lon="6.0241">
        <ele>272</ele>
        <time>2023-03-22T09:24:02Z</time>
      </trkpt>
      <trkpt lat="43.18824" lon="6.02421">
        <ele>270.6</ele>
        <time>2023-03-22T09:24:04Z</time>
      </trkpt>
      <trkpt lat="43.18821" lon="6.02439">
        <ele>268.8</ele>
        <time>2023-03-22T09:24:06Z</time>
      </trkpt>
      <trkpt lat="43.18821" lon="6.02447">
        <ele>267.6</ele>
        <time>2023-03-22T09:24:07Z</time>
      </trkpt>
      <trkpt lat="43.18821" lon="6.02455">
        <ele>266.6</ele>
        <time>2023-03-22T09:24:08Z</time>
      </trkpt>
      <trkpt lat="43.18819" lon="6.02466">
        <ele>264.6</ele>
        <time>2023-03-22T09:24:10Z</time>
      </trkpt>
      <trkpt lat="43.1882" lon="6.02473">
        <ele>263.6</ele>
        <time>2023-03-22T09:24:13Z</time>
      </trkpt>
      <trkpt lat="43.18819" lon="6.02475">
        <ele>263.4</ele>
        <time>2023-03-22T09:24:14Z</time>
      </trkpt>
      <trkpt lat="43.18808" lon="6.02503">
        <ele>263.4</ele>
        <time>2023-03-22T09:24:25Z</time>
      </trkpt>
      <trkpt lat="43.18797" lon="6.02514">
        <ele>264.2</ele>
        <time>2023-03-22T09:24:30Z</time>
      </trkpt>
      <trkpt lat="43.18785" lon="6.02521">
        <ele>264.8</ele>
        <time>2023-03-22T09:24:34Z</time>
      </trkpt>
      <trkpt lat="43.18776" lon="6.02527">
        <ele>266</ele>
        <time>2023-03-22T09:24:37Z</time>
      </trkpt>
      <trkpt lat="43.18765" lon="6.02539">
        <ele>267.2</ele>
        <time>2023-03-22T09:24:41Z</time>
      </trkpt>
      <trkpt lat="43.18748" lon="6.02558">
        <ele>267.8</ele>
        <time>2023-03-22T09:24:47Z</time>
      </trkpt>
      <trkpt lat="43.18735" lon="6.02573">
        <ele>267.8</ele>
        <time>2023-03-22T09:24:51Z</time>
      </trkpt>
      <trkpt lat="43.18708" lon="6.02599">
        <ele>267.6</ele>
        <time>2023-03-22T09:24:59Z</time>
      </trkpt>
      <trkpt lat="43.18703" lon="6.02606">
        <ele>267.6</ele>
        <time>2023-03-22T09:25:01Z</time>
      </trkpt>
      <trkpt lat="43.18692" lon="6.0265">
        <ele>268.2</ele>
        <time>2023-03-22T09:25:10Z</time>
      </trkpt>
      <trkpt lat="43.18689" lon="6.02662">
        <ele>269.2</ele>
        <time>2023-03-22T09:25:13Z</time>
      </trkpt>
      <trkpt lat="43.18688" lon="6.02672">
        <ele>270.4</ele>
        <time>2023-03-22T09:25:16Z</time>
      </trkpt>
      <trkpt lat="43.18685" lon="6.02684">
        <ele>271.4</ele>
        <time>2023-03-22T09:25:20Z</time>
      </trkpt>
      <trkpt lat="43.18677" lon="6.02694">
        <ele>272.6</ele>
        <time>2023-03-22T09:25:24Z</time>
      </trkpt>
      <trkpt lat="43.18629" lon="6.02685">
        <ele>273.2</ele>
        <time>2023-03-22T09:25:40Z</time>
      </trkpt>
      <trkpt lat="43.18622" lon="6.02687">
        <ele>273.2</ele>
        <time>2023-03-22T09:25:42Z</time>
      </trkpt>
      <trkpt lat="43.18616" lon="6.02689">
        <ele>273.4</ele>
        <time>2023-03-22T09:25:44Z</time>
      </trkpt>
      <trkpt lat="43.18578" lon="6.02708">
        <ele>274.4</ele>
        <time>2023-03-22T09:25:58Z</time>
      </trkpt>
      <trkpt lat="43.18552" lon="6.02724">
        <ele>275.6</ele>
        <time>2023-03-22T09:26:08Z</time>
      </trkpt>
      <trkpt lat="43.18538" lon="6.02731">
        <ele>276.6</ele>
        <time>2023-03-22T09:26:13Z</time>
      </trkpt>
      <trkpt lat="43.18517" lon="6.02743">
        <ele>277.6</ele>
        <time>2023-03-22T09:26:21Z</time>
      </trkpt>
      <trkpt lat="43.18508" lon="6.02752">
        <ele>278.6</ele>
        <time>2023-03-22T09:26:25Z</time>
      </trkpt>
      <trkpt lat="43.18506" lon="6.02755">
        <ele>278.8</ele>
        <time>2023-03-22T09:26:26Z</time>
      </trkpt>
      <trkpt lat="43.18493" lon="6.0279">
        <ele>279.8</ele>
        <time>2023-03-22T09:26:37Z</time>
      </trkpt>
      <trkpt lat="43.18487" lon="6.02807">
        <ele>280.8</ele>
        <time>2023-03-22T09:26:43Z</time>
      </trkpt>
      <trkpt lat="43.1848" lon="6.02819">
        <ele>281.8</ele>
        <time>2023-03-22T09:26:48Z</time>
      </trkpt>
      <trkpt lat="43.18472" lon="6.02826">
        <ele>282.8</ele>
        <time>2023-03-22T09:26:52Z</time>
      </trkpt>
      <trkpt lat="43.18455" lon="6.02824">
        <ele>284.2</ele>
        <time>2023-03-22T09:26:58Z</time>
      </trkpt>
      <trkpt lat="43.18447" lon="6.02817">
        <ele>285.4</ele>
        <time>2023-03-22T09:27:02Z</time>
      </trkpt>
      <trkpt lat="43.18437" lon="6.02804">
        <ele>286.4</ele>
        <time>2023-03-22T09:27:08Z</time>
      </trkpt>
      <trkpt lat="43.1843" lon="6.02794">
        <ele>287.4</ele>
        <time>2023-03-22T09:27:12Z</time>
      </trkpt>
      <trkpt lat="43.1842" lon="6.02777">
        <ele>288.6</ele>
        <time>2023-03-22T09:27:18Z</time>
      </trkpt>
      <trkpt lat="43.18414" lon="6.02767">
        <ele>289.8</ele>
        <time>2023-03-22T09:27:22Z</time>
      </trkpt>
      <trkpt lat="43.18409" lon="6.02758">
        <ele>290.8</ele>
        <time>2023-03-22T09:27:25Z</time>
      </trkpt>
      <trkpt lat="43.18402" lon="6.02743">
        <ele>292</ele>
        <time>2023-03-22T09:27:30Z</time>
      </trkpt>
      <trkpt lat="43.1839" lon="6.02721">
        <ele>293</ele>
        <time>2023-03-22T09:27:38Z</time>
      </trkpt>
      <trkpt lat="43.18382" lon="6.02708">
        <ele>294.2</ele>
        <time>2023-03-22T09:27:43Z</time>
      </trkpt>
      <trkpt lat="43.18376" lon="6.02698">
        <ele>295.4</ele>
        <time>2023-03-22T09:27:47Z</time>
      </trkpt>
      <trkpt lat="43.18369" lon="6.02689">
        <ele>296.6</ele>
        <time>2023-03-22T09:27:51Z</time>
      </trkpt>
      <trkpt lat="43.1836" lon="6.02682">
        <ele>297.8</ele>
        <time>2023-03-22T09:27:55Z</time>
      </trkpt>
      <trkpt lat="43.18352" lon="6.02675">
        <ele>299</ele>
        <time>2023-03-22T09:27:59Z</time>
      </trkpt>
      <trkpt lat="43.18346" lon="6.02671">
        <ele>300</ele>
        <time>2023-03-22T09:28:02Z</time>
      </trkpt>
      <trkpt lat="43.18333" lon="6.02665">
        <ele>301.2</ele>
        <time>2023-03-22T09:28:07Z</time>
      </trkpt>
      <trkpt lat="43.18323" lon="6.02661">
        <ele>302.2</ele>
        <time>2023-03-22T09:28:11Z</time>
      </trkpt>
      <trkpt lat="43.18303" lon="6.02661">
        <ele>303.4</ele>
        <time>2023-03-22T09:28:18Z</time>
      </trkpt>
      <trkpt lat="43.18292" lon="6.02662">
        <ele>304.4</ele>
        <time>2023-03-22T09:28:22Z</time>
      </trkpt>
      <trkpt lat="43.18279" lon="6.02664">
        <ele>305.6</ele>
        <time>2023-03-22T09:28:27Z</time>
      </trkpt>
      <trkpt lat="43.18262" lon="6.02674">
        <ele>306.8</ele>
        <time>2023-03-22T09:28:34Z</time>
      </trkpt>
      <trkpt lat="43.1825" lon="6.02681">
        <ele>308</ele>
        <time>2023-03-22T09:28:40Z</time>
      </trkpt>
      <trkpt lat="43.18235" lon="6.02691">
        <ele>309</ele>
        <time>2023-03-22T09:28:47Z</time>
      </trkpt>
      <trkpt lat="43.18215" lon="6.02702">
        <ele>310.6</ele>
        <time>2023-03-22T09:28:55Z</time>
      </trkpt>
      <trkpt lat="43.18207" lon="6.02704">
        <ele>311.6</ele>
        <time>2023-03-22T09:28:58Z</time>
      </trkpt>
      <trkpt lat="43.1819" lon="6.02702">
        <ele>312.8</ele>
        <time>2023-03-22T09:29:04Z</time>
      </trkpt>
      <trkpt lat="43.18182" lon="6.027">
        <ele>313.8</ele>
        <time>2023-03-22T09:29:08Z</time>
      </trkpt>
      <trkpt lat="43.18163" lon="6.02699">
        <ele>314.8</ele>
        <time>2023-03-22T09:29:14Z</time>
      </trkpt>
      <trkpt lat="43.18145" lon="6.02705">
        <ele>315.8</ele>
        <time>2023-03-22T09:29:20Z</time>
      </trkpt>
      <trkpt lat="43.18128" lon="6.0272">
        <ele>317</ele>
        <time>2023-03-22T09:29:27Z</time>
      </trkpt>
      <trkpt lat="43.18122" lon="6.02728">
        <ele>318</ele>
        <time>2023-03-22T09:29:30Z</time>
      </trkpt>
      <trkpt lat="43.18114" lon="6.0274">
        <ele>319</ele>
        <time>2023-03-22T09:29:34Z</time>
      </trkpt>
      <trkpt lat="43.18106" lon="6.02749">
        <ele>320.2</ele>
        <time>2023-03-22T09:29:38Z</time>
      </trkpt>
      <trkpt lat="43.18093" lon="6.02769">
        <ele>321.2</ele>
        <time>2023-03-22T09:29:44Z</time>
      </trkpt>
      <trkpt lat="43.18079" lon="6.02792">
        <ele>322.4</ele>
        <time>2023-03-22T09:29:50Z</time>
      </trkpt>
      <trkpt lat="43.18059" lon="6.02827">
        <ele>322.6</ele>
        <time>2023-03-22T09:29:58Z</time>
      </trkpt>
      <trkpt lat="43.18055" lon="6.02836">
        <ele>322.4</ele>
        <time>2023-03-22T09:30:00Z</time>
      </trkpt>
      <trkpt lat="43.18039" lon="6.02866">
        <ele>321.6</ele>
        <time>2023-03-22T09:30:06Z</time>
      </trkpt>
      <trkpt lat="43.18026" lon="6.02887">
        <ele>321.2</ele>
        <time>2023-03-22T09:30:10Z</time>
      </trkpt>
      <trkpt lat="43.18015" lon="6.02905">
        <ele>320.8</ele>
        <time>2023-03-22T09:30:14Z</time>
      </trkpt>
      <trkpt lat="43.18007" lon="6.02919">
        <ele>320</ele>
        <time>2023-03-22T09:30:22Z</time>
      </trkpt>
      <trkpt lat="43.18006" lon="6.0292">
        <ele>320</ele>
        <time>2023-03-22T09:30:23Z</time>
      </trkpt>
      <trkpt lat="43.18006" lon="6.02925">
        <ele>319.6</ele>
        <time>2023-03-22T09:30:26Z</time>
      </trkpt>
      <trkpt lat="43.18002" lon="6.02925">
        <ele>319.2</ele>
        <time>2023-03-22T09:30:30Z</time>
      </trkpt>
      <trkpt lat="43.18001" lon="6.02927">
        <ele>319.2</ele>
        <time>2023-03-22T09:30:31Z</time>
      </trkpt>
      <trkpt lat="43.17997" lon="6.02929">
        <ele>318.8</ele>
        <time>2023-03-22T09:30:33Z</time>
      </trkpt>
      <trkpt lat="43.17983" lon="6.02925">
        <ele>317.8</ele>
        <time>2023-03-22T09:30:38Z</time>
      </trkpt>
      <trkpt lat="43.17973" lon="6.02919">
        <ele>317.4</ele>
        <time>2023-03-22T09:30:42Z</time>
      </trkpt>
      <trkpt lat="43.17955" lon="6.02907">
        <ele>316.8</ele>
        <time>2023-03-22T09:30:52Z</time>
      </trkpt>
      <trkpt lat="43.17955" lon="6.02905">
        <ele>316.6</ele>
        <time>2023-03-22T09:30:53Z</time>
      </trkpt>
      <trkpt lat="43.17957" lon="6.02899">
        <ele>316.6</ele>
        <time>2023-03-22T09:30:56Z</time>
      </trkpt>
      <trkpt lat="43.17962" lon="6.02892">
        <ele>316.6</ele>
        <time>2023-03-22T09:31:00Z</time>
      </trkpt>
      <trkpt lat="43.17971" lon="6.02897">
        <ele>318</ele>
        <time>2023-03-22T09:31:05Z</time>
      </trkpt>
      <trkpt lat="43.17977" lon="6.029">
        <ele>319</ele>
        <time>2023-03-22T09:31:08Z</time>
      </trkpt>
      <trkpt lat="43.17984" lon="6.02904">
        <ele>319.4</ele>
        <time>2023-03-22T09:31:13Z</time>
      </trkpt>
      <trkpt lat="43.17978" lon="6.02897">
        <ele>319.6</ele>
        <time>2023-03-22T09:31:17Z</time>
      </trkpt>
      <trkpt lat="43.17975" lon="6.02894">
        <ele>319.6</ele>
        <time>2023-03-22T09:31:18Z</time>
      </trkpt>
      <trkpt lat="43.17964" lon="6.02884">
        <ele>319.6</ele>
        <time>2023-03-22T09:31:21Z</time>
      </trkpt>
      <trkpt lat="43.17935" lon="6.02828">
        <ele>317.8</ele>
        <time>2023-03-22T09:31:31Z</time>
      </trkpt>
      <trkpt lat="43.1792" lon="6.02796">
        <ele>316.6</ele>
        <time>2023-03-22T09:31:36Z</time>
      </trkpt>
      <trkpt lat="43.17911" lon="6.02776">
        <ele>315.2</ele>
        <time>2023-03-22T09:31:39Z</time>
      </trkpt>
      <trkpt lat="43.179" lon="6.0275">
        <ele>314.2</ele>
        <time>2023-03-22T09:31:43Z</time>
      </trkpt>
      <trkpt lat="43.17882" lon="6.02722">
        <ele>313.8</ele>
        <time>2023-03-22T09:31:48Z</time>
      </trkpt>
      <trkpt lat="43.17863" lon="6.0269">
        <ele>312.8</ele>
        <time>2023-03-22T09:31:54Z</time>
      </trkpt>
      <trkpt lat="43.17846" lon="6.02657">
        <ele>311.8</ele>
        <time>2023-03-22T09:32:00Z</time>
      </trkpt>
      <trkpt lat="43.17839" lon="6.02638">
        <ele>311.6</ele>
        <time>2023-03-22T09:32:03Z</time>
      </trkpt>
      <trkpt lat="43.17832" lon="6.0261">
        <ele>311.4</ele>
        <time>2023-03-22T09:32:07Z</time>
      </trkpt>
      <trkpt lat="43.17832" lon="6.02556">
        <ele>310.6</ele>
        <time>2023-03-22T09:32:13Z</time>
      </trkpt>
      <trkpt lat="43.17831" lon="6.02524">
        <ele>309.4</ele>
        <time>2023-03-22T09:32:16Z</time>
      </trkpt>
      <trkpt lat="43.17829" lon="6.02514">
        <ele>308.4</ele>
        <time>2023-03-22T09:32:17Z</time>
      </trkpt>
      <trkpt lat="43.17827" lon="6.02492">
        <ele>307.2</ele>
        <time>2023-03-22T09:32:19Z</time>
      </trkpt>
      <trkpt lat="43.17823" lon="6.02459">
        <ele>305</ele>
        <time>2023-03-22T09:32:22Z</time>
      </trkpt>
      <trkpt lat="43.17822" lon="6.02448">
        <ele>303.6</ele>
        <time>2023-03-22T09:32:23Z</time>
      </trkpt>
      <trkpt lat="43.1782" lon="6.02426">
        <ele>302.2</ele>
        <time>2023-03-22T09:32:25Z</time>
      </trkpt>
      <trkpt lat="43.17814" lon="6.02368">
        <ele>301.2</ele>
        <time>2023-03-22T09:32:30Z</time>
      </trkpt>
      <trkpt lat="43.17812" lon="6.02356">
        <ele>300</ele>
        <time>2023-03-22T09:32:31Z</time>
      </trkpt>
      <trkpt lat="43.1781" lon="6.02332">
        <ele>298.6</ele>
        <time>2023-03-22T09:32:33Z</time>
      </trkpt>
      <trkpt lat="43.17808" lon="6.02295">
        <ele>297.4</ele>
        <time>2023-03-22T09:32:36Z</time>
      </trkpt>
      <trkpt lat="43.17804" lon="6.02269">
        <ele>296.2</ele>
        <time>2023-03-22T09:32:38Z</time>
      </trkpt>
      <trkpt lat="43.178" lon="6.02244">
        <ele>295.2</ele>
        <time>2023-03-22T09:32:40Z</time>
      </trkpt>
      <trkpt lat="43.17792" lon="6.02207">
        <ele>294</ele>
        <time>2023-03-22T09:32:43Z</time>
      </trkpt>
      <trkpt lat="43.17788" lon="6.02182">
        <ele>292.6</ele>
        <time>2023-03-22T09:32:45Z</time>
      </trkpt>
      <trkpt lat="43.17784" lon="6.02158">
        <ele>290.8</ele>
        <time>2023-03-22T09:32:47Z</time>
      </trkpt>
      <trkpt lat="43.17782" lon="6.02137">
        <ele>290</ele>
        <time>2023-03-22T09:32:49Z</time>
      </trkpt>
      <trkpt lat="43.17782" lon="6.02126">
        <ele>289.8</ele>
        <time>2023-03-22T09:32:50Z</time>
      </trkpt>
      <trkpt lat="43.17786" lon="6.02085">
        <ele>288.4</ele>
        <time>2023-03-22T09:32:54Z</time>
      </trkpt>
      <trkpt lat="43.17788" lon="6.02065">
        <ele>288.2</ele>
        <time>2023-03-22T09:32:56Z</time>
      </trkpt>
      <trkpt lat="43.17772" lon="6.02026">
        <ele>287.8</ele>
        <time>2023-03-22T09:33:01Z</time>
      </trkpt>
      <trkpt lat="43.17742" lon="6.01973">
        <ele>287.8</ele>
        <time>2023-03-22T09:33:10Z</time>
      </trkpt>
      <trkpt lat="43.17724" lon="6.01912">
        <ele>289.6</ele>
        <time>2023-03-22T09:33:20Z</time>
      </trkpt>
      <trkpt lat="43.17715" lon="6.01877">
        <ele>290.6</ele>
        <time>2023-03-22T09:33:26Z</time>
      </trkpt>
      <trkpt lat="43.17708" lon="6.01844">
        <ele>291.6</ele>
        <time>2023-03-22T09:33:32Z</time>
      </trkpt>
      <trkpt lat="43.17708" lon="6.01839">
        <ele>291.8</ele>
        <time>2023-03-22T09:33:33Z</time>
      </trkpt>
      <trkpt lat="43.17703" lon="6.0181">
        <ele>292.6</ele>
        <time>2023-03-22T09:33:38Z</time>
      </trkpt>
      <trkpt lat="43.17698" lon="6.01786">
        <ele>292.8</ele>
        <time>2023-03-22T09:33:42Z</time>
      </trkpt>
      <trkpt lat="43.17676" lon="6.01722">
        <ele>293.2</ele>
        <time>2023-03-22T09:33:53Z</time>
      </trkpt>
      <trkpt lat="43.17653" lon="6.01649">
        <ele>293.6</ele>
        <time>2023-03-22T09:34:05Z</time>
      </trkpt>
      <trkpt lat="43.1765" lon="6.01637">
        <ele>293.8</ele>
        <time>2023-03-22T09:34:07Z</time>
      </trkpt>
      <trkpt lat="43.17633" lon="6.01576">
        <ele>294.8</ele>
        <time>2023-03-22T09:34:18Z</time>
      </trkpt>
      <trkpt lat="43.17624" lon="6.01547">
        <ele>295.8</ele>
        <time>2023-03-22T09:34:26Z</time>
      </trkpt>
      <trkpt lat="43.17621" lon="6.01535">
        <ele>297.2</ele>
        <time>2023-03-22T09:34:29Z</time>
      </trkpt>
      <trkpt lat="43.17616" lon="6.01516">
        <ele>298.2</ele>
        <time>2023-03-22T09:34:33Z</time>
      </trkpt>
      <trkpt lat="43.17611" lon="6.0148">
        <ele>299.4</ele>
        <time>2023-03-22T09:34:41Z</time>
      </trkpt>
      <trkpt lat="43.17599" lon="6.01444">
        <ele>300.6</ele>
        <time>2023-03-22T09:34:48Z</time>
      </trkpt>
      <trkpt lat="43.17578" lon="6.01381">
        <ele>301.6</ele>
        <time>2023-03-22T09:35:02Z</time>
      </trkpt>
      <trkpt lat="43.17576" lon="6.01355">
        <ele>302.6</ele>
        <time>2023-03-22T09:35:09Z</time>
      </trkpt>
      <trkpt lat="43.17574" lon="6.01339">
        <ele>304</ele>
        <time>2023-03-22T09:35:14Z</time>
      </trkpt>
      <trkpt lat="43.17575" lon="6.01325">
        <ele>305</ele>
        <time>2023-03-22T09:35:18Z</time>
      </trkpt>
      <trkpt lat="43.17577" lon="6.0131">
        <ele>306.2</ele>
        <time>2023-03-22T09:35:22Z</time>
      </trkpt>
      <trkpt lat="43.17578" lon="6.01295">
        <ele>307.2</ele>
        <time>2023-03-22T09:35:26Z</time>
      </trkpt>
      <trkpt lat="43.17581" lon="6.01274">
        <ele>308.4</ele>
        <time>2023-03-22T09:35:31Z</time>
      </trkpt>
      <trkpt lat="43.1758" lon="6.01256">
        <ele>309.4</ele>
        <time>2023-03-22T09:35:35Z</time>
      </trkpt>
      <trkpt lat="43.17578" lon="6.0124">
        <ele>310.6</ele>
        <time>2023-03-22T09:35:39Z</time>
      </trkpt>
      <trkpt lat="43.17576" lon="6.01221">
        <ele>312</ele>
        <time>2023-03-22T09:35:43Z</time>
      </trkpt>
      <trkpt lat="43.17573" lon="6.01201">
        <ele>313</ele>
        <time>2023-03-22T09:35:47Z</time>
      </trkpt>
      <trkpt lat="43.17567" lon="6.01154">
        <ele>314</ele>
        <time>2023-03-22T09:35:56Z</time>
      </trkpt>
      <trkpt lat="43.17548" lon="6.01084">
        <ele>315</ele>
        <time>2023-03-22T09:36:08Z</time>
      </trkpt>
      <trkpt lat="43.17542" lon="6.01071">
        <ele>315</ele>
        <time>2023-03-22T09:36:10Z</time>
      </trkpt>
      <trkpt lat="43.17522" lon="6.01044">
        <ele>314.6</ele>
        <time>2023-03-22T09:36:15Z</time>
      </trkpt>
      <trkpt lat="43.17504" lon="6.01034">
        <ele>313.8</ele>
        <time>2023-03-22T09:36:19Z</time>
      </trkpt>
      <trkpt lat="43.17456" lon="6.01002">
        <ele>313.8</ele>
        <time>2023-03-22T09:36:30Z</time>
      </trkpt>
      <trkpt lat="43.17452" lon="6.00997">
        <ele>314</ele>
        <time>2023-03-22T09:36:31Z</time>
      </trkpt>
      <trkpt lat="43.17424" lon="6.00939">
        <ele>314.2</ele>
        <time>2023-03-22T09:36:40Z</time>
      </trkpt>
      <trkpt lat="43.17413" lon="6.00906">
        <ele>313.4</ele>
        <time>2023-03-22T09:36:45Z</time>
      </trkpt>
      <trkpt lat="43.17389" lon="6.00842">
        <ele>313.4</ele>
        <time>2023-03-22T09:36:55Z</time>
      </trkpt>
      <trkpt lat="43.17384" lon="6.00811">
        <ele>313.4</ele>
        <time>2023-03-22T09:37:00Z</time>
      </trkpt>
      <trkpt lat="43.17373" lon="6.00786">
        <ele>314.4</ele>
        <time>2023-03-22T09:37:05Z</time>
      </trkpt>
      <trkpt lat="43.17371" lon="6.00781">
        <ele>314.6</ele>
        <time>2023-03-22T09:37:06Z</time>
      </trkpt>
      <trkpt lat="43.17366" lon="6.00767">
        <ele>314.8</ele>
        <time>2023-03-22T09:37:09Z</time>
      </trkpt>
      <trkpt lat="43.17363" lon="6.00751">
        <ele>315.8</ele>
        <time>2023-03-22T09:37:12Z</time>
      </trkpt>
      <trkpt lat="43.17361" lon="6.00736">
        <ele>316.8</ele>
        <time>2023-03-22T09:37:15Z</time>
      </trkpt>
      <trkpt lat="43.1736" lon="6.00722">
        <ele>317.8</ele>
        <time>2023-03-22T09:37:18Z</time>
      </trkpt>
      <trkpt lat="43.17358" lon="6.00704">
        <ele>319.2</ele>
        <time>2023-03-22T09:37:22Z</time>
      </trkpt>
      <trkpt lat="43.17357" lon="6.0069">
        <ele>320.2</ele>
        <time>2023-03-22T09:37:25Z</time>
      </trkpt>
      <trkpt lat="43.17356" lon="6.00677">
        <ele>321.4</ele>
        <time>2023-03-22T09:37:28Z</time>
      </trkpt>
      <trkpt lat="43.17354" lon="6.00655">
        <ele>322.4</ele>
        <time>2023-03-22T09:37:33Z</time>
      </trkpt>
      <trkpt lat="43.17352" lon="6.00638">
        <ele>323.6</ele>
        <time>2023-03-22T09:37:37Z</time>
      </trkpt>
      <trkpt lat="43.1735" lon="6.00626">
        <ele>324.6</ele>
        <time>2023-03-22T09:37:40Z</time>
      </trkpt>
      <trkpt lat="43.17343" lon="6.0061">
        <ele>325.8</ele>
        <time>2023-03-22T09:37:44Z</time>
      </trkpt>
      <trkpt lat="43.17335" lon="6.00596">
        <ele>327</ele>
        <time>2023-03-22T09:37:48Z</time>
      </trkpt>
      <trkpt lat="43.17326" lon="6.00584">
        <ele>328.4</ele>
        <time>2023-03-22T09:37:52Z</time>
      </trkpt>
      <trkpt lat="43.17316" lon="6.00566">
        <ele>329.6</ele>
        <time>2023-03-22T09:37:57Z</time>
      </trkpt>
      <trkpt lat="43.17307" lon="6.0055">
        <ele>330.8</ele>
        <time>2023-03-22T09:38:02Z</time>
      </trkpt>
      <trkpt lat="43.17304" lon="6.0055">
        <ele>331</ele>
        <time>2023-03-22T09:38:03Z</time>
      </trkpt>
      <trkpt lat="43.17296" lon="6.00547">
        <ele>332.2</ele>
        <time>2023-03-22T09:38:07Z</time>
      </trkpt>
      <trkpt lat="43.17295" lon="6.00545">
        <ele>332.4</ele>
        <time>2023-03-22T09:38:08Z</time>
      </trkpt>
      <trkpt lat="43.17281" lon="6.00535">
        <ele>333</ele>
        <time>2023-03-22T09:38:16Z</time>
      </trkpt>
      <trkpt lat="43.17268" lon="6.00561">
        <ele>333</ele>
        <time>2023-03-22T09:38:23Z</time>
      </trkpt>
      <trkpt lat="43.17268" lon="6.00575">
        <ele>333</ele>
        <time>2023-03-22T09:38:25Z</time>
      </trkpt>
      <trkpt lat="43.17268" lon="6.00608">
        <ele>332.6</ele>
        <time>2023-03-22T09:38:29Z</time>
      </trkpt>
      <trkpt lat="43.17262" lon="6.00641">
        <ele>330.6</ele>
        <time>2023-03-22T09:38:33Z</time>
      </trkpt>
      <trkpt lat="43.1726" lon="6.0065">
        <ele>329.4</ele>
        <time>2023-03-22T09:38:34Z</time>
      </trkpt>
      <trkpt lat="43.17259" lon="6.00658">
        <ele>328</ele>
        <time>2023-03-22T09:38:35Z</time>
      </trkpt>
      <trkpt lat="43.17256" lon="6.00666">
        <ele>327.6</ele>
        <time>2023-03-22T09:38:36Z</time>
      </trkpt>
      <trkpt lat="43.17247" lon="6.00681">
        <ele>326.8</ele>
        <time>2023-03-22T09:38:38Z</time>
      </trkpt>
      <trkpt lat="43.17236" lon="6.00695">
        <ele>325.4</ele>
        <time>2023-03-22T09:38:40Z</time>
      </trkpt>
      <trkpt lat="43.17229" lon="6.00712">
        <ele>324.2</ele>
        <time>2023-03-22T09:38:42Z</time>
      </trkpt>
      <trkpt lat="43.17227" lon="6.00733">
        <ele>322.6</ele>
        <time>2023-03-22T09:38:44Z</time>
      </trkpt>
      <trkpt lat="43.17228" lon="6.00751">
        <ele>320.8</ele>
        <time>2023-03-22T09:38:46Z</time>
      </trkpt>
      <trkpt lat="43.17229" lon="6.0076">
        <ele>319.4</ele>
        <time>2023-03-22T09:38:47Z</time>
      </trkpt>
      <trkpt lat="43.17228" lon="6.00779">
        <ele>318</ele>
        <time>2023-03-22T09:38:49Z</time>
      </trkpt>
      <trkpt lat="43.17223" lon="6.00807">
        <ele>316.2</ele>
        <time>2023-03-22T09:38:52Z</time>
      </trkpt>
      <trkpt lat="43.17216" lon="6.00831">
        <ele>314.2</ele>
        <time>2023-03-22T09:38:55Z</time>
      </trkpt>
      <trkpt lat="43.17213" lon="6.0084">
        <ele>313</ele>
        <time>2023-03-22T09:38:56Z</time>
      </trkpt>
      <trkpt lat="43.17211" lon="6.00849">
        <ele>311</ele>
        <time>2023-03-22T09:38:57Z</time>
      </trkpt>
      <trkpt lat="43.1721" lon="6.00858">
        <ele>309.6</ele>
        <time>2023-03-22T09:38:58Z</time>
      </trkpt>
      <trkpt lat="43.17212" lon="6.00876">
        <ele>308.4</ele>
        <time>2023-03-22T09:39:00Z</time>
      </trkpt>
      <trkpt lat="43.17212" lon="6.00895">
        <ele>307</ele>
        <time>2023-03-22T09:39:02Z</time>
      </trkpt>
      <trkpt lat="43.17211" lon="6.00904">
        <ele>306.2</ele>
        <time>2023-03-22T09:39:03Z</time>
      </trkpt>
      <trkpt lat="43.1721" lon="6.00913">
        <ele>305.6</ele>
        <time>2023-03-22T09:39:04Z</time>
      </trkpt>
      <trkpt lat="43.17207" lon="6.00949">
        <ele>304.4</ele>
        <time>2023-03-22T09:39:08Z</time>
      </trkpt>
      <trkpt lat="43.17206" lon="6.00958">
        <ele>304</ele>
        <time>2023-03-22T09:39:09Z</time>
      </trkpt>
      <trkpt lat="43.17206" lon="6.00967">
        <ele>303</ele>
        <time>2023-03-22T09:39:10Z</time>
      </trkpt>
      <trkpt lat="43.17209" lon="6.00994">
        <ele>301.8</ele>
        <time>2023-03-22T09:39:13Z</time>
      </trkpt>
      <trkpt lat="43.1721" lon="6.0102">
        <ele>300.6</ele>
        <time>2023-03-22T09:39:16Z</time>
      </trkpt>
      <trkpt lat="43.17206" lon="6.01044">
        <ele>299.2</ele>
        <time>2023-03-22T09:39:19Z</time>
      </trkpt>
      <trkpt lat="43.17194" lon="6.0107">
        <ele>297.8</ele>
        <time>2023-03-22T09:39:23Z</time>
      </trkpt>
      <trkpt lat="43.17182" lon="6.01083">
        <ele>296.6</ele>
        <time>2023-03-22T09:39:26Z</time>
      </trkpt>
      <trkpt lat="43.17169" lon="6.01144">
        <ele>295.4</ele>
        <time>2023-03-22T09:39:37Z</time>
      </trkpt>
      <trkpt lat="43.17167" lon="6.0115">
        <ele>295.2</ele>
        <time>2023-03-22T09:39:38Z</time>
      </trkpt>
      <trkpt lat="43.17166" lon="6.01156">
        <ele>295</ele>
        <time>2023-03-22T09:39:39Z</time>
      </trkpt>
      <trkpt lat="43.17162" lon="6.01166">
        <ele>294.8</ele>
        <time>2023-03-22T09:39:41Z</time>
      </trkpt>
      <trkpt lat="43.17158" lon="6.01184">
        <ele>294.4</ele>
        <time>2023-03-22T09:39:44Z</time>
      </trkpt>
      <trkpt lat="43.17135" lon="6.01212">
        <ele>293.4</ele>
        <time>2023-03-22T09:39:50Z</time>
      </trkpt>
      <trkpt lat="43.17133" lon="6.01218">
        <ele>292.4</ele>
        <time>2023-03-22T09:39:51Z</time>
      </trkpt>
      <trkpt lat="43.17131" lon="6.0123">
        <ele>291.4</ele>
        <time>2023-03-22T09:39:53Z</time>
      </trkpt>
      <trkpt lat="43.1713" lon="6.01236">
        <ele>291.4</ele>
        <time>2023-03-22T09:39:54Z</time>
      </trkpt>
      <trkpt lat="43.17125" lon="6.01294">
        <ele>291.2</ele>
        <time>2023-03-22T09:40:06Z</time>
      </trkpt>
      <trkpt lat="43.17124" lon="6.01309">
        <ele>291.4</ele>
        <time>2023-03-22T09:40:10Z</time>
      </trkpt>
      <trkpt lat="43.17118" lon="6.01317">
        <ele>291.4</ele>
        <time>2023-03-22T09:40:13Z</time>
      </trkpt>
      <trkpt lat="43.17102" lon="6.0134">
        <ele>290.4</ele>
        <time>2023-03-22T09:40:19Z</time>
      </trkpt>
      <trkpt lat="43.17099" lon="6.01348">
        <ele>289.8</ele>
        <time>2023-03-22T09:40:21Z</time>
      </trkpt>
      <trkpt lat="43.17091" lon="6.0135">
        <ele>288.4</ele>
        <time>2023-03-22T09:40:23Z</time>
      </trkpt>
      <trkpt lat="43.17083" lon="6.01351">
        <ele>287</ele>
        <time>2023-03-22T09:40:25Z</time>
      </trkpt>
      <trkpt lat="43.17075" lon="6.01355">
        <ele>285.8</ele>
        <time>2023-03-22T09:40:28Z</time>
      </trkpt>
      <trkpt lat="43.17073" lon="6.01356">
        <ele>284.6</ele>
        <time>2023-03-22T09:40:29Z</time>
      </trkpt>
      <trkpt lat="43.1707" lon="6.01357">
        <ele>283.6</ele>
        <time>2023-03-22T09:40:30Z</time>
      </trkpt>
      <trkpt lat="43.17062" lon="6.01358">
        <ele>282.4</ele>
        <time>2023-03-22T09:40:32Z</time>
      </trkpt>
      <trkpt lat="43.17052" lon="6.01358">
        <ele>281.2</ele>
        <time>2023-03-22T09:40:35Z</time>
      </trkpt>
      <trkpt lat="43.1705" lon="6.01358">
        <ele>280.8</ele>
        <time>2023-03-22T09:40:36Z</time>
      </trkpt>
      <trkpt lat="43.17048" lon="6.01361">
        <ele>280.2</ele>
        <time>2023-03-22T09:40:38Z</time>
      </trkpt>
      <trkpt lat="43.17051" lon="6.01363">
        <ele>279.8</ele>
        <time>2023-03-22T09:40:41Z</time>
      </trkpt>
      <trkpt lat="43.17051" lon="6.01366">
        <ele>279.4</ele>
        <time>2023-03-22T09:40:44Z</time>
      </trkpt>
      <trkpt lat="43.17047" lon="6.01368">
        <ele>279.2</ele>
        <time>2023-03-22T09:40:46Z</time>
      </trkpt>
      <trkpt lat="43.17043" lon="6.01373">
        <ele>278.8</ele>
        <time>2023-03-22T09:40:48Z</time>
      </trkpt>
      <trkpt lat="43.17038" lon="6.01387">
        <ele>277.2</ele>
        <time>2023-03-22T09:40:53Z</time>
      </trkpt>
      <trkpt lat="43.17035" lon="6.01392">
        <ele>276.2</ele>
        <time>2023-03-22T09:40:55Z</time>
      </trkpt>
      <trkpt lat="43.17029" lon="6.01395">
        <ele>274.6</ele>
        <time>2023-03-22T09:40:57Z</time>
      </trkpt>
      <trkpt lat="43.17026" lon="6.01395">
        <ele>274</ele>
        <time>2023-03-22T09:40:58Z</time>
      </trkpt>
      <trkpt lat="43.17023" lon="6.01396">
        <ele>273.2</ele>
        <time>2023-03-22T09:40:59Z</time>
      </trkpt>
      <trkpt lat="43.17021" lon="6.014">
        <ele>271.8</ele>
        <time>2023-03-22T09:41:01Z</time>
      </trkpt>
      <trkpt lat="43.17018" lon="6.01406">
        <ele>270.4</ele>
        <time>2023-03-22T09:41:03Z</time>
      </trkpt>
      <trkpt lat="43.17012" lon="6.01409">
        <ele>269.2</ele>
        <time>2023-03-22T09:41:05Z</time>
      </trkpt>
      <trkpt lat="43.17001" lon="6.01411">
        <ele>268.2</ele>
        <time>2023-03-22T09:41:08Z</time>
      </trkpt>
      <trkpt lat="43.16995" lon="6.01409">
        <ele>266.8</ele>
        <time>2023-03-22T09:41:10Z</time>
      </trkpt>
      <trkpt lat="43.16991" lon="6.01406">
        <ele>265.6</ele>
        <time>2023-03-22T09:41:11Z</time>
      </trkpt>
      <trkpt lat="43.16987" lon="6.01404">
        <ele>264.6</ele>
        <time>2023-03-22T09:41:12Z</time>
      </trkpt>
      <trkpt lat="43.16983" lon="6.01402">
        <ele>263.8</ele>
        <time>2023-03-22T09:41:13Z</time>
      </trkpt>
      <trkpt lat="43.16977" lon="6.014">
        <ele>262.6</ele>
        <time>2023-03-22T09:41:15Z</time>
      </trkpt>
      <trkpt lat="43.16976" lon="6.01401">
        <ele>262.2</ele>
        <time>2023-03-22T09:41:16Z</time>
      </trkpt>
      <trkpt lat="43.16974" lon="6.01406">
        <ele>260.8</ele>
        <time>2023-03-22T09:41:18Z</time>
      </trkpt>
      <trkpt lat="43.16969" lon="6.01407">
        <ele>259.8</ele>
        <time>2023-03-22T09:41:20Z</time>
      </trkpt>
      <trkpt lat="43.16968" lon="6.01409">
        <ele>259.6</ele>
        <time>2023-03-22T09:41:21Z</time>
      </trkpt>
      <trkpt lat="43.16967" lon="6.0141">
        <ele>259.4</ele>
        <time>2023-03-22T09:41:22Z</time>
      </trkpt>
      <trkpt lat="43.16952" lon="6.01424">
        <ele>258.6</ele>
        <time>2023-03-22T09:41:30Z</time>
      </trkpt>
      <trkpt lat="43.16949" lon="6.01427">
        <ele>258.6</ele>
        <time>2023-03-22T09:41:31Z</time>
      </trkpt>
      <trkpt lat="43.16943" lon="6.01432">
        <ele>258.4</ele>
        <time>2023-03-22T09:41:33Z</time>
      </trkpt>
      <trkpt lat="43.16939" lon="6.01434">
        <ele>258.4</ele>
        <time>2023-03-22T09:41:34Z</time>
      </trkpt>
      <trkpt lat="43.16919" lon="6.01442">
        <ele>257.2</ele>
        <time>2023-03-22T09:41:39Z</time>
      </trkpt>
      <trkpt lat="43.16914" lon="6.0145">
        <ele>256.6</ele>
        <time>2023-03-22T09:41:41Z</time>
      </trkpt>
      <trkpt lat="43.16912" lon="6.01453">
        <ele>256.4</ele>
        <time>2023-03-22T09:41:42Z</time>
      </trkpt>
      <trkpt lat="43.16905" lon="6.01457">
        <ele>256.2</ele>
        <time>2023-03-22T09:41:44Z</time>
      </trkpt>
      <trkpt lat="43.16891" lon="6.01466">
        <ele>255</ele>
        <time>2023-03-22T09:41:49Z</time>
      </trkpt>
      <trkpt lat="43.16888" lon="6.01467">
        <ele>254.2</ele>
        <time>2023-03-22T09:41:50Z</time>
      </trkpt>
      <trkpt lat="43.16885" lon="6.01468">
        <ele>253.4</ele>
        <time>2023-03-22T09:41:51Z</time>
      </trkpt>
      <trkpt lat="43.16875" lon="6.01473">
        <ele>252</ele>
        <time>2023-03-22T09:41:54Z</time>
      </trkpt>
      <trkpt lat="43.1686" lon="6.01474">
        <ele>251.8</ele>
        <time>2023-03-22T09:42:00Z</time>
      </trkpt>
      <trkpt lat="43.1684" lon="6.01479">
        <ele>253</ele>
        <time>2023-03-22T09:42:08Z</time>
      </trkpt>
      <trkpt lat="43.16837" lon="6.0148">
        <ele>253.4</ele>
        <time>2023-03-22T09:42:09Z</time>
      </trkpt>
      <trkpt lat="43.16831" lon="6.0148">
        <ele>254</ele>
        <time>2023-03-22T09:42:12Z</time>
      </trkpt>
      <trkpt lat="43.16825" lon="6.01495">
        <ele>254.2</ele>
        <time>2023-03-22T09:42:18Z</time>
      </trkpt>
      <trkpt lat="43.16823" lon="6.01502">
        <ele>254.2</ele>
        <time>2023-03-22T09:42:22Z</time>
      </trkpt>
      <trkpt lat="43.16814" lon="6.01518">
        <ele>252.6</ele>
        <time>2023-03-22T09:42:27Z</time>
      </trkpt>
      <trkpt lat="43.16812" lon="6.0152">
        <ele>252</ele>
        <time>2023-03-22T09:42:28Z</time>
      </trkpt>
      <trkpt lat="43.1681" lon="6.01523">
        <ele>251.4</ele>
        <time>2023-03-22T09:42:29Z</time>
      </trkpt>
      <trkpt lat="43.16806" lon="6.01532">
        <ele>250.4</ele>
        <time>2023-03-22T09:42:32Z</time>
      </trkpt>
      <trkpt lat="43.16804" lon="6.01533">
        <ele>249.4</ele>
        <time>2023-03-22T09:42:34Z</time>
      </trkpt>
      <trkpt lat="43.16802" lon="6.01533">
        <ele>248.2</ele>
        <time>2023-03-22T09:42:35Z</time>
      </trkpt>
      <trkpt lat="43.16799" lon="6.01532">
        <ele>246.8</ele>
        <time>2023-03-22T09:42:37Z</time>
      </trkpt>
      <trkpt lat="43.16797" lon="6.01531">
        <ele>246.6</ele>
        <time>2023-03-22T09:42:38Z</time>
      </trkpt>
      <trkpt lat="43.16772" lon="6.01521">
        <ele>247.6</ele>
        <time>2023-03-22T09:42:53Z</time>
      </trkpt>
      <trkpt lat="43.16754" lon="6.01509">
        <ele>247.6</ele>
        <time>2023-03-22T09:43:01Z</time>
      </trkpt>
      <trkpt lat="43.16742" lon="6.01502">
        <ele>247.8</ele>
        <time>2023-03-22T09:43:04Z</time>
      </trkpt>
      <trkpt lat="43.16726" lon="6.01491">
        <ele>247</ele>
        <time>2023-03-22T09:43:08Z</time>
      </trkpt>
      <trkpt lat="43.16716" lon="6.01483">
        <ele>245.6</ele>
        <time>2023-03-22T09:43:10Z</time>
      </trkpt>
      <trkpt lat="43.16708" lon="6.01473">
        <ele>244.2</ele>
        <time>2023-03-22T09:43:12Z</time>
      </trkpt>
      <trkpt lat="43.16699" lon="6.01469">
        <ele>243.2</ele>
        <time>2023-03-22T09:43:14Z</time>
      </trkpt>
      <trkpt lat="43.16692" lon="6.01466">
        <ele>241.8</ele>
        <time>2023-03-22T09:43:16Z</time>
      </trkpt>
      <trkpt lat="43.1669" lon="6.01466">
        <ele>241.4</ele>
        <time>2023-03-22T09:43:17Z</time>
      </trkpt>
      <trkpt lat="43.16686" lon="6.01467">
        <ele>241.4</ele>
        <time>2023-03-22T09:43:19Z</time>
      </trkpt>
      <trkpt lat="43.16638" lon="6.0149">
        <ele>242</ele>
        <time>2023-03-22T09:43:35Z</time>
      </trkpt>
      <trkpt lat="43.16626" lon="6.01497">
        <ele>242.8</ele>
        <time>2023-03-22T09:43:41Z</time>
      </trkpt>
      <trkpt lat="43.16607" lon="6.0151">
        <ele>243.2</ele>
        <time>2023-03-22T09:43:49Z</time>
      </trkpt>
      <trkpt lat="43.16582" lon="6.0152">
        <ele>243.4</ele>
        <time>2023-03-22T09:43:58Z</time>
      </trkpt>
      <trkpt lat="43.16558" lon="6.01529">
        <ele>244.2</ele>
        <time>2023-03-22T09:44:05Z</time>
      </trkpt>
      <trkpt lat="43.16531" lon="6.01537">
        <ele>244.2</ele>
        <time>2023-03-22T09:44:18Z</time>
      </trkpt>
      <trkpt lat="43.16523" lon="6.01546">
        <ele>244</ele>
        <time>2023-03-22T09:44:22Z</time>
      </trkpt>
      <trkpt lat="43.16518" lon="6.01556">
        <ele>243</ele>
        <time>2023-03-22T09:44:27Z</time>
      </trkpt>
      <trkpt lat="43.16517" lon="6.01559">
        <ele>242</ele>
        <time>2023-03-22T09:44:31Z</time>
      </trkpt>
      <trkpt lat="43.16517" lon="6.01559">
        <ele>241.8</ele>
        <time>2023-03-22T09:44:37Z</time>
      </trkpt>
      <trkpt lat="43.16521" lon="6.01565">
        <ele>241.8</ele>
        <time>2023-03-22T09:44:43Z</time>
      </trkpt>
      <trkpt lat="43.1653" lon="6.01581">
        <ele>242</ele>
        <time>2023-03-22T09:44:50Z</time>
      </trkpt>
      <trkpt lat="43.16532" lon="6.01597">
        <ele>242.4</ele>
        <time>2023-03-22T09:44:56Z</time>
      </trkpt>
      <trkpt lat="43.16548" lon="6.01641">
        <ele>241.2</ele>
        <time>2023-03-22T09:45:08Z</time>
      </trkpt>
      <trkpt lat="43.1655" lon="6.01646">
        <ele>240.8</ele>
        <time>2023-03-22T09:45:09Z</time>
      </trkpt>
      <trkpt lat="43.16554" lon="6.01659">
        <ele>239.6</ele>
        <time>2023-03-22T09:45:12Z</time>
      </trkpt>
      <trkpt lat="43.16553" lon="6.01666">
        <ele>238.2</ele>
        <time>2023-03-22T09:45:14Z</time>
      </trkpt>
      <trkpt lat="43.16552" lon="6.0167">
        <ele>237</ele>
        <time>2023-03-22T09:45:16Z</time>
      </trkpt>
      <trkpt lat="43.1655" lon="6.01674">
        <ele>236</ele>
        <time>2023-03-22T09:45:18Z</time>
      </trkpt>
      <trkpt lat="43.16549" lon="6.0168">
        <ele>234.4</ele>
        <time>2023-03-22T09:45:20Z</time>
      </trkpt>
      <trkpt lat="43.16541" lon="6.01698">
        <ele>233.4</ele>
        <time>2023-03-22T09:45:25Z</time>
      </trkpt>
      <trkpt lat="43.16526" lon="6.01725">
        <ele>232.8</ele>
        <time>2023-03-22T09:45:34Z</time>
      </trkpt>
      <trkpt lat="43.1653" lon="6.01738">
        <ele>232.4</ele>
        <time>2023-03-22T09:45:38Z</time>
      </trkpt>
      <trkpt lat="43.16532" lon="6.01745">
        <ele>231.8</ele>
        <time>2023-03-22T09:45:41Z</time>
      </trkpt>
      <trkpt lat="43.16533" lon="6.01747">
        <ele>231.2</ele>
        <time>2023-03-22T09:45:42Z</time>
      </trkpt>
      <trkpt lat="43.16533" lon="6.01752">
        <ele>229.8</ele>
        <time>2023-03-22T09:45:44Z</time>
      </trkpt>
      <trkpt lat="43.16534" lon="6.01758">
        <ele>228.4</ele>
        <time>2023-03-22T09:45:46Z</time>
      </trkpt>
      <trkpt lat="43.16532" lon="6.01761">
        <ele>227.8</ele>
        <time>2023-03-22T09:45:47Z</time>
      </trkpt>
      <trkpt lat="43.16528" lon="6.01766">
        <ele>226.8</ele>
        <time>2023-03-22T09:45:49Z</time>
      </trkpt>
      <trkpt lat="43.16524" lon="6.01769">
        <ele>225</ele>
        <time>2023-03-22T09:45:51Z</time>
      </trkpt>
      <trkpt lat="43.16519" lon="6.01772">
        <ele>223.8</ele>
        <time>2023-03-22T09:45:53Z</time>
      </trkpt>
      <trkpt lat="43.16512" lon="6.01776">
        <ele>222.8</ele>
        <time>2023-03-22T09:45:55Z</time>
      </trkpt>
      <trkpt lat="43.16506" lon="6.01778">
        <ele>222.4</ele>
        <time>2023-03-22T09:45:57Z</time>
      </trkpt>
      <trkpt lat="43.16488" lon="6.0179">
        <ele>221</ele>
        <time>2023-03-22T09:46:03Z</time>
      </trkpt>
      <trkpt lat="43.16482" lon="6.01794">
        <ele>219.6</ele>
        <time>2023-03-22T09:46:06Z</time>
      </trkpt>
      <trkpt lat="43.16477" lon="6.01796">
        <ele>218.2</ele>
        <time>2023-03-22T09:46:08Z</time>
      </trkpt>
      <trkpt lat="43.16467" lon="6.018">
        <ele>217.2</ele>
        <time>2023-03-22T09:46:12Z</time>
      </trkpt>
      <trkpt lat="43.16465" lon="6.01822">
        <ele>216.8</ele>
        <time>2023-03-22T09:46:20Z</time>
      </trkpt>
      <trkpt lat="43.16466" lon="6.01827">
        <ele>216.8</ele>
        <time>2023-03-22T09:46:22Z</time>
      </trkpt>
      <trkpt lat="43.16472" lon="6.01848">
        <ele>217.2</ele>
        <time>2023-03-22T09:46:31Z</time>
      </trkpt>
      <trkpt lat="43.16465" lon="6.01893">
        <ele>217.8</ele>
        <time>2023-03-22T09:46:48Z</time>
      </trkpt>
      <trkpt lat="43.16463" lon="6.01897">
        <ele>218.6</ele>
        <time>2023-03-22T09:46:50Z</time>
      </trkpt>
      <trkpt lat="43.16461" lon="6.01902">
        <ele>219.6</ele>
        <time>2023-03-22T09:46:52Z</time>
      </trkpt>
      <trkpt lat="43.1646" lon="6.01915">
        <ele>220.6</ele>
        <time>2023-03-22T09:46:56Z</time>
      </trkpt>
      <trkpt lat="43.16456" lon="6.01955">
        <ele>219.6</ele>
        <time>2023-03-22T09:47:08Z</time>
      </trkpt>
      <trkpt lat="43.16455" lon="6.01958">
        <ele>219.2</ele>
        <time>2023-03-22T09:47:09Z</time>
      </trkpt>
      <trkpt lat="43.16453" lon="6.01965">
        <ele>218.6</ele>
        <time>2023-03-22T09:47:11Z</time>
      </trkpt>
      <trkpt lat="43.16448" lon="6.01994">
        <ele>217.4</ele>
        <time>2023-03-22T09:47:19Z</time>
      </trkpt>
      <trkpt lat="43.16446" lon="6.02">
        <ele>216.2</ele>
        <time>2023-03-22T09:47:21Z</time>
      </trkpt>
      <trkpt lat="43.16445" lon="6.02007">
        <ele>215</ele>
        <time>2023-03-22T09:47:23Z</time>
      </trkpt>
      <trkpt lat="43.16444" lon="6.02015">
        <ele>213.8</ele>
        <time>2023-03-22T09:47:25Z</time>
      </trkpt>
      <trkpt lat="43.16437" lon="6.02028">
        <ele>212.6</ele>
        <time>2023-03-22T09:47:29Z</time>
      </trkpt>
      <trkpt lat="43.16436" lon="6.02033">
        <ele>212</ele>
        <time>2023-03-22T09:47:31Z</time>
      </trkpt>
      <trkpt lat="43.16436" lon="6.02036">
        <ele>211.4</ele>
        <time>2023-03-22T09:47:32Z</time>
      </trkpt>
      <trkpt lat="43.16431" lon="6.02041">
        <ele>210</ele>
        <time>2023-03-22T09:47:35Z</time>
      </trkpt>
      <trkpt lat="43.16426" lon="6.02042">
        <ele>208.8</ele>
        <time>2023-03-22T09:47:38Z</time>
      </trkpt>
      <trkpt lat="43.1642" lon="6.02044">
        <ele>207.8</ele>
        <time>2023-03-22T09:47:41Z</time>
      </trkpt>
      <trkpt lat="43.16414" lon="6.0205">
        <ele>207.4</ele>
        <time>2023-03-22T09:47:44Z</time>
      </trkpt>
      <trkpt lat="43.16413" lon="6.02053">
        <ele>207</ele>
        <time>2023-03-22T09:47:45Z</time>
      </trkpt>
      <trkpt lat="43.16408" lon="6.0206">
        <ele>206.6</ele>
        <time>2023-03-22T09:47:47Z</time>
      </trkpt>
      <trkpt lat="43.16403" lon="6.02061">
        <ele>206.4</ele>
        <time>2023-03-22T09:47:50Z</time>
      </trkpt>
      <trkpt lat="43.1639" lon="6.02073">
        <ele>205.4</ele>
        <time>2023-03-22T09:47:58Z</time>
      </trkpt>
      <trkpt lat="43.16378" lon="6.02081">
        <ele>204</ele>
        <time>2023-03-22T09:48:04Z</time>
      </trkpt>
      <trkpt lat="43.16369" lon="6.02085">
        <ele>203.4</ele>
        <time>2023-03-22T09:48:08Z</time>
      </trkpt>
      <trkpt lat="43.16357" lon="6.02081">
        <ele>203.4</ele>
        <time>2023-03-22T09:48:14Z</time>
      </trkpt>
      <trkpt lat="43.16356" lon="6.02081">
        <ele>205</ele>
        <time>2023-03-22T09:48:19Z</time>
      </trkpt>
      <trkpt lat="43.16356" lon="6.02081">
        <ele>206.2</ele>
        <time>2023-03-22T09:48:22Z</time>
      </trkpt>
      <trkpt lat="43.16354" lon="6.02081">
        <ele>206.8</ele>
        <time>2023-03-22T09:48:29Z</time>
      </trkpt>
      <trkpt lat="43.16342" lon="6.02078">
        <ele>207</ele>
        <time>2023-03-22T09:48:35Z</time>
      </trkpt>
      <trkpt lat="43.16338" lon="6.02078">
        <ele>207.2</ele>
        <time>2023-03-22T09:48:37Z</time>
      </trkpt>
      <trkpt lat="43.16332" lon="6.02079">
        <ele>208.2</ele>
        <time>2023-03-22T09:48:40Z</time>
      </trkpt>
      <trkpt lat="43.16322" lon="6.02079">
        <ele>209.2</ele>
        <time>2023-03-22T09:48:44Z</time>
      </trkpt>
      <trkpt lat="43.16268" lon="6.02078">
        <ele>208.6</ele>
        <time>2023-03-22T09:49:03Z</time>
      </trkpt>
      <trkpt lat="43.16242" lon="6.02072">
        <ele>209</ele>
        <time>2023-03-22T09:49:13Z</time>
      </trkpt>
      <trkpt lat="43.16221" lon="6.02064">
        <ele>209</ele>
        <time>2023-03-22T09:49:19Z</time>
      </trkpt>
      <trkpt lat="43.16179" lon="6.02042">
        <ele>208.6</ele>
        <time>2023-03-22T09:49:29Z</time>
      </trkpt>
      <trkpt lat="43.16171" lon="6.02036">
        <ele>208.2</ele>
        <time>2023-03-22T09:49:31Z</time>
      </trkpt>
      <trkpt lat="43.16153" lon="6.02023">
        <ele>207</ele>
        <time>2023-03-22T09:49:35Z</time>
      </trkpt>
      <trkpt lat="43.16131" lon="6.02007">
        <ele>206</ele>
        <time>2023-03-22T09:49:40Z</time>
      </trkpt>
      <trkpt lat="43.16098" lon="6.01983">
        <ele>205</ele>
        <time>2023-03-22T09:49:48Z</time>
      </trkpt>
      <trkpt lat="43.16062" lon="6.0196">
        <ele>204.4</ele>
        <time>2023-03-22T09:49:59Z</time>
      </trkpt>
      <trkpt lat="43.16052" lon="6.01953">
        <ele>206</ele>
        <time>2023-03-22T09:50:03Z</time>
      </trkpt>
      <trkpt lat="43.16046" lon="6.01949">
        <ele>206.6</ele>
        <time>2023-03-22T09:50:05Z</time>
      </trkpt>
      <trkpt lat="43.16033" lon="6.0194">
        <ele>207.2</ele>
        <time>2023-03-22T09:50:09Z</time>
      </trkpt>
      <trkpt lat="43.15999" lon="6.01909">
        <ele>208.2</ele>
        <time>2023-03-22T09:50:20Z</time>
      </trkpt>
      <trkpt lat="43.15996" lon="6.01907">
        <ele>208.4</ele>
        <time>2023-03-22T09:50:21Z</time>
      </trkpt>
      <trkpt lat="43.15964" lon="6.01882">
        <ele>208.8</ele>
        <time>2023-03-22T09:50:29Z</time>
      </trkpt>
      <trkpt lat="43.15948" lon="6.01868">
        <ele>208.6</ele>
        <time>2023-03-22T09:50:33Z</time>
      </trkpt>
      <trkpt lat="43.15935" lon="6.0185">
        <ele>208.6</ele>
        <time>2023-03-22T09:50:37Z</time>
      </trkpt>
      <trkpt lat="43.15888" lon="6.01808">
        <ele>208.2</ele>
        <time>2023-03-22T09:50:49Z</time>
      </trkpt>
      <trkpt lat="43.15836" lon="6.01776">
        <ele>208.8</ele>
        <time>2023-03-22T09:51:02Z</time>
      </trkpt>
      <trkpt lat="43.15814" lon="6.01763">
        <ele>209</ele>
        <time>2023-03-22T09:51:08Z</time>
      </trkpt>
      <trkpt lat="43.15799" lon="6.01754">
        <ele>209</ele>
        <time>2023-03-22T09:51:12Z</time>
      </trkpt>
      <trkpt lat="43.15762" lon="6.01735">
        <ele>209.2</ele>
        <time>2023-03-22T09:51:20Z</time>
      </trkpt>
      <trkpt lat="43.15743" lon="6.01726">
        <ele>209</ele>
        <time>2023-03-22T09:51:24Z</time>
      </trkpt>
      <trkpt lat="43.15718" lon="6.01717">
        <ele>208.8</ele>
        <time>2023-03-22T09:51:29Z</time>
      </trkpt>
      <trkpt lat="43.15709" lon="6.01712">
        <ele>208.6</ele>
        <time>2023-03-22T09:51:31Z</time>
      </trkpt>
      <trkpt lat="43.15706" lon="6.01708">
        <ele>208.4</ele>
        <time>2023-03-22T09:51:32Z</time>
      </trkpt>
      <trkpt lat="43.1569" lon="6.01689">
        <ele>208.2</ele>
        <time>2023-03-22T09:51:37Z</time>
      </trkpt>
      <trkpt lat="43.15682" lon="6.01677">
        <ele>208.2</ele>
        <time>2023-03-22T09:51:40Z</time>
      </trkpt>
      <trkpt lat="43.15671" lon="6.01658">
        <ele>208</ele>
        <time>2023-03-22T09:51:44Z</time>
      </trkpt>
      <trkpt lat="43.15648" lon="6.01619">
        <ele>208</ele>
        <time>2023-03-22T09:51:52Z</time>
      </trkpt>
      <trkpt lat="43.15624" lon="6.01584">
        <ele>207.8</ele>
        <time>2023-03-22T09:52:00Z</time>
      </trkpt>
      <trkpt lat="43.15589" lon="6.0153">
        <ele>207.8</ele>
        <time>2023-03-22T09:52:10Z</time>
      </trkpt>
      <trkpt lat="43.15581" lon="6.01519">
        <ele>207.6</ele>
        <time>2023-03-22T09:52:12Z</time>
      </trkpt>
      <trkpt lat="43.1557" lon="6.01502">
        <ele>206.8</ele>
        <time>2023-03-22T09:52:15Z</time>
      </trkpt>
      <trkpt lat="43.15533" lon="6.01451">
        <ele>207.6</ele>
        <time>2023-03-22T09:52:28Z</time>
      </trkpt>
      <trkpt lat="43.15519" lon="6.0143">
        <ele>208.4</ele>
        <time>2023-03-22T09:52:34Z</time>
      </trkpt>
      <trkpt lat="43.15517" lon="6.01426">
        <ele>208.4</ele>
        <time>2023-03-22T09:52:35Z</time>
      </trkpt>
      <trkpt lat="43.15509" lon="6.01415">
        <ele>208.6</ele>
        <time>2023-03-22T09:52:38Z</time>
      </trkpt>
      <trkpt lat="43.15487" lon="6.01369">
        <ele>209</ele>
        <time>2023-03-22T09:52:50Z</time>
      </trkpt>
      <trkpt lat="43.15479" lon="6.01351">
        <ele>209.6</ele>
        <time>2023-03-22T09:53:00Z</time>
      </trkpt>
      <trkpt lat="43.15473" lon="6.01335">
        <ele>209.8</ele>
        <time>2023-03-22T09:53:09Z</time>
      </trkpt>
      <trkpt lat="43.15477" lon="6.01324">
        <ele>210.2</ele>
        <time>2023-03-22T09:53:15Z</time>
      </trkpt>
      <trkpt lat="43.15479" lon="6.01315">
        <ele>211</ele>
        <time>2023-03-22T09:53:18Z</time>
      </trkpt>
      <trkpt lat="43.15482" lon="6.01306">
        <ele>212.8</ele>
        <time>2023-03-22T09:53:22Z</time>
      </trkpt>
      <trkpt lat="43.15484" lon="6.01298">
        <ele>214.2</ele>
        <time>2023-03-22T09:53:25Z</time>
      </trkpt>
      <trkpt lat="43.15486" lon="6.01292">
        <ele>215.8</ele>
        <time>2023-03-22T09:53:27Z</time>
      </trkpt>
      <trkpt lat="43.15489" lon="6.01286">
        <ele>217</ele>
        <time>2023-03-22T09:53:30Z</time>
      </trkpt>
      <trkpt lat="43.15492" lon="6.01277">
        <ele>218.4</ele>
        <time>2023-03-22T09:53:33Z</time>
      </trkpt>
      <trkpt lat="43.15495" lon="6.01264">
        <ele>219.8</ele>
        <time>2023-03-22T09:53:37Z</time>
      </trkpt>
      <trkpt lat="43.15497" lon="6.01255">
        <ele>221.2</ele>
        <time>2023-03-22T09:53:40Z</time>
      </trkpt>
      <trkpt lat="43.15497" lon="6.01253">
        <ele>221.6</ele>
        <time>2023-03-22T09:53:41Z</time>
      </trkpt>
      <trkpt lat="43.15495" lon="6.01248">
        <ele>222.6</ele>
        <time>2023-03-22T09:53:43Z</time>
      </trkpt>
      <trkpt lat="43.15493" lon="6.01239">
        <ele>224.2</ele>
        <time>2023-03-22T09:53:46Z</time>
      </trkpt>
      <trkpt lat="43.15489" lon="6.01225">
        <ele>225.6</ele>
        <time>2023-03-22T09:53:50Z</time>
      </trkpt>
      <trkpt lat="43.15481" lon="6.01193">
        <ele>227</ele>
        <time>2023-03-22T09:54:00Z</time>
      </trkpt>
      <trkpt lat="43.15477" lon="6.01177">
        <ele>228.8</ele>
        <time>2023-03-22T09:54:05Z</time>
      </trkpt>
      <trkpt lat="43.15475" lon="6.01163">
        <ele>230.2</ele>
        <time>2023-03-22T09:54:09Z</time>
      </trkpt>
      <trkpt lat="43.15474" lon="6.01145">
        <ele>231.6</ele>
        <time>2023-03-22T09:54:14Z</time>
      </trkpt>
      <trkpt lat="43.15475" lon="6.01116">
        <ele>233.2</ele>
        <time>2023-03-22T09:54:23Z</time>
      </trkpt>
      <trkpt lat="43.15474" lon="6.01108">
        <ele>234.6</ele>
        <time>2023-03-22T09:54:26Z</time>
      </trkpt>
      <trkpt lat="43.15472" lon="6.01103">
        <ele>235.8</ele>
        <time>2023-03-22T09:54:28Z</time>
      </trkpt>
      <trkpt lat="43.15469" lon="6.01096">
        <ele>236.8</ele>
        <time>2023-03-22T09:54:31Z</time>
      </trkpt>
      <trkpt lat="43.15465" lon="6.01089">
        <ele>238.4</ele>
        <time>2023-03-22T09:54:34Z</time>
      </trkpt>
      <trkpt lat="43.15461" lon="6.01085">
        <ele>239.4</ele>
        <time>2023-03-22T09:54:36Z</time>
      </trkpt>
      <trkpt lat="43.15455" lon="6.01077">
        <ele>241.2</ele>
        <time>2023-03-22T09:54:40Z</time>
      </trkpt>
      <trkpt lat="43.15451" lon="6.0107">
        <ele>242.4</ele>
        <time>2023-03-22T09:54:43Z</time>
      </trkpt>
      <trkpt lat="43.15445" lon="6.01062">
        <ele>243.8</ele>
        <time>2023-03-22T09:54:47Z</time>
      </trkpt>
      <trkpt lat="43.1544" lon="6.01056">
        <ele>245.2</ele>
        <time>2023-03-22T09:54:50Z</time>
      </trkpt>
      <trkpt lat="43.15434" lon="6.01052">
        <ele>246.4</ele>
        <time>2023-03-22T09:54:53Z</time>
      </trkpt>
      <trkpt lat="43.15425" lon="6.01047">
        <ele>247.8</ele>
        <time>2023-03-22T09:54:57Z</time>
      </trkpt>
      <trkpt lat="43.15416" lon="6.01045">
        <ele>249.2</ele>
        <time>2023-03-22T09:55:01Z</time>
      </trkpt>
      <trkpt lat="43.15395" lon="6.01034">
        <ele>250.2</ele>
        <time>2023-03-22T09:55:07Z</time>
      </trkpt>
      <trkpt lat="43.15378" lon="6.01017">
        <ele>249.8</ele>
        <time>2023-03-22T09:55:12Z</time>
      </trkpt>
      <trkpt lat="43.15369" lon="6.00998">
        <ele>249.4</ele>
        <time>2023-03-22T09:55:17Z</time>
      </trkpt>
      <trkpt lat="43.15361" lon="6.00937">
        <ele>252</ele>
        <time>2023-03-22T09:55:33Z</time>
      </trkpt>
      <trkpt lat="43.15361" lon="6.00927">
        <ele>253.2</ele>
        <time>2023-03-22T09:55:36Z</time>
      </trkpt>
      <trkpt lat="43.15359" lon="6.00918">
        <ele>254.4</ele>
        <time>2023-03-22T09:55:39Z</time>
      </trkpt>
      <trkpt lat="43.15359" lon="6.00907">
        <ele>255.6</ele>
        <time>2023-03-22T09:55:42Z</time>
      </trkpt>
      <trkpt lat="43.15355" lon="6.00897">
        <ele>257</ele>
        <time>2023-03-22T09:55:45Z</time>
      </trkpt>
      <trkpt lat="43.15342" lon="6.00872">
        <ele>257.8</ele>
        <time>2023-03-22T09:55:55Z</time>
      </trkpt>
      <trkpt lat="43.15343" lon="6.0086">
        <ele>257.8</ele>
        <time>2023-03-22T09:56:00Z</time>
      </trkpt>
      <trkpt lat="43.15342" lon="6.00856">
        <ele>257.8</ele>
        <time>2023-03-22T09:56:02Z</time>
      </trkpt>
      <trkpt lat="43.1534" lon="6.0084">
        <ele>256</ele>
        <time>2023-03-22T09:56:09Z</time>
      </trkpt>
      <trkpt lat="43.1534" lon="6.00833">
        <ele>254.6</ele>
        <time>2023-03-22T09:56:11Z</time>
      </trkpt>
      <trkpt lat="43.15341" lon="6.00826">
        <ele>253.4</ele>
        <time>2023-03-22T09:56:13Z</time>
      </trkpt>
      <trkpt lat="43.15344" lon="6.0082">
        <ele>252.2</ele>
        <time>2023-03-22T09:56:15Z</time>
      </trkpt>
      <trkpt lat="43.15347" lon="6.00816">
        <ele>251</ele>
        <time>2023-03-22T09:56:17Z</time>
      </trkpt>
      <trkpt lat="43.1535" lon="6.00811">
        <ele>248</ele>
        <time>2023-03-22T09:56:19Z</time>
      </trkpt>
      <trkpt lat="43.15352" lon="6.00807">
        <ele>246.2</ele>
        <time>2023-03-22T09:56:21Z</time>
      </trkpt>
      <trkpt lat="43.15353" lon="6.00801">
        <ele>245</ele>
        <time>2023-03-22T09:56:23Z</time>
      </trkpt>
      <trkpt lat="43.15355" lon="6.00795">
        <ele>243.6</ele>
        <time>2023-03-22T09:56:25Z</time>
      </trkpt>
      <trkpt lat="43.15356" lon="6.00789">
        <ele>242.8</ele>
        <time>2023-03-22T09:56:27Z</time>
      </trkpt>
      <trkpt lat="43.15357" lon="6.00786">
        <ele>242.6</ele>
        <time>2023-03-22T09:56:28Z</time>
      </trkpt>
      <trkpt lat="43.15356" lon="6.00778">
        <ele>241.4</ele>
        <time>2023-03-22T09:56:30Z</time>
      </trkpt>
      <trkpt lat="43.1535" lon="6.00771">
        <ele>240</ele>
        <time>2023-03-22T09:56:32Z</time>
      </trkpt>
      <trkpt lat="43.15349" lon="6.00766">
        <ele>239.4</ele>
        <time>2023-03-22T09:56:33Z</time>
      </trkpt>
      <trkpt lat="43.15348" lon="6.00761">
        <ele>238.8</ele>
        <time>2023-03-22T09:56:34Z</time>
      </trkpt>
      <trkpt lat="43.15345" lon="6.00754">
        <ele>236.8</ele>
        <time>2023-03-22T09:56:36Z</time>
      </trkpt>
      <trkpt lat="43.15341" lon="6.00749">
        <ele>235.4</ele>
        <time>2023-03-22T09:56:38Z</time>
      </trkpt>
      <trkpt lat="43.15338" lon="6.00747">
        <ele>234.8</ele>
        <time>2023-03-22T09:56:39Z</time>
      </trkpt>
      <trkpt lat="43.15324" lon="6.0071">
        <ele>234.4</ele>
        <time>2023-03-22T09:56:52Z</time>
      </trkpt>
      <trkpt lat="43.15322" lon="6.00693">
        <ele>236.6</ele>
        <time>2023-03-22T09:56:59Z</time>
      </trkpt>
      <trkpt lat="43.15321" lon="6.00687">
        <ele>238</ele>
        <time>2023-03-22T09:57:01Z</time>
      </trkpt>
      <trkpt lat="43.1532" lon="6.00681">
        <ele>239.2</ele>
        <time>2023-03-22T09:57:03Z</time>
      </trkpt>
      <trkpt lat="43.1532" lon="6.00676">
        <ele>240.6</ele>
        <time>2023-03-22T09:57:05Z</time>
      </trkpt>
      <trkpt lat="43.1532" lon="6.0067">
        <ele>241.6</ele>
        <time>2023-03-22T09:57:07Z</time>
      </trkpt>
      <trkpt lat="43.1532" lon="6.00662">
        <ele>242.8</ele>
        <time>2023-03-22T09:57:10Z</time>
      </trkpt>
      <trkpt lat="43.15319" lon="6.00653">
        <ele>244.2</ele>
        <time>2023-03-22T09:57:13Z</time>
      </trkpt>
      <trkpt lat="43.15318" lon="6.00645">
        <ele>245.4</ele>
        <time>2023-03-22T09:57:16Z</time>
      </trkpt>
      <trkpt lat="43.15318" lon="6.00636">
        <ele>246.6</ele>
        <time>2023-03-22T09:57:19Z</time>
      </trkpt>
      <trkpt lat="43.15317" lon="6.00631">
        <ele>247.8</ele>
        <time>2023-03-22T09:57:21Z</time>
      </trkpt>
      <trkpt lat="43.15316" lon="6.00625">
        <ele>248.8</ele>
        <time>2023-03-22T09:57:23Z</time>
      </trkpt>
      <trkpt lat="43.15314" lon="6.00619">
        <ele>249.8</ele>
        <time>2023-03-22T09:57:25Z</time>
      </trkpt>
      <trkpt lat="43.15313" lon="6.00614">
        <ele>251</ele>
        <time>2023-03-22T09:57:27Z</time>
      </trkpt>
      <trkpt lat="43.15313" lon="6.00608">
        <ele>252</ele>
        <time>2023-03-22T09:57:29Z</time>
      </trkpt>
      <trkpt lat="43.15315" lon="6.00592">
        <ele>253.4</ele>
        <time>2023-03-22T09:57:35Z</time>
      </trkpt>
      <trkpt lat="43.15313" lon="6.00583">
        <ele>254.4</ele>
        <time>2023-03-22T09:57:39Z</time>
      </trkpt>
      <trkpt lat="43.15309" lon="6.00572">
        <ele>255.6</ele>
        <time>2023-03-22T09:57:43Z</time>
      </trkpt>
      <trkpt lat="43.15306" lon="6.00545">
        <ele>256.6</ele>
        <time>2023-03-22T09:57:53Z</time>
      </trkpt>
      <trkpt lat="43.15305" lon="6.00531">
        <ele>257.8</ele>
        <time>2023-03-22T09:57:58Z</time>
      </trkpt>
      <trkpt lat="43.15307" lon="6.00524">
        <ele>258.8</ele>
        <time>2023-03-22T09:58:01Z</time>
      </trkpt>
      <trkpt lat="43.15307" lon="6.00505">
        <ele>259.8</ele>
        <time>2023-03-22T09:58:08Z</time>
      </trkpt>
      <trkpt lat="43.15308" lon="6.00496">
        <ele>259.8</ele>
        <time>2023-03-22T09:58:10Z</time>
      </trkpt>
      <trkpt lat="43.1532" lon="6.00465">
        <ele>259.8</ele>
        <time>2023-03-22T09:58:16Z</time>
      </trkpt>
      <trkpt lat="43.15325" lon="6.00445">
        <ele>259.2</ele>
        <time>2023-03-22T09:58:19Z</time>
      </trkpt>
      <trkpt lat="43.1533" lon="6.00431">
        <ele>258.6</ele>
        <time>2023-03-22T09:58:21Z</time>
      </trkpt>
      <trkpt lat="43.15333" lon="6.00413">
        <ele>257.4</ele>
        <time>2023-03-22T09:58:23Z</time>
      </trkpt>
      <trkpt lat="43.15335" lon="6.00402">
        <ele>257</ele>
        <time>2023-03-22T09:58:24Z</time>
      </trkpt>
      <trkpt lat="43.1534" lon="6.00381">
        <ele>255.8</ele>
        <time>2023-03-22T09:58:26Z</time>
      </trkpt>
      <trkpt lat="43.15344" lon="6.00359">
        <ele>253.8</ele>
        <time>2023-03-22T09:58:28Z</time>
      </trkpt>
      <trkpt lat="43.15346" lon="6.00349">
        <ele>252.6</ele>
        <time>2023-03-22T09:58:29Z</time>
      </trkpt>
      <trkpt lat="43.15348" lon="6.00339">
        <ele>251.6</ele>
        <time>2023-03-22T09:58:30Z</time>
      </trkpt>
      <trkpt lat="43.1535" lon="6.00329">
        <ele>250.2</ele>
        <time>2023-03-22T09:58:31Z</time>
      </trkpt>
      <trkpt lat="43.15352" lon="6.0032">
        <ele>248.8</ele>
        <time>2023-03-22T09:58:32Z</time>
      </trkpt>
      <trkpt lat="43.15354" lon="6.00312">
        <ele>247.8</ele>
        <time>2023-03-22T09:58:33Z</time>
      </trkpt>
      <trkpt lat="43.15355" lon="6.00304">
        <ele>247</ele>
        <time>2023-03-22T09:58:34Z</time>
      </trkpt>
      <trkpt lat="43.15353" lon="6.00288">
        <ele>245.8</ele>
        <time>2023-03-22T09:58:36Z</time>
      </trkpt>
      <trkpt lat="43.15352" lon="6.00279">
        <ele>244.4</ele>
        <time>2023-03-22T09:58:37Z</time>
      </trkpt>
      <trkpt lat="43.15363" lon="6.00247">
        <ele>243</ele>
        <time>2023-03-22T09:58:41Z</time>
      </trkpt>
      <trkpt lat="43.15368" lon="6.00232">
        <ele>241.8</ele>
        <time>2023-03-22T09:58:43Z</time>
      </trkpt>
      <trkpt lat="43.15371" lon="6.00226">
        <ele>240.6</ele>
        <time>2023-03-22T09:58:44Z</time>
      </trkpt>
      <trkpt lat="43.15382" lon="6.00217">
        <ele>239</ele>
        <time>2023-03-22T09:58:46Z</time>
      </trkpt>
      <trkpt lat="43.15398" lon="6.00215">
        <ele>238.2</ele>
        <time>2023-03-22T09:58:49Z</time>
      </trkpt>
      <trkpt lat="43.15401" lon="6.00215">
        <ele>237.6</ele>
        <time>2023-03-22T09:58:50Z</time>
      </trkpt>
      <trkpt lat="43.15412" lon="6.0021">
        <ele>236</ele>
        <time>2023-03-22T09:58:55Z</time>
      </trkpt>
      <trkpt lat="43.15404" lon="6.00201">
        <ele>235.2</ele>
        <time>2023-03-22T09:58:59Z</time>
      </trkpt>
      <trkpt lat="43.154" lon="6.00199">
        <ele>235</ele>
        <time>2023-03-22T09:59:00Z</time>
      </trkpt>
      <trkpt lat="43.15396" lon="6.00195">
        <ele>234.8</ele>
        <time>2023-03-22T09:59:01Z</time>
      </trkpt>
      <trkpt lat="43.15392" lon="6.00191">
        <ele>234.8</ele>
        <time>2023-03-22T09:59:02Z</time>
      </trkpt>
      <trkpt lat="43.15384" lon="6.00181">
        <ele>234.8</ele>
        <time>2023-03-22T09:59:04Z</time>
      </trkpt>
      <trkpt lat="43.15371" lon="6.00158">
        <ele>233.6</ele>
        <time>2023-03-22T09:59:07Z</time>
      </trkpt>
      <trkpt lat="43.15363" lon="6.00142">
        <ele>231.8</ele>
        <time>2023-03-22T09:59:09Z</time>
      </trkpt>
      <trkpt lat="43.15358" lon="6.00137">
        <ele>230.6</ele>
        <time>2023-03-22T09:59:10Z</time>
      </trkpt>
      <trkpt lat="43.15354" lon="6.00132">
        <ele>229.2</ele>
        <time>2023-03-22T09:59:11Z</time>
      </trkpt>
      <trkpt lat="43.1535" lon="6.00129">
        <ele>226.4</ele>
        <time>2023-03-22T09:59:12Z</time>
      </trkpt>
      <trkpt lat="43.15346" lon="6.00126">
        <ele>225.8</ele>
        <time>2023-03-22T09:59:13Z</time>
      </trkpt>
      <trkpt lat="43.15342" lon="6.00123">
        <ele>225.4</ele>
        <time>2023-03-22T09:59:14Z</time>
      </trkpt>
      <trkpt lat="43.15338" lon="6.0012">
        <ele>225.2</ele>
        <time>2023-03-22T09:59:15Z</time>
      </trkpt>
      <trkpt lat="43.15336" lon="6.00101">
        <ele>225</ele>
        <time>2023-03-22T09:59:19Z</time>
      </trkpt>
      <trkpt lat="43.15337" lon="6.00097">
        <ele>225</ele>
        <time>2023-03-22T09:59:20Z</time>
      </trkpt>
      <trkpt lat="43.15335" lon="6.00078">
        <ele>224.8</ele>
        <time>2023-03-22T09:59:24Z</time>
      </trkpt>
      <trkpt lat="43.15313" lon="6.00075">
        <ele>224.4</ele>
        <time>2023-03-22T09:59:31Z</time>
      </trkpt>
      <trkpt lat="43.15304" lon="6.00074">
        <ele>223.2</ele>
        <time>2023-03-22T09:59:33Z</time>
      </trkpt>
      <trkpt lat="43.15298" lon="6.00069">
        <ele>221.6</ele>
        <time>2023-03-22T09:59:35Z</time>
      </trkpt>
      <trkpt lat="43.15294" lon="6.00059">
        <ele>220.2</ele>
        <time>2023-03-22T09:59:37Z</time>
      </trkpt>
      <trkpt lat="43.15293" lon="6.00053">
        <ele>219.6</ele>
        <time>2023-03-22T09:59:38Z</time>
      </trkpt>
      <trkpt lat="43.15291" lon="6.00045">
        <ele>219</ele>
        <time>2023-03-22T09:59:39Z</time>
      </trkpt>
      <trkpt lat="43.15288" lon="6.00027">
        <ele>217.4</ele>
        <time>2023-03-22T09:59:41Z</time>
      </trkpt>
      <trkpt lat="43.15288" lon="6.00017">
        <ele>216.4</ele>
        <time>2023-03-22T09:59:42Z</time>
      </trkpt>
      <trkpt lat="43.15288" lon="5.99996">
        <ele>215</ele>
        <time>2023-03-22T09:59:44Z</time>
      </trkpt>
      <trkpt lat="43.15289" lon="5.99975">
        <ele>212.8</ele>
        <time>2023-03-22T09:59:46Z</time>
      </trkpt>
      <trkpt lat="43.1529" lon="5.99965">
        <ele>211.8</ele>
        <time>2023-03-22T09:59:47Z</time>
      </trkpt>
      <trkpt lat="43.15291" lon="5.99955">
        <ele>210.4</ele>
        <time>2023-03-22T09:59:48Z</time>
      </trkpt>
      <trkpt lat="43.15293" lon="5.99945">
        <ele>209.8</ele>
        <time>2023-03-22T09:59:49Z</time>
      </trkpt>
      <trkpt lat="43.15295" lon="5.99936">
        <ele>209.4</ele>
        <time>2023-03-22T09:59:50Z</time>
      </trkpt>
      <trkpt lat="43.15301" lon="5.99898">
        <ele>208</ele>
        <time>2023-03-22T09:59:54Z</time>
      </trkpt>
      <trkpt lat="43.15312" lon="5.99821">
        <ele>207.2</ele>
        <time>2023-03-22T10:00:00Z</time>
      </trkpt>
      <trkpt lat="43.15314" lon="5.99806">
        <ele>206.8</ele>
        <time>2023-03-22T10:00:01Z</time>
      </trkpt>
      <trkpt lat="43.15319" lon="5.99776">
        <ele>204.8</ele>
        <time>2023-03-22T10:00:03Z</time>
      </trkpt>
      <trkpt lat="43.15321" lon="5.99761">
        <ele>203.8</ele>
        <time>2023-03-22T10:00:04Z</time>
      </trkpt>
      <trkpt lat="43.15323" lon="5.99745">
        <ele>202.6</ele>
        <time>2023-03-22T10:00:05Z</time>
      </trkpt>
      <trkpt lat="43.15325" lon="5.99729">
        <ele>201.2</ele>
        <time>2023-03-22T10:00:06Z</time>
      </trkpt>
      <trkpt lat="43.15328" lon="5.99713">
        <ele>199</ele>
        <time>2023-03-22T10:00:07Z</time>
      </trkpt>
      <trkpt lat="43.1533" lon="5.99698">
        <ele>196.8</ele>
        <time>2023-03-22T10:00:08Z</time>
      </trkpt>
      <trkpt lat="43.15333" lon="5.99683">
        <ele>195</ele>
        <time>2023-03-22T10:00:09Z</time>
      </trkpt>
      <trkpt lat="43.15337" lon="5.99668">
        <ele>193.2</ele>
        <time>2023-03-22T10:00:10Z</time>
      </trkpt>
      <trkpt lat="43.15342" lon="5.99654">
        <ele>191.6</ele>
        <time>2023-03-22T10:00:11Z</time>
      </trkpt>
      <trkpt lat="43.15347" lon="5.9964">
        <ele>190</ele>
        <time>2023-03-22T10:00:12Z</time>
      </trkpt>
      <trkpt lat="43.15353" lon="5.99628">
        <ele>188.6</ele>
        <time>2023-03-22T10:00:13Z</time>
      </trkpt>
      <trkpt lat="43.15357" lon="5.9962">
        <ele>186.8</ele>
        <time>2023-03-22T10:00:14Z</time>
      </trkpt>
      <trkpt lat="43.15362" lon="5.99611">
        <ele>185.4</ele>
        <time>2023-03-22T10:00:16Z</time>
      </trkpt>
      <trkpt lat="43.15364" lon="5.99606">
        <ele>185.2</ele>
        <time>2023-03-22T10:00:18Z</time>
      </trkpt>
      <trkpt lat="43.15368" lon="5.996">
        <ele>184.6</ele>
        <time>2023-03-22T10:00:20Z</time>
      </trkpt>
      <trkpt lat="43.15371" lon="5.99596">
        <ele>184</ele>
        <time>2023-03-22T10:00:21Z</time>
      </trkpt>
      <trkpt lat="43.1538" lon="5.9958">
        <ele>183</ele>
        <time>2023-03-22T10:00:24Z</time>
      </trkpt>
      <trkpt lat="43.15386" lon="5.99524">
        <ele>182.2</ele>
        <time>2023-03-22T10:00:30Z</time>
      </trkpt>
      <trkpt lat="43.15387" lon="5.99502">
        <ele>181.8</ele>
        <time>2023-03-22T10:00:32Z</time>
      </trkpt>
      <trkpt lat="43.15389" lon="5.99477">
        <ele>180</ele>
        <time>2023-03-22T10:00:34Z</time>
      </trkpt>
      <trkpt lat="43.15391" lon="5.9945">
        <ele>178.8</ele>
        <time>2023-03-22T10:00:36Z</time>
      </trkpt>
      <trkpt lat="43.15394" lon="5.99423">
        <ele>177.2</ele>
        <time>2023-03-22T10:00:38Z</time>
      </trkpt>
      <trkpt lat="43.15395" lon="5.99411">
        <ele>175.8</ele>
        <time>2023-03-22T10:00:39Z</time>
      </trkpt>
      <trkpt lat="43.15396" lon="5.994">
        <ele>174.6</ele>
        <time>2023-03-22T10:00:40Z</time>
      </trkpt>
      <trkpt lat="43.15397" lon="5.99389">
        <ele>173.2</ele>
        <time>2023-03-22T10:00:41Z</time>
      </trkpt>
      <trkpt lat="43.15398" lon="5.99377">
        <ele>171.8</ele>
        <time>2023-03-22T10:00:42Z</time>
      </trkpt>
      <trkpt lat="43.154" lon="5.99351">
        <ele>170.6</ele>
        <time>2023-03-22T10:00:44Z</time>
      </trkpt>
      <trkpt lat="43.15398" lon="5.99323">
        <ele>168.2</ele>
        <time>2023-03-22T10:00:46Z</time>
      </trkpt>
      <trkpt lat="43.15394" lon="5.99292">
        <ele>167</ele>
        <time>2023-03-22T10:00:48Z</time>
      </trkpt>
      <trkpt lat="43.1539" lon="5.99263">
        <ele>165.2</ele>
        <time>2023-03-22T10:00:50Z</time>
      </trkpt>
      <trkpt lat="43.15387" lon="5.9925">
        <ele>164</ele>
        <time>2023-03-22T10:00:51Z</time>
      </trkpt>
      <trkpt lat="43.15384" lon="5.99237">
        <ele>162.4</ele>
        <time>2023-03-22T10:00:52Z</time>
      </trkpt>
      <trkpt lat="43.1538" lon="5.99224">
        <ele>160.6</ele>
        <time>2023-03-22T10:00:53Z</time>
      </trkpt>
      <trkpt lat="43.15375" lon="5.99211">
        <ele>158.8</ele>
        <time>2023-03-22T10:00:54Z</time>
      </trkpt>
      <trkpt lat="43.15368" lon="5.99198">
        <ele>157</ele>
        <time>2023-03-22T10:00:55Z</time>
      </trkpt>
      <trkpt lat="43.15362" lon="5.99186">
        <ele>154.4</ele>
        <time>2023-03-22T10:00:56Z</time>
      </trkpt>
      <trkpt lat="43.15354" lon="5.99175">
        <ele>153.2</ele>
        <time>2023-03-22T10:00:57Z</time>
      </trkpt>
      <trkpt lat="43.15347" lon="5.99164">
        <ele>152.2</ele>
        <time>2023-03-22T10:00:58Z</time>
      </trkpt>
      <trkpt lat="43.15339" lon="5.99155">
        <ele>151</ele>
        <time>2023-03-22T10:00:59Z</time>
      </trkpt>
      <trkpt lat="43.15331" lon="5.99148">
        <ele>149.8</ele>
        <time>2023-03-22T10:01:00Z</time>
      </trkpt>
      <trkpt lat="43.15322" lon="5.99142">
        <ele>147.6</ele>
        <time>2023-03-22T10:01:01Z</time>
      </trkpt>
      <trkpt lat="43.15311" lon="5.99137">
        <ele>145.4</ele>
        <time>2023-03-22T10:01:02Z</time>
      </trkpt>
      <trkpt lat="43.153" lon="5.99132">
        <ele>143.4</ele>
        <time>2023-03-22T10:01:03Z</time>
      </trkpt>
      <trkpt lat="43.15289" lon="5.99127">
        <ele>141.6</ele>
        <time>2023-03-22T10:01:04Z</time>
      </trkpt>
      <trkpt lat="43.15277" lon="5.99121">
        <ele>139.6</ele>
        <time>2023-03-22T10:01:05Z</time>
      </trkpt>
      <trkpt lat="43.15265" lon="5.99112">
        <ele>138.2</ele>
        <time>2023-03-22T10:01:06Z</time>
      </trkpt>
      <trkpt lat="43.15255" lon="5.99102">
        <ele>136.8</ele>
        <time>2023-03-22T10:01:07Z</time>
      </trkpt>
      <trkpt lat="43.15246" lon="5.99089">
        <ele>135.2</ele>
        <time>2023-03-22T10:01:08Z</time>
      </trkpt>
      <trkpt lat="43.15239" lon="5.99077">
        <ele>133.2</ele>
        <time>2023-03-22T10:01:09Z</time>
      </trkpt>
      <trkpt lat="43.15233" lon="5.99064">
        <ele>130.8</ele>
        <time>2023-03-22T10:01:10Z</time>
      </trkpt>
      <trkpt lat="43.1523" lon="5.9905">
        <ele>128.4</ele>
        <time>2023-03-22T10:01:11Z</time>
      </trkpt>
      <trkpt lat="43.15227" lon="5.99035">
        <ele>126.2</ele>
        <time>2023-03-22T10:01:12Z</time>
      </trkpt>
      <trkpt lat="43.15226" lon="5.9902">
        <ele>123.6</ele>
        <time>2023-03-22T10:01:13Z</time>
      </trkpt>
      <trkpt lat="43.15224" lon="5.99005">
        <ele>121.2</ele>
        <time>2023-03-22T10:01:14Z</time>
      </trkpt>
      <trkpt lat="43.15222" lon="5.98992">
        <ele>119.6</ele>
        <time>2023-03-22T10:01:15Z</time>
      </trkpt>
      <trkpt lat="43.15218" lon="5.98979">
        <ele>118.6</ele>
        <time>2023-03-22T10:01:16Z</time>
      </trkpt>
      <trkpt lat="43.15206" lon="5.98943">
        <ele>117</ele>
        <time>2023-03-22T10:01:19Z</time>
      </trkpt>
      <trkpt lat="43.15197" lon="5.9892">
        <ele>115.8</ele>
        <time>2023-03-22T10:01:21Z</time>
      </trkpt>
      <trkpt lat="43.15186" lon="5.98891">
        <ele>114.8</ele>
        <time>2023-03-22T10:01:24Z</time>
      </trkpt>
      <trkpt lat="43.1518" lon="5.98878">
        <ele>114.4</ele>
        <time>2023-03-22T10:01:27Z</time>
      </trkpt>
      <trkpt lat="43.15178" lon="5.98878">
        <ele>115</ele>
        <time>2023-03-22T10:01:32Z</time>
      </trkpt>
      <trkpt lat="43.15178" lon="5.98879">
        <ele>115.8</ele>
        <time>2023-03-22T10:01:33Z</time>
      </trkpt>
      <trkpt lat="43.15178" lon="5.98879">
        <ele>116.8</ele>
        <time>2023-03-22T10:01:35Z</time>
      </trkpt>
      <trkpt lat="43.15178" lon="5.98879">
        <ele>117.6</ele>
        <time>2023-03-22T10:01:45Z</time>
      </trkpt>
      <trkpt lat="43.15178" lon="5.98879">
        <ele>117.4</ele>
        <time>2023-03-22T10:01:59Z</time>
      </trkpt>
      <trkpt lat="43.15178" lon="5.98879">
        <ele>117.4</ele>
        <time>2023-03-22T10:02:05Z</time>
      </trkpt>
      <trkpt lat="43.15178" lon="5.98879">
        <ele>117.2</ele>
        <time>2023-03-22T10:02:13Z</time>
      </trkpt>
    </trkseg>
  </trk>
</gpx>